Date StartTime U_cm/s V_cm/s W_cm/s Ustd_cm/s Vstd_cm/s Wstd_cm/s Uvar_(cm/s)^2 Vvar_(cm/s)^2 Wvar_(cm/s)^2 KE_(m/s)^2 TurbulentKE_(m/s)^2 HorizWindSpeed_cm/s FrictionSpeec_cm/s DragCoef SpeedOfSound_m/s SonicTemperature_C Pressure_mb 
02/27/2014  00:00:00       96.853     -169.748       -6.305      117.814      111.926       60.491    13880.110    12527.320     3659.127        3.414        1.503      195.435       71.546        0.134      336.826        8.386      852.132
02/27/2014  00:01:00       32.016     -136.949       26.970       85.357      140.571       86.720     7285.875    19760.117     7520.419        2.753        1.728      140.641       87.831        0.390      336.810        8.359      852.125
02/27/2014  00:02:00      105.503     -127.371       30.745      137.126      218.182      132.389    18803.560    47603.488    17526.841        5.610        4.197      165.392      136.981        0.686      336.612        8.029      852.076
02/27/2014  00:03:00       22.007     -182.037      -14.116       75.019      136.580       73.730     5627.925    18654.048     5436.166        3.176        1.486      183.362       81.186        0.196      336.625        8.051      852.103
02/27/2014  00:04:00       48.882      -22.285       46.418       81.961      122.593       82.617     6717.627    15029.007     6825.616        1.680        1.429       53.722       79.914        2.213      336.608        8.023      851.990
02/27/2014  00:05:00       43.109       49.887      157.560       95.321      146.773       89.232     9086.083    21542.453     7962.353        3.387        1.930       65.932       96.236        2.130      336.498        7.838      851.778
02/27/2014  00:06:00      233.316     -178.182       14.388      186.497      250.637      145.672    34781.249    62819.156    21220.256       10.258        5.941      293.573      178.236        0.369      336.412        7.692      851.547
02/27/2014  00:07:00      143.071       13.056      143.481      142.334      180.668      140.536    20259.037    32640.986    19750.380        5.692        3.633      143.666      144.336        1.009      336.333        7.561      851.221
02/27/2014  00:08:00      191.439       41.270      125.260      194.201      125.745       82.455    37713.958    15811.865     6798.868        5.717        3.016      195.837       92.511        0.223      336.273        7.460      850.923
02/27/2014  00:09:00      246.561       43.967      108.076      212.694      199.390      158.100    45238.711    39756.366    24995.462        9.218        5.500      250.450      143.222        0.327      336.217        7.367      850.831
02/27/2014  00:10:00       99.487       16.664      102.831      167.714      151.190       91.715    28127.890    22858.358     8411.557        4.006        2.970      100.873       99.801        0.979      336.213        7.362      850.859
02/27/2014  00:11:00       73.200       61.162      106.027      127.364      105.974       75.452    16221.708    11230.408     5692.933        2.674        1.657       95.389       72.441        0.577      336.170        7.290      850.795
02/27/2014  00:12:00       68.253       83.607      123.325      119.313      107.092       80.557    14235.688    11468.673     6489.401        2.952        1.610      107.929       65.011        0.363      336.159        7.272      850.718
02/27/2014  00:13:00      152.137     -231.225       -7.530      142.878      188.133      100.299    20414.085    35394.179    10059.918        7.125        3.293      276.786      123.144        0.198      336.241        7.407      850.864
02/27/2014  00:14:00      286.191     -276.014      -23.835      143.185      191.483      102.646    20502.008    36665.633    10536.290       11.317        3.385      397.604      109.523        0.076      336.205        7.347      851.049
02/27/2014  00:15:00      128.545      -14.954       77.089      153.189      158.804       88.761    23466.786    25218.647     7878.427        3.962        2.828      129.412      110.109        0.724      336.190        7.323      851.076
02/27/2014  00:16:00      111.713       85.123       43.361       74.933       62.365       57.145     5615.010     3889.444     3265.552        1.719        0.639      140.449       46.545        0.110      336.157        7.269      851.090
02/27/2014  00:17:00      145.560       68.579       80.154      134.125      109.237       84.330    17989.565    11932.765     7111.479        3.467        1.852      160.906       66.141        0.169      336.145        7.249      851.179
02/27/2014  00:18:00       82.194      -59.972       53.146      133.124      163.327       80.467    17721.984    26675.569     6474.920        3.201        2.544      101.747      106.019        1.086      336.128        7.221      851.286
02/27/2014  00:19:00      118.149      -80.757       81.091      148.071      221.645      129.795    21924.879    49126.510    16846.700        5.746        4.395      143.111      153.003        1.143      336.106        7.183      851.283
02/27/2014  00:20:00      -11.560       52.598      121.255       60.657      113.990       97.365     3679.234    12993.658     9480.020        2.187        1.308       53.853       94.000        3.047      336.119        7.207      851.368
02/27/2014  00:21:00      111.009     -170.089       -2.990       75.592       98.764       55.528     5714.136     9754.241     3083.327        2.990        0.928      203.109       53.360        0.069      336.149        7.255      851.466
02/27/2014  00:22:00       64.386     -101.818       26.866       90.521      138.077       81.217     8194.039    19065.282     6596.226        2.454        1.693      120.468       87.693        0.530      336.136        7.233      851.490
02/27/2014  00:23:00       36.837      -27.807      104.391       96.390      148.889       84.408     9290.987    22167.826     7124.685        2.580        1.929       46.154      103.251        5.005      336.085        7.148      851.439
02/27/2014  00:24:00       -8.363       54.333      111.080       40.524       72.378       38.425     1642.232     5238.556     1476.449        1.186        0.418       54.973       45.480        0.684      336.066        7.117      851.392
02/27/2014  00:25:00      180.707     -259.535        0.506      164.627      228.559      110.428    27101.903    52239.357    12194.336        9.576        4.577      316.249      152.213        0.232      336.068        7.119      851.390
02/27/2014  00:26:00      186.719     -133.770       53.002      139.174      190.344      104.700    19369.271    36230.997    10962.138        6.105        3.328      229.692      126.706        0.304      336.028        7.053      851.394
02/27/2014  00:27:00      297.549     -333.918      -74.892      145.092      185.092      115.369    21051.634    34259.210    13309.930       13.712        3.431      447.254      107.284        0.058      336.007        7.015      851.317
02/27/2014  00:28:00      149.014      -79.169       52.079      136.621      204.756      120.982    18665.380    41925.141    14636.746        5.319        3.761      168.739      139.033        0.679      336.006        7.014      851.301
02/27/2014  00:29:00       98.179       46.724      125.258       82.183      171.712      101.722     6753.975    29485.158    10347.333        3.704        2.329      108.730      119.315        1.204      335.973        6.960      851.132
02/27/2014  00:30:00      142.349      -32.585       55.679      144.869      163.738       82.309    20986.966    26810.093     6774.742        3.949        2.729      146.031       74.372        0.259      335.947        6.916      850.925
02/27/2014  00:31:00       61.662       96.523      123.929      104.150       83.080       45.497    10847.211     6902.273     2069.940        2.414        0.991      114.538       52.884        0.213      335.916        6.868      850.932
02/27/2014  00:32:00      106.799     -156.503      -19.943       96.698      131.074       63.449     9350.483    17180.474     4025.754        3.342        1.528      189.471       73.355        0.150      335.989        6.988      851.002
02/27/2014  00:33:00      196.224     -101.707       34.375      138.508      206.580      126.469    19184.546    42675.461    15994.488        6.393        3.893      221.016      145.373        0.433      335.932        6.892      850.986
02/27/2014  00:34:00      131.689       26.475      136.643      135.089      159.023      112.557    18249.157    25288.298    12669.032        4.645        2.810      134.324      111.922        0.694      335.932        6.892      851.032
02/27/2014  00:35:00      149.226       45.290      147.169      150.504      164.315      106.732    22651.537    26999.300    11391.672        5.350        3.052      155.948      115.782        0.551      335.904        6.845      851.125
02/27/2014  00:36:00      107.285      -75.764       85.238      161.901      258.313      137.430    26212.068    66725.368    18886.895        6.815        5.591      131.341      188.200        2.053      335.916        6.865      851.216
02/27/2014  00:37:00       85.110     -110.409       50.196      102.283      133.225       86.625    10461.857    17749.014     7503.848        2.883        1.786      139.406       93.596        0.451      335.946        6.916      851.291
02/27/2014  00:38:00      107.349      -51.720       77.227      151.238      170.781      116.692    22872.864    29166.153    13617.108        4.290        3.283      119.159      123.289        1.071      335.913        6.861      851.332
02/27/2014  00:39:00       -8.783      -25.409       84.464       56.378       93.650       76.444     3178.478     8770.257     5843.758        1.282        0.890       26.884       44.319        2.718      335.910        6.858      851.266
02/27/2014  00:40:00       47.199      -34.838       70.971      123.550      113.849       77.576    15264.701    12961.658     6017.978        2.135        1.712       58.664       81.110        1.912      335.945        6.915      851.150
02/27/2014  00:41:00       69.403      -37.721       45.836       70.402      105.683       72.483     4956.502    11168.841     5253.785        1.486        1.069       78.992       70.291        0.792      335.979        6.974      850.960
02/27/2014  00:42:00       44.845       60.588       58.026       65.638       38.420       34.165     4308.329     1476.072     1167.226        0.800        0.348       75.378       29.197        0.150      335.883        6.813      850.816
02/27/2014  00:43:00      116.776      -37.006       20.799       71.854       96.931       55.448     5162.940     9395.558     3074.503        1.653        0.882      122.500       50.354        0.169      335.863        6.779      850.753
02/27/2014  00:44:00      217.972     -254.998      -28.649      133.541      174.559       99.978    17833.197    30470.909     9995.603        8.582        2.915      335.464      108.177        0.104      335.892        6.825      850.736
02/27/2014  00:45:00       71.272      -58.926       48.607       91.174      159.174       91.080     8312.757    25336.262     8295.644        2.642        2.097       92.477       96.626        1.092      335.898        6.837      850.784
02/27/2014  00:46:00      113.538      -98.704       47.966       90.886      163.876       83.070     8260.179    26855.456     6900.598        3.347        2.101      150.444      101.768        0.458      335.999        7.004      850.846
02/27/2014  00:47:00      144.047     -189.442       18.736      108.073      180.671       98.351    11679.829    32642.152     9672.898        5.548        2.700      237.986      113.428        0.227      335.954        6.928      850.867
02/27/2014  00:48:00      143.119      -60.108       84.500      149.901      172.308      112.629    22470.375    29690.189    12685.353        4.803        3.242      155.229      126.880        0.668      335.970        6.955      850.853
02/27/2014  00:49:00      147.662      -61.120       63.942      151.377      166.410       96.673    22914.941    27692.195     9345.670        4.478        2.998      159.812      115.021        0.518      335.991        6.992      850.780
02/27/2014  00:50:00      114.159      -19.337       65.050       95.168      121.936       77.966     9056.967    14868.426     6078.655        2.381        1.500      115.785       68.313        0.348      336.027        7.050      850.650
02/27/2014  00:51:00       57.134       -3.944       61.389       61.635       65.856       43.511     3798.916     4337.066     1893.215        0.854        0.501       57.270       16.304        0.081      336.027        7.053      850.534
02/27/2014  00:52:00       78.972        6.570       54.904       70.375       65.758       54.045     4952.705     4324.084     2920.858        1.074        0.610       79.245       48.384        0.373      336.007        7.020      850.415
02/27/2014  00:53:00       64.751     -121.333        3.083       59.237      101.107       44.462     3509.050    10222.706     1976.911        1.731        0.785      137.529       37.495        0.074      336.069        7.120      850.336
02/27/2014  00:54:00       31.073      -20.908       51.329       47.392       92.474       56.935     2245.997     8551.365     3241.590        0.904        0.702       37.453       57.757        2.378      336.047        7.085      850.306
02/27/2014  00:55:00       48.621      -22.175       66.381       69.730      112.293       65.495     4862.313    12609.669     4289.620        1.451        1.088       53.439       67.255        1.584      336.030        7.057      850.270
02/27/2014  00:56:00      131.507      -16.947       61.246      127.946      107.203       68.813    16370.119    11492.473     4735.239        2.696        1.630      132.594       83.193        0.394      336.023        7.045      850.218
02/27/2014  00:57:00       39.225        7.464       56.812       63.949       71.822       54.741     4089.435     5158.368     2996.528        0.853        0.612       39.929       53.245        1.778      336.032        7.060      850.137
02/27/2014  00:58:00       86.948      -11.009       22.073       59.293       91.586       46.437     3515.704     8387.933     2156.432        1.111        0.703       87.642       44.213        0.254      336.037        7.069      850.034
02/27/2014  00:59:00      179.509       52.268       29.751       99.015       65.101       60.341     9803.939     4238.157     3641.009        2.676        0.884      186.964       50.877        0.074      336.027        7.051      849.937
02/27/2014  01:00:00      181.356       69.417       27.379       71.501       93.368       67.091     5112.360     8717.539     4501.262        2.839        0.917      194.187       38.148        0.039      336.091        7.158      849.932
02/27/2014  01:01:00      135.411       55.156       65.801       85.202      102.140       59.985     7259.326    10432.643     3598.197        2.350        1.065      146.214       43.623        0.089      336.042        7.075      849.978
02/27/2014  01:02:00       76.160       24.784       55.814       79.182       46.501       37.205     6269.749     2162.334     1384.239        0.967        0.491       80.091       29.816        0.139      336.073        7.129      850.018
02/27/2014  01:03:00       64.825        0.253       33.271       50.952       80.314       45.713     2596.129     6450.386     2089.711        0.822        0.557       64.825       44.457        0.470      336.114        7.197      850.063
02/27/2014  01:04:00       50.857       16.725       42.634       72.399       59.814       44.563     5241.641     3577.664     1985.838        0.774        0.540       53.536       35.332        0.436      336.085        7.151      850.140
02/27/2014  01:05:00       38.058       34.161       44.120       38.407       37.991       29.668     1475.084     1443.346      880.217        0.418        0.190       51.140       24.785        0.235      336.103        7.178      850.242
02/27/2014  01:06:00       55.859       31.686       36.529       50.827       41.842       34.580     2583.426     1750.779     1195.765        0.549        0.276       64.221       31.069        0.234      336.137        7.237      850.285
02/27/2014  01:07:00       17.688      -67.683        4.534       39.079       42.263       27.365     1527.138     1786.131      748.851        0.449        0.203       69.956       24.306        0.121      336.387        7.655      850.331
02/27/2014  01:08:00       59.969        1.702       58.154       71.227       97.121       44.503     5073.345     9432.556     1980.528        1.173        0.824       59.993       49.307        0.675      336.322        7.545      850.351
02/27/2014  01:09:00       34.494       33.184       83.112       66.450       91.244       52.776     4415.549     8325.552     2785.346        1.236        0.776       47.864       66.662        1.940      336.358        7.604      850.374
02/27/2014  01:10:00       47.758     -192.468       -0.420      116.541       70.223       50.231    13581.733     4931.228     2523.136        3.018        1.052      198.305       32.597        0.027      336.532        7.895      850.453
02/27/2014  01:11:00      -61.120     -138.822        4.138       53.086      123.092       44.759     2818.174    15151.586     2003.409        2.149        0.999      151.681       60.220        0.158      336.359        7.604      850.490
02/27/2014  01:12:00      -39.943       10.411       14.784       33.709       58.759       25.672     1136.318     3452.677      659.069        0.358        0.262       41.277       33.385        0.654      336.376        7.637      850.467
02/27/2014  01:13:00      -58.939      -87.093        2.162       36.783       49.451       29.575     1353.023     2445.386      874.695        0.787        0.234      105.162       13.267        0.016      336.439        7.742      850.466
02/27/2014  01:14:00       -7.057      -60.839       12.133      117.641       54.428       45.958    13839.374     2962.376     2112.157        1.140        0.946       61.247       47.749        0.608      336.442        7.746      850.473
02/27/2014  01:15:00      -70.975      -84.064        5.213       58.014       59.056       37.717     3365.672     3487.670     1422.583        1.020        0.414      110.019       20.992        0.036      336.491        7.830      850.456
02/27/2014  01:16:00      -27.457      -73.254        5.930      104.093       63.487       44.265    10835.296     4030.630     1959.364        1.149        0.841       78.231       43.699        0.312      336.506        7.852      850.506
02/27/2014  01:17:00       52.604     -109.700        0.962       97.824       94.876       58.471     9569.442     9001.516     3418.870        1.839        1.099      121.660       44.655        0.135      336.483        7.817      850.588
02/27/2014  01:18:00       -8.880      -67.257       33.917      107.590      100.353       62.078    11575.660    10070.740     3853.688        1.562        1.275       67.841       64.170        0.895      336.408        7.687      850.624
02/27/2014  01:19:00       80.831      -80.618       19.902      122.440      130.753       68.299    14991.581    17096.394     4664.739        2.508        1.838      114.162       74.868        0.430      336.320        7.540      850.543
02/27/2014  01:20:00      109.937     -261.312       -9.881      110.392      142.737       69.380    12186.345    20373.800     4813.569        5.891        1.869      283.497       71.384        0.063      336.344        7.579      850.517
02/27/2014  01:21:00     -243.704     -248.137      -27.785      199.873      187.655       74.120    39949.407    35214.390     5493.795       10.118        4.033      347.798       78.077        0.050      336.248        7.419      850.420
02/27/2014  01:22:00     -147.663     -172.684       11.927      158.058      115.032       77.913    24982.240    13232.409     6070.474        4.802        2.214      227.209       76.315        0.113      336.248        7.419      850.457
02/27/2014  01:23:00        0.703       48.922      108.066       61.368       82.431       64.482     3765.980     6794.818     4157.919        1.439        0.736       48.927       63.397        1.679      336.240        7.407      850.471
02/27/2014  01:24:00      -26.250      -17.931       55.706       53.846       86.590       73.718     2899.359     7497.798     5434.373        0.997        0.792       31.790       64.054        4.060      336.258        7.437      850.509
02/27/2014  01:25:00       -8.488      -81.698        3.560       94.210       73.042       33.072     8875.599     5335.168     1093.785        1.103        0.765       82.137       24.165        0.087      336.292        7.496      850.553
02/27/2014  01:26:00        6.228      -76.325       14.977       81.074       67.071       44.884     6572.972     4498.519     2014.576        0.958        0.654       76.578       20.798        0.074      336.450        7.760      850.589
02/27/2014  01:27:00      -81.930     -155.124        2.506      116.743       99.366       52.830    13628.866     9873.506     2790.993        2.853        1.315      175.431       37.358        0.045      336.205        7.348      850.662
02/27/2014  01:28:00       46.533     -150.207       19.884      128.573      143.271       89.132    16530.979    20526.596     7944.425        3.505        2.250      157.249       76.637        0.238      336.275        7.465      850.702
02/27/2014  01:29:00      -10.402      -95.822       31.440      109.550      118.861       82.050    12001.288    14128.005     6732.235        2.156        1.643       96.385       73.503        0.582      336.173        7.296      850.802
02/27/2014  01:30:00       18.750       -9.644       62.015      112.758      134.184       86.617    12714.426    18005.465     7502.520        2.125        1.911       21.085       81.363       14.891      336.077        7.136      850.888
02/27/2014  01:31:00       24.769     -112.609        8.253       73.335      109.791       63.606     5378.087    12054.117     4045.779        1.742        1.074      115.301       37.708        0.107      336.043        7.078      850.852
02/27/2014  01:32:00      102.020     -100.512       -7.112       88.357       90.404       61.965     7806.960     8172.845     3839.673        2.019        0.991      143.216       66.678        0.217      335.982        6.977      850.811
02/27/2014  01:33:00      -52.236     -103.533        2.637      152.536       81.602       49.693    23267.345     6658.867     2469.416        2.292        1.620      115.964       34.346        0.088      336.056        7.100      850.889
02/27/2014  01:34:00     -143.585      -55.287        1.156       63.359       60.093       40.654     4014.344     3611.139     1652.783        1.647        0.464      153.861       35.494        0.053      335.862        6.776      850.983
02/27/2014  01:35:00     -105.311      -22.836       11.895       98.009       89.860       66.035     9605.704     8074.828     4360.606        1.689        1.102      107.759       65.211        0.366      335.878        6.802      851.083
02/27/2014  01:36:00     -237.916     -190.286      -16.910      123.484      103.393       54.668    15248.228    10690.067     2988.641        6.101        1.446      304.652       48.075        0.025      335.736        6.566      851.298
02/27/2014  01:37:00     -205.065     -138.866        1.131      165.357       90.976       62.089    27343.035     8276.573     3855.062        5.040        1.974      247.660       60.180        0.059      335.690        6.488      851.399
02/27/2014  01:38:00     -264.126      -81.296        2.554      126.292      103.696       66.023    15949.570    10752.809     4359.014        5.371        1.553      276.354       48.925        0.031      335.573        6.294      851.417
02/27/2014  01:39:00     -368.398     -104.266        7.770      176.808      121.863       88.578    31261.110    14850.564     7845.985       10.029        2.698      382.869       99.474        0.068      335.505        6.180      851.677
02/27/2014  01:40:00     -499.719     -240.937      -11.527      204.090      178.073       94.844    41652.874    31710.052     8995.350       19.511        4.118      554.770       94.942        0.029      335.433        6.059      851.884
02/27/2014  01:41:00     -426.391     -333.471      -10.325      300.740      233.133      145.294    90444.683    54350.977    21110.335       22.948        8.295      541.306      159.724        0.087      335.554        6.262      851.984
02/27/2014  01:42:00     -513.274     -194.423      -27.918      298.998      286.204      114.914    89399.924    81912.927    13205.150       24.324        9.226      548.863      140.909        0.066      335.569        6.286      851.977
02/27/2014  01:43:00     -392.151     -216.361       -7.792      295.993      236.768      117.602    87611.839    56058.906    13830.322       17.905        7.875      447.878      147.961        0.109      335.478        6.135      851.834
02/27/2014  01:44:00     -408.047     -223.941       -5.655      198.210      182.008       99.802    39287.388    33127.083     9960.449       14.951        4.119      465.459       94.465        0.041      335.433        6.059      851.886
02/27/2014  01:45:00     -593.091     -350.135      -15.028      345.197      248.757      148.566   119161.201    61879.804    22071.835       33.881       10.156      688.731      173.345        0.063      335.383        5.976      851.925
02/27/2014  01:46:00     -508.509     -343.763      -31.621      292.091      224.220      110.296    85317.089    50274.831    12165.157       26.273        7.388      613.803      131.963        0.046      335.327        5.883      851.941
02/27/2014  01:47:00     -574.880     -200.192      -33.387      241.923      273.458       93.741    58526.972    74779.466     8787.400       25.686        7.105      608.739       75.868        0.016      335.278        5.801      851.910
02/27/2014  01:48:00     -483.992     -250.697       -9.892      247.162      186.269       99.392    61089.246    34696.181     9878.673       20.141        5.283      545.066      117.786        0.047      335.225        5.714      851.927
02/27/2014  01:49:00     -574.099     -268.835      -14.813      263.715      213.788      108.134    69545.592    45705.496    11693.000       26.449        6.347      633.926      133.006        0.044      335.156        5.601      852.068
02/27/2014  01:50:00     -785.338     -353.188      -26.011      422.205      190.959      123.089   178257.063    36465.232    15150.999       48.598       11.494      861.103      121.063        0.020      335.048        5.421      852.044
02/27/2014  01:51:00     -304.171     -146.846        6.000      240.975      197.320      106.150    58069.062    38935.088    11267.814       11.117        5.414      337.763      117.309        0.121      335.059        5.440      852.194
02/27/2014  01:52:00     -610.171     -287.595       -9.897      324.163      258.386      130.558   105081.530    66763.523    17045.426       32.197        9.445      674.552      137.768        0.042      335.029        5.391      852.224
02/27/2014  01:53:00     -414.257      -24.342       18.652      366.903      179.740      122.951   134617.489    32306.494    15116.861       17.726        9.102      414.972      168.494        0.165      335.019        5.373      852.306
02/27/2014  01:54:00     -399.797     -181.996       12.199      281.828      262.392      145.729    79426.989    68849.646    21236.864       18.128        8.476      439.273      167.418        0.145      334.960        5.275      852.255
02/27/2014  01:55:00     -487.305     -247.872       -1.850      295.514      340.574      120.839    87328.405   115990.812    14602.074       25.837       10.896      546.724      138.886        0.065      334.894        5.164      852.321
02/27/2014  01:56:00     -512.364     -165.408      -21.002      289.124      198.879      100.717    83592.597    39552.995    10144.006       21.178        6.664      538.402      124.564        0.054      334.845        5.084      852.305
02/27/2014  01:57:00     -507.001     -390.578      -13.169      309.858      250.551      119.849    96011.689    62775.597    14363.791       29.143        8.658      640.001      143.831        0.051      334.838        5.073      852.322
02/27/2014  01:58:00     -493.670     -184.220      -36.742      197.235      180.930       85.201    38901.610    32735.788     7259.223       17.893        3.945      526.922      101.185        0.037      334.805        5.016      852.256
02/27/2014  01:59:00     -501.038     -155.659      -19.651      250.219      171.219      105.493    62609.403    29316.044    11128.712       18.933        5.153      524.661      113.834        0.047      334.843        5.080      852.077
02/27/2014  02:00:00     -200.116     -160.746      -11.475      141.887      116.889       77.328    20132.051    13662.929     5979.589        5.289        1.989      256.682       61.984        0.058      334.823        5.048      851.891
02/27/2014  02:01:00     -347.110     -153.628       -1.997      171.701      148.626       83.072    29481.200    22089.676     6900.938       10.127        2.924      379.588       91.634        0.058      334.832        5.062      851.859
02/27/2014  02:02:00     -178.326     -211.284       -9.428      142.379      102.138       60.770    20271.835    10432.120     3693.046        5.546        1.720      276.479       63.105        0.052      334.870        5.126      851.942
02/27/2014  02:03:00     -272.756     -196.862        7.056      163.046      122.541       77.688    26584.078    15016.387     6035.497        8.041        2.382      336.378       74.135        0.049      334.907        5.186      851.912
02/27/2014  02:04:00     -171.114     -141.292       12.600      196.580       94.416       75.096    38643.551     8914.357     5639.338        5.129        2.660      221.908       86.176        0.151      334.954        5.267      851.856
02/27/2014  02:05:00     -238.583     -246.695      -11.609      121.041       93.419       59.667    14650.925     8727.124     3560.138        7.242        1.347      343.191       59.451        0.030      334.925        5.217      851.803
02/27/2014  02:06:00     -151.405      -83.654        4.398       99.211       84.118       41.649     9842.745     7075.796     1734.676        2.429        0.933      172.979       39.704        0.053      334.920        5.209      851.748
02/27/2014  02:07:00      -94.047     -172.786        0.282       66.053       62.664       42.237     4362.977     3926.749     1783.924        2.438        0.504      196.723       33.956        0.030      334.991        5.327      851.652
02/27/2014  02:08:00      -73.967      -51.361        4.683       71.831       44.063       36.777     5159.748     1941.587     1352.558        0.829        0.423       90.050       25.352        0.079      335.061        5.445      851.547
02/27/2014  02:09:00      -40.499      -70.786       -4.406       42.804       53.217       26.053     1832.168     2832.041      678.755        0.601        0.267       81.553       10.099        0.015      335.042        5.412      851.443
02/27/2014  02:10:00      -51.624      -60.534        8.445       62.238       34.523       31.212     3873.530     1191.825      974.169        0.622        0.302       79.558       27.948        0.123      335.106        5.521      851.332
02/27/2014  02:11:00       27.342       24.005       17.427       56.014       28.402       30.072     3137.581      806.664      904.340        0.324        0.242       36.384       22.742        0.391      335.087        5.488      851.191
02/27/2014  02:12:00      -43.173       32.575       35.298       23.603       31.011       32.337      557.118      961.697     1045.693        0.337        0.128       54.084       25.325        0.219      335.098        5.507      851.139
02/27/2014  02:13:00      -78.362       23.151        4.093       27.763       24.662       18.045      770.809      608.220      325.622        0.420        0.085       81.710       14.209        0.030      335.072        5.465      851.167
02/27/2014  02:14:00        5.547       27.212        6.051       30.366       14.927       19.026      922.107      222.827      361.973        0.116        0.075       27.772       18.536        0.445      335.030        5.394      851.051
02/27/2014  02:15:00      -53.210       90.374      -16.740       33.137       35.628       19.920     1098.073     1269.342      396.820        0.702        0.138      104.875       16.414        0.024      335.085        5.484      851.003
02/27/2014  02:16:00      -39.012      104.873       -8.306       35.922       40.702       23.747     1290.373     1656.659      563.909        0.805        0.176      111.894       16.124        0.021      335.114        5.533      851.122
02/27/2014  02:17:00       -9.116      160.479      -24.576       21.332       30.399       14.965      455.073      924.099      223.945        1.402        0.080      160.737       18.745        0.014      334.855        5.103      851.154
02/27/2014  02:18:00       -4.358      154.855      -17.457       21.449       17.219        9.991      460.046      296.499       99.811        1.258        0.043      154.916        6.504        0.002      334.892        5.164      851.133
02/27/2014  02:19:00       -8.092      181.584      -25.158       17.625       25.942       12.131      310.652      672.992      147.166        1.740        0.057      181.765        9.694        0.003      334.869        5.127      851.147
02/27/2014  02:20:00      -22.903      168.606      -24.136       27.900       23.505       15.656      778.389      552.482      245.119        1.556        0.079      170.154        8.325        0.002      334.903        5.182      851.185
02/27/2014  02:21:00      -54.179      122.823       -9.328       45.208       39.594       25.653     2043.760     1567.699      658.081        1.119        0.213      134.241       20.729        0.024      335.135        5.568      851.259
02/27/2014  02:22:00      -51.215      125.450       -9.681       37.536       46.058       26.066     1408.954     2121.367      679.437        1.133        0.210      135.502       27.546        0.041      335.081        5.479      851.316
02/27/2014  02:23:00        4.249      146.302      -23.296       20.391       20.075        8.800      415.794      402.993       77.437        1.143        0.045      146.364        6.942        0.002      334.880        5.143      851.283
02/27/2014  02:24:00       14.818       86.803      -20.784       21.700       31.641       13.254      470.910     1001.162      175.668        0.492        0.082       88.059       13.417        0.023      334.873        5.131      851.187
02/27/2014  02:25:00       -1.060      111.446      -21.861       27.191       21.277       11.710      739.343      452.705      137.119        0.711        0.066      111.451        6.195        0.003      334.809        5.026      851.059
02/27/2014  02:26:00      -92.920       29.088       -7.724       39.444       48.407       18.669     1555.800     2343.238      348.544        0.689        0.212       97.366       14.839        0.023      334.968        5.292      850.972
02/27/2014  02:27:00      -96.402       31.861       -4.744       51.280       27.053       20.864     2629.671      731.855      435.299        0.706        0.190      101.530       18.789        0.034      334.923        5.215      850.914
02/27/2014  02:28:00      -18.938       91.656       -8.861       25.832       56.418       20.495      667.283     3182.977      420.034        0.655        0.214       93.592       24.003        0.066      335.024        5.385      850.843
02/27/2014  02:29:00      -18.484      109.380       -7.551       20.472       60.386       21.192      419.114     3646.503      449.107        0.844        0.226      110.930       26.254        0.056      334.998        5.342      850.786
02/27/2014  02:30:00      -54.182       86.273       -5.868       28.381       42.836       25.801      805.459     1834.963      665.712        0.686        0.165      101.876       17.498        0.030      335.059        5.441      850.760
02/27/2014  02:31:00     -115.578       32.232      -17.320       41.882       35.557       23.550     1754.126     1264.332      554.600        0.913        0.179      119.988       24.491        0.042      334.952        5.265      850.790
02/27/2014  02:32:00     -115.482        2.425      -15.238       32.028       34.512       19.383     1025.805     1191.050      375.691        0.808        0.130      115.508       15.213        0.017      334.953        5.266      850.846
02/27/2014  02:33:00     -125.643       11.561      -24.203       41.907       41.074       22.102     1756.203     1687.054      488.509        1.022        0.197      126.174       18.192        0.021      334.906        5.188      850.863
02/27/2014  02:34:00      -13.339      -16.879        5.184       37.370       26.322       27.197     1396.514      692.843      739.663        0.166        0.141       21.513       24.218        1.267      334.971        5.297      850.863
02/27/2014  02:35:00       34.080       -3.139       -4.613       45.445       23.767       24.584     2065.284      564.868      604.350        0.221        0.162       34.225       17.713        0.268      335.000        5.343      850.860
02/27/2014  02:36:00      -50.430       -6.038      -20.952       57.998       51.430       20.755     3363.819     2645.084      430.751        0.473        0.322       50.790       17.156        0.114      335.036        5.404      850.828
02/27/2014  02:37:00      -35.725      -24.715      -15.286       14.779       11.933        9.573      218.422      142.404       91.651        0.129        0.023       43.441        7.606        0.031      335.061        5.446      850.809
02/27/2014  02:38:00        8.953       15.020       -9.471       27.269       21.631        9.423      743.601      467.911       88.791        0.085        0.065       17.486        4.803        0.075      335.089        5.493      850.772
02/27/2014  02:39:00       -8.492       47.834       39.461       23.964       39.426       43.979      574.270     1554.444     1934.121        0.399        0.203       48.582       26.413        0.296      335.132        5.565      850.718
02/27/2014  02:40:00       -5.612      116.662      128.210       19.847       48.059       26.302      393.897     2309.672      691.805        1.674        0.170      116.797       24.913        0.045      335.084        5.486      850.749
02/27/2014  02:41:00       67.179       22.130       72.023       79.359       63.343       47.825     6297.917     4012.307     2287.237        1.139        0.630       70.730       59.260        0.702      335.003        5.349      850.844
02/27/2014  02:42:00      132.432      -66.756       19.153       65.837       43.602       41.072     4334.518     1901.106     1686.870        1.514        0.396      148.306       28.777        0.038      334.913        5.199      850.912
02/27/2014  02:43:00      101.994      -13.713       38.333       52.471       38.466       39.228     2753.255     1479.600     1538.828        0.891        0.289      102.912       34.553        0.113      334.850        5.095      850.948
02/27/2014  02:44:00       99.134       52.239       30.321       64.459       47.477       36.293     4154.903     2254.037     1317.204        1.060        0.386      112.056       31.078        0.077      334.851        5.097      850.918
02/27/2014  02:45:00      196.172       96.752       47.713       80.756       50.493       50.800     6521.517     2549.561     2580.655        3.088        0.583      218.734       44.453        0.041      334.727        4.886      850.767
02/27/2014  02:46:00      182.311       96.604       26.371       65.649       45.491       43.101     4309.786     2069.453     1857.680        2.575        0.412      206.325       26.114        0.016      334.676        4.802      850.744
02/27/2014  02:47:00      146.621       93.457       38.560       31.855       34.097       29.302     1014.746     1162.573      858.614        1.738        0.152      173.873       14.536        0.007      334.666        4.787      850.863
02/27/2014  02:48:00      114.153       51.767       65.704       72.673       63.156       52.860     5281.434     3988.698     2794.141        1.604        0.603      125.343       43.938        0.123      334.682        4.814      850.923
02/27/2014  02:49:00       63.329       21.116       46.408       48.670       36.721       36.166     2368.811     1348.420     1307.994        0.582        0.251       66.756       23.575        0.125      334.699        4.845      851.017
02/27/2014  02:50:00       36.021       63.896       93.228       60.156       77.563       37.731     3618.695     6016.048     1423.643        1.256        0.553       73.350       41.338        0.318      334.811        5.029      851.007
02/27/2014  02:51:00      133.520      152.753      103.461       97.577       70.973       77.272     9521.286     5037.212     5970.924        3.619        1.026      202.881       64.536        0.101      334.765        4.950      850.889
02/27/2014  02:52:00      163.483      107.614       96.553       83.552       67.663       63.593     6980.958     4578.347     4044.053        3.161        0.780      195.723       58.439        0.089      334.667        4.786      850.892
02/27/2014  02:53:00       44.407      -26.312       27.187       69.405       54.664       45.115     4817.024     2988.138     2035.384        0.662        0.492       51.617       34.810        0.455      334.741        4.912      851.038
02/27/2014  02:54:00       38.872      -64.494       10.396       29.556       57.153       22.422      873.536     3266.475      502.734        0.521        0.232       75.303       13.369        0.032      334.811        5.029      851.225
02/27/2014  02:55:00       19.073      -91.877       -9.479       49.591       25.815       25.328     2459.274      666.394      641.491        0.633        0.188       93.836        8.539        0.008      334.977        5.304      851.319
02/27/2014  02:56:00       31.511      -59.128       12.945       39.737       53.647       38.208     1579.053     2877.952     1459.822        0.529        0.296       67.000       40.792        0.371      335.037        5.406      851.368
02/27/2014  02:57:00      -30.056       24.746       46.501       22.505       21.746       28.899      506.480      472.889      835.140        0.275        0.091       38.932       15.834        0.165      334.953        5.266      851.369
02/27/2014  02:58:00       37.358       54.777       21.846       29.198       23.583       18.361      852.552      556.161      337.133        0.331        0.087       66.303       13.177        0.039      334.943        5.249      851.327
02/27/2014  02:59:00       78.824       42.419        3.876       26.960       33.201       27.210      726.836     1102.317      740.364        0.530        0.128       89.513       19.087        0.045      334.856        5.105      851.248
02/27/2014  03:00:00       30.637      107.696      -12.434       32.015       48.404       24.373     1024.961     2342.965      594.054        0.833        0.198      111.969       28.024        0.063      334.804        5.018      851.209
02/27/2014  03:01:00       -8.398      102.455      -16.795       28.764       25.688       14.997      827.380      659.863      224.924        0.628        0.086      102.799       10.041        0.010      334.912        5.197      851.226
02/27/2014  03:02:00        2.857       78.082      -13.270       24.996       19.540       14.335      624.778      381.829      205.479        0.375        0.061       78.134        8.958        0.013      334.896        5.171      851.251
02/27/2014  03:03:00       28.568       79.770       -8.393       26.789       19.138       13.537      717.660      366.251      183.248        0.426        0.063       84.731       12.445        0.022      334.855        5.102      851.228
02/27/2014  03:04:00       37.122       61.404      -10.007       39.352       32.337       21.791     1548.568     1045.696      474.838        0.416        0.153       71.753       18.592        0.067      334.801        5.011      851.170
02/27/2014  03:05:00      -11.237       70.855      -10.682       35.387       21.935       16.958     1252.250      481.148      287.559        0.364        0.101       71.741       19.056        0.071      334.845        5.088      851.187
02/27/2014  03:06:00      -72.921       19.305      -12.701       38.129       23.473       18.634     1453.829      550.984      347.207        0.410        0.118       75.433       19.030        0.064      334.874        5.133      851.245
02/27/2014  03:07:00     -161.609       60.514      -23.827       51.014       42.138       25.981     2602.442     1775.631      675.007        1.770        0.253      172.567       21.381        0.015      334.791        4.995      851.255
02/27/2014  03:08:00     -127.232      106.194      -21.492       51.191       51.665       32.266     2620.487     2669.286     1041.110        1.713        0.317      165.726       29.066        0.031      334.893        5.165      851.181
02/27/2014  03:09:00     -124.959      144.393      -28.384       43.706       59.097       26.015     1910.243     3492.484      676.789        2.167        0.304      190.955       22.977        0.014      334.911        5.195      851.138
02/27/2014  03:10:00      -13.539      182.986      -17.312       41.792       32.314       21.328     1746.542     1044.200      454.896        1.861        0.162      183.486       15.721        0.007      334.944        5.249      851.130
02/27/2014  03:11:00      -48.942       69.723      -11.871      109.466       40.853       36.516    11982.791     1669.008     1333.439        1.119        0.749       85.185       46.602        0.299      335.027        5.389      851.164
02/27/2014  03:12:00     -115.302       50.290       -3.872       52.054       38.830       27.891     2709.584     1507.801      777.914        1.042        0.250      125.792       16.795        0.018      334.871        5.130      851.214
02/27/2014  03:13:00      -55.505      121.342       -7.707       47.087       62.366       35.778     2217.141     3889.477     1280.058        1.262        0.369      133.434       31.676        0.056      334.966        5.288      851.156
02/27/2014  03:14:00      -10.507      154.685       -5.531       27.417       74.673       25.870      751.704     5576.025      669.249        1.553        0.350      155.041       33.300        0.046      334.947        5.254      851.125
02/27/2014  03:15:00       45.816       45.551       -0.486       38.195       33.883       24.824     1458.832     1148.054      616.230        0.370        0.161       64.607       17.566        0.074      334.945        5.253      851.128
02/27/2014  03:16:00       40.379        7.169        3.973       43.417       25.964       18.119     1885.023      674.112      328.312        0.229        0.144       41.011       12.089        0.087      335.024        5.383      851.172
02/27/2014  03:17:00       -9.887       -6.318        5.558       15.764       10.653        8.334      248.505      113.493       69.453        0.030        0.022       11.734        7.378        0.395      334.984        5.316      851.185
02/27/2014  03:18:00       18.560       32.033        1.359       28.964       33.108       17.382      838.903     1096.171      302.122        0.180        0.112       37.022       20.841        0.317      334.989        5.325      851.188
02/27/2014  03:19:00       10.784       39.683      -16.414       16.813       13.618        7.374      282.672      185.440       54.369        0.124        0.026       41.122        7.757        0.036      334.946        5.253      851.218
02/27/2014  03:20:00       73.570       51.180        5.070       36.784       30.819       20.220     1353.053      949.828      408.861        0.538        0.136       89.621        8.919        0.010      334.899        5.177      851.193
02/27/2014  03:21:00      165.539       98.474        2.572       49.549       38.599       42.512     2455.122     1489.860     1807.305        2.143        0.288      192.614       24.378        0.016      334.818        5.041      851.067
02/27/2014  03:22:00      137.237       88.159       37.478       71.322       61.615       49.194     5086.851     3796.353     2420.096        1.965        0.565      163.113       36.767        0.051      334.710        4.861      850.926
02/27/2014  03:23:00      200.781       98.127       28.437      104.200       65.460       54.187    10857.657     4284.957     2936.270        3.441        0.904      223.477       55.524        0.062      334.787        4.988      850.817
02/27/2014  03:24:00      105.022       67.769       23.822       64.954       65.704       47.474     4219.083     4317.077     2253.786        1.349        0.539      124.989       43.737        0.122      334.841        5.079      850.789
02/27/2014  03:25:00       54.854       52.528       -0.221       63.403       42.896       29.676     4019.916     1840.025      880.669        0.625        0.337       75.948       18.943        0.062      334.775        4.969      850.849
02/27/2014  03:26:00      -47.487       14.709      -11.454       37.801       28.976       16.371     1428.935      839.598      268.012        0.257        0.127       49.713       11.640        0.055      334.736        4.905      850.925
02/27/2014  03:27:00      -80.712        3.456       -9.756       27.737       27.086       13.579      769.347      733.678      184.379        0.415        0.084       80.786       11.891        0.022      334.704        4.852      850.988
02/27/2014  03:28:00     -124.802      -11.032      -12.901       31.050       14.719       14.404      964.079      216.635      207.481        0.863        0.069      125.289        8.289        0.004      334.769        4.961      851.046
02/27/2014  03:29:00      -46.822       12.392       -3.064       25.884       17.907       10.908      669.990      320.655      118.975        0.173        0.055       48.434        5.976        0.015      334.828        5.058      851.068
02/27/2014  03:30:00       47.135       48.960        6.919       55.794       28.136       33.384     3112.976      791.662     1114.507        0.484        0.251       67.961       19.402        0.082      334.874        5.136      851.038
02/27/2014  03:31:00       64.842       97.624       67.296       37.607       29.016       30.512     1414.297      841.912      930.957        1.072        0.159      117.196       10.594        0.008      334.915        5.203      851.043
02/27/2014  03:32:00       41.159       77.605       73.149       33.944       26.908       29.349     1152.189      724.024      861.386        0.790        0.137       87.844       22.091        0.063      334.915        5.203      851.105
02/27/2014  03:33:00      105.658       67.227       51.294       52.337       32.001       41.038     2739.116     1024.089     1684.141        1.188        0.272      125.232       33.948        0.073      334.835        5.069      851.131
02/27/2014  03:34:00      161.225       79.132       49.305       61.901       43.312       46.432     3831.768     1875.912     2155.890        2.127        0.393      179.597       21.047        0.014      334.744        4.917      851.140
02/27/2014  03:35:00       87.684       17.117       22.242       66.062       46.636       38.833     4364.166     2174.921     1508.005        0.826        0.402       89.339       29.608        0.110      334.716        4.872      851.212
02/27/2014  03:36:00       90.141       62.165       18.344       31.321       18.226       17.843      981.036      332.194      318.374        0.698        0.082      109.499       10.340        0.009      334.732        4.898      851.312
02/27/2014  03:37:00       92.844       68.457       24.062       28.740       17.856       24.725      825.964      318.836      611.304        0.782        0.088      115.353       16.924        0.022      334.690        4.828      851.334
02/27/2014  03:38:00      103.377       75.133       13.439       39.316       27.840       19.788     1545.748      775.046      391.572        0.961        0.136      127.796        8.244        0.004      334.611        4.696      851.328
02/27/2014  03:39:00      126.608       91.298       12.439       36.272       31.927       25.626     1315.641     1019.348      656.703        1.376        0.150      156.093       17.089        0.012      334.604        4.685      851.315
02/27/2014  03:40:00      107.525       82.306       14.182       40.615       30.514       26.064     1649.572      931.076      679.356        1.090        0.163      135.411       19.371        0.020      334.672        4.797      851.316
02/27/2014  03:41:00       65.808       63.914        4.197       37.910       31.075       24.497     1437.132      965.672      600.109        0.572        0.150       91.737       18.760        0.042      334.635        4.738      851.353
02/27/2014  03:42:00       23.605       51.241       -5.836       22.027       24.029       13.426      485.206      577.394      180.258        0.223        0.062       56.416       12.507        0.049      334.804        5.018      851.406
02/27/2014  03:43:00       26.444       29.371       -3.269       16.073       24.130       16.552      258.326      582.273      273.959        0.134        0.056       39.521        8.183        0.043      334.817        5.041      851.482
02/27/2014  03:44:00       82.396       74.729        3.560       46.379       24.363       22.026     2150.972      593.565      485.153        0.781        0.161      111.237       16.759        0.023      334.772        4.965      851.501
02/27/2014  03:45:00      170.026       98.860        4.305       45.460       42.960       34.945     2066.582     1845.538     1221.162        2.192        0.257      196.677       29.288        0.022      334.703        4.848      851.414
02/27/2014  03:46:00       56.975       81.944      -12.132       55.584       36.704       26.125     3089.536     1347.210      682.540        0.761        0.256       99.805       17.722        0.032      334.716        4.874      851.409
02/27/2014  03:47:00       22.247      141.486      -22.188       44.936       35.653       25.327     2019.237     1271.108      641.481        1.247        0.197      143.224       11.465        0.006      334.862        5.115      851.488
02/27/2014  03:48:00      -87.568       70.858      -25.020       30.941       40.447       17.140      957.320     1635.960      293.765        0.810        0.144      112.645       12.047        0.011      334.918        5.209      851.556
02/27/2014  03:49:00       -7.926       85.320       -6.970       59.586       32.628       27.255     3550.521     1064.615      742.821        0.637        0.268       85.688       33.597        0.154      334.926        5.222      851.582
02/27/2014  03:50:00      -62.875       15.603      -18.870       41.157       42.052       14.918     1693.939     1768.412      222.551        0.412        0.184       64.782        9.056        0.020      334.952        5.264      851.569
02/27/2014  03:51:00      -90.253       24.698      -12.008       35.959       33.659       21.751     1293.049     1132.900      473.112        0.590        0.145       93.572        9.412        0.010      335.010        5.361      851.557
02/27/2014  03:52:00     -153.774      -12.139       -1.817       69.774       58.062       34.434     4868.406     3371.167     1185.702        1.661        0.471      154.252       26.674        0.030      335.151        5.594      851.564
02/27/2014  03:53:00     -184.585        5.993       -9.337       56.929       58.635       37.735     3240.953     3438.105     1423.915        2.115        0.405      184.682       16.319        0.008      335.169        5.624      851.590
02/27/2014  03:54:00     -282.285      -95.328      -20.412      108.610       82.330       44.513    11796.239     6778.148     1981.396        5.487        1.028      297.947       31.649        0.011      335.256        5.765      851.600
02/27/2014  03:55:00     -325.494      -78.601      -14.799      102.234       93.680       51.027    10451.748     8775.953     2603.749        6.708        1.092      334.850       43.070        0.017      335.272        5.791      851.587
02/27/2014  03:56:00     -245.360      -64.007       -1.861      116.919      119.949       54.382    13669.949    14387.790     2957.455        4.765        1.551      253.571       46.667        0.034      335.307        5.852      851.568
02/27/2014  03:57:00     -259.430       50.383      -32.758      109.590       69.280       38.907    12010.033     4799.656     1513.768        4.462        0.916      264.277       37.660        0.020      335.311        5.859      851.533
02/27/2014  03:58:00     -210.742       72.481      -33.788       67.094       62.926       39.570     4501.655     3959.693     1565.793        3.042        0.501      222.858       25.821        0.013      335.339        5.904      851.474
02/27/2014  03:59:00     -147.519      142.420      -19.379       66.477       89.127       49.199     4419.238     7943.623     2420.580        2.860        0.739      205.050       44.317        0.047      335.447        6.084      851.406
02/27/2014  04:00:00     -193.569      232.277      -48.561       91.148       62.836       40.118     8308.047     3948.323     1609.450        5.382        0.693      302.360       43.326        0.021      335.608        6.351      851.340
02/27/2014  04:01:00     -198.190      118.528      -29.725       71.493       66.986       49.898     5111.184     4487.172     2489.851        3.315        0.604      230.929       40.112        0.030      335.551        6.257      851.324
02/27/2014  04:02:00     -225.428      123.140      -32.833       95.358      107.702       58.468     9093.148    11599.731     3418.525        4.558        1.206      256.868       57.814        0.051      335.526        6.217      851.355
02/27/2014  04:03:00     -261.327      112.949      -28.774      119.102       86.639       45.730    14185.169     7506.356     2091.190        5.283        1.189      284.692       40.713        0.020      335.527        6.216      851.385
02/27/2014  04:04:00     -182.769       20.111      -21.063      120.173      150.154       46.423    14441.554    22546.299     2155.115        3.669        1.957      183.872       28.390        0.024      335.572        6.293      851.411
02/27/2014  04:05:00     -293.675      -79.491       -5.588      208.358      151.494       94.352    43413.213    22950.355     8902.297        8.392        3.763      304.243      104.895        0.119      335.609        6.355      851.457
02/27/2014  04:06:00     -306.608       12.896      -18.044      122.988      121.760       69.121    15126.092    14825.426     4777.726        6.461        1.736      306.879       71.375        0.054      335.634        6.395      851.596
02/27/2014  04:07:00     -452.229      -76.486      -45.154      185.315      140.766       83.058    34341.704    19815.005     6898.687       13.672        3.053      458.652       93.827        0.042      335.546        6.248      851.680
02/27/2014  04:08:00     -454.199     -108.831      -27.867      163.658      139.568       75.645    26784.084    19479.287     5722.237       13.544        2.599      467.056       75.762        0.026      335.584        6.312      851.739
02/27/2014  04:09:00     -488.223     -119.970      -29.458      168.469      143.353       77.650    28381.637    20550.123     6029.532       15.428        2.748      502.747       77.136        0.024      335.494        6.163      851.824
02/27/2014  04:10:00     -586.623     -115.782      -24.783      242.633      229.104      100.110    58870.842    52488.505    10022.085       23.974        6.069      597.940      100.047        0.028      335.280        5.807      851.859
02/27/2014  04:11:00     -583.875     -252.084       -0.268      338.201      227.150      123.697   114380.035    51597.322    15300.929       29.283        9.064      635.969      149.960        0.056      335.115        5.533      851.865
02/27/2014  04:12:00     -539.312       -0.821      -39.532      248.004      174.461       91.494    61505.889    30436.669     8371.144       19.635        5.016      539.312      105.110        0.038      334.958        5.272      851.954
02/27/2014  04:13:00     -526.602      -68.083      -18.196      271.779      178.000      117.287    73863.614    31683.995    13756.299       20.077        5.965      530.984      116.608        0.048      334.685        4.816      852.034
02/27/2014  04:14:00     -414.418      -69.859       -0.727      252.294      178.547       99.985    63652.140    31878.935     9997.088       14.105        5.276      420.265      118.528        0.080      334.559        4.607      852.128
02/27/2014  04:15:00     -649.268     -157.439      -32.146      286.375      187.708      109.912    82010.590    35234.255    12080.634       28.832        6.466      668.083      124.670        0.035      334.410        4.361      852.136
02/27/2014  04:16:00     -488.696      -89.993      -15.760      225.625      182.804       99.911    50906.783    33417.199     9982.267       17.072        4.715      496.913      104.117        0.044      334.313        4.200      852.168
02/27/2014  04:17:00     -561.143     -101.598      -21.467      221.877      153.613       83.814    49229.368    23597.026     7024.807       20.274        3.993      570.266       83.739        0.022      334.282        4.149      852.192
02/27/2014  04:18:00     -499.080     -123.735      -13.898      185.903      124.078       76.127    34559.814    15395.335     5795.312       16.016        2.788      514.189       82.366        0.026      334.287        4.157      852.219
02/27/2014  04:19:00     -427.977      -58.327      -15.096      173.476      123.008       84.548    30094.063    15130.937     7148.371       11.957        2.619      431.934       81.121        0.035      334.308        4.191      852.260
02/27/2014  04:20:00     -320.870      -36.902       -8.172      172.617      122.419       68.190    29796.645    14986.391     4649.911        7.690        2.472      322.985       76.978        0.057      334.308        4.191      852.301
02/27/2014  04:21:00     -257.927      -66.329      -10.972      114.781       86.524       53.791    13174.704     7486.444     2893.425        4.730        1.178      266.319       53.820        0.041      334.296        4.171      852.305
02/27/2014  04:22:00     -325.837      -28.538       -4.521      113.074      114.048       61.273    12785.773    13007.024     3754.401        6.827        1.477      327.084       57.960        0.031      334.264        4.118      852.297
02/27/2014  04:23:00     -234.137      -54.138       -6.519      140.896      112.936       61.719    19851.600    12754.562     3809.216        4.710        1.821      240.314       72.646        0.091      334.267        4.125      852.271
02/27/2014  04:24:00     -263.726      -61.992       -5.056      101.028       70.922       53.802    10206.633     5029.987     2894.704        4.577        0.907      270.914       53.414        0.039      334.229        4.060      852.199
02/27/2014  04:25:00     -287.771      -19.622      -10.464      114.454       80.490       57.311    13099.736     6478.686     3284.607        5.308        1.143      288.439       62.487        0.047      334.200        4.011      852.143
02/27/2014  04:26:00     -260.085      -99.500      -17.009       75.444       52.713       41.310     5691.817     2778.618     1706.504        4.400        0.509      278.468       35.018        0.016      334.185        3.987      852.103
02/27/2014  04:27:00     -267.657      -81.912      -16.140       78.448      103.280       52.056     6154.096    10666.833     2709.861        4.907        0.977      279.911       49.263        0.031      334.185        3.987      852.110
02/27/2014  04:28:00     -249.180      -50.556      -19.435       76.748       75.820       48.375     5890.320     5748.622     2340.143        3.950        0.699      254.257       38.179        0.023      334.186        3.987      852.081
02/27/2014  04:29:00     -282.495       37.456      -31.780       94.738       49.325       31.379     8975.366     2432.995      984.673        4.730        0.620      284.968       32.047        0.013      334.162        3.948      852.023
02/27/2014  04:30:00     -144.016      -50.866      -11.302       48.082       57.374       31.773     2311.842     3291.811     1009.522        1.503        0.331      152.735       23.575        0.024      334.207        4.026      852.015
02/27/2014  04:31:00      -37.343      -18.808       15.048       51.246       53.187       30.053     2626.130     2828.868      903.153        0.417        0.318       41.812       20.602        0.243      334.270        4.132      852.025
02/27/2014  04:32:00      -95.559      -44.862        4.941       74.152       58.977       34.253     5498.491     3478.287     1173.240        1.066        0.508      105.565       29.506        0.078      334.235        4.074      852.050
02/27/2014  04:33:00     -168.821      -52.435       -0.202       74.014       38.728       32.379     5478.099     1499.844     1048.381        1.964        0.401      176.776       34.567        0.038      334.181        3.982      852.055
02/27/2014  04:34:00     -148.187      -28.852      -16.993       40.248       40.596       24.751     1619.892     1648.015      612.606        1.348        0.194      150.970       13.383        0.008      334.178        3.978      852.017
02/27/2014  04:35:00     -164.455       14.753      -22.511       46.944       48.287       19.224     2203.696     2331.592      369.571        1.634        0.245      165.115       15.240        0.009      334.144        3.923      851.996
02/27/2014  04:36:00     -113.936       15.180       -4.716       64.121       54.205       40.041     4111.487     2938.140     1603.313        1.094        0.433      114.942       32.661        0.081      334.259        4.114      851.997
02/27/2014  04:37:00      -70.877        3.226        2.034       67.265       47.577       35.207     4524.521     2263.542     1239.503        0.653        0.401       70.950       31.450        0.196      334.244        4.087      852.005
02/27/2014  04:38:00      -98.401      -19.314        0.235       70.733       65.769       50.535     5003.120     4325.551     2553.738        1.097        0.594      100.279       47.233        0.222      334.268        4.127      852.010
02/27/2014  04:39:00     -166.978      -51.536      -20.834       64.585       51.391       30.306     4171.209     2641.022      918.463        1.935        0.387      174.750       27.085        0.024      334.289        4.161      852.000
02/27/2014  04:40:00     -182.223      -76.988      -13.809       67.645       64.599       39.455     4575.851     4173.065     1556.721        2.481        0.515      197.819       23.898        0.015      334.332        4.231      851.999
02/27/2014  04:41:00     -193.923      -69.991       -5.390       81.467       62.349       39.042     6636.886     3887.378     1524.316        2.729        0.602      206.168       38.130        0.034      334.314        4.201      851.958
02/27/2014  04:42:00     -210.615      -34.099      -14.734       88.002       78.558       45.070     7744.381     6171.310     2031.321        3.084        0.797      213.358       36.179        0.029      334.466        4.454      851.954
02/27/2014  04:43:00     -285.785      -85.028      -14.205      105.494      100.006       50.144    11129.081    10001.115     2514.404        5.637        1.182      298.166       34.999        0.014      334.376        4.305      852.020
02/27/2014  04:44:00     -314.716      -62.662      -33.451      107.635       63.231       44.455    11585.262     3998.168     1976.216        6.082        0.878      320.894       44.706        0.019      334.431        4.396      852.041
02/27/2014  04:45:00     -246.187       61.616      -29.229       89.155       67.697       43.728     7948.636     4582.823     1912.139        3.985        0.722      253.780       32.943        0.017      334.518        4.539      851.978
02/27/2014  04:46:00     -157.204        8.175       -5.891       73.177       96.102       48.050     5354.868     9235.547     2308.839        2.085        0.845      157.417       38.177        0.059      334.556        4.604      851.931
02/27/2014  04:47:00     -175.031      -48.634      -39.687       95.777       77.704       40.955     9173.173     6037.855     1677.285        2.573        0.844      181.662       36.357        0.040      334.606        4.687      851.972
02/27/2014  04:48:00     -177.123      -68.216      -27.660       83.722       84.012       40.648     7009.438     7058.085     1652.258        2.625        0.786      189.805       26.734        0.020      334.514        4.534      852.004
02/27/2014  04:49:00     -203.283      -46.228       -2.297      131.764       80.845       45.101    17361.718     6535.929     2034.119        3.469        1.297      208.473       53.344        0.065      334.421        4.380      852.034
02/27/2014  04:50:00     -199.365      -47.032      -15.507       57.447       68.580       34.409     3300.169     4703.163     1183.975        2.569        0.459      204.837       22.989        0.013      334.415        4.370      852.066
02/27/2014  04:51:00     -175.079      -52.845       -8.746       98.441       87.825       42.311     9690.695     7713.269     1790.186        2.635        0.960      182.880       39.727        0.047      334.447        4.426      852.081
02/27/2014  04:52:00       -7.569      -13.206       -0.319       46.108       32.462       30.462     2125.932     1053.786      927.958        0.217        0.205       15.222       26.211        2.965      334.563        4.620      852.036
02/27/2014  04:53:00     -116.518      -30.297      -12.527       27.901       36.032       20.565      778.470     1298.290      422.899        0.857        0.125      120.392        7.993        0.004      334.547        4.591      852.032
02/27/2014  04:54:00     -140.854      -96.891        2.328      106.256       86.545       44.933    11290.330     7490.039     2018.943        2.501        1.040      170.961       38.470        0.051      334.593        4.665      852.080
02/27/2014  04:55:00     -180.413     -168.022        9.034       98.428       61.663       53.843     9688.035     3802.382     2899.100        3.862        0.819      246.537       57.914        0.055      334.668        4.788      852.180
02/27/2014  04:56:00      -76.131     -120.535       10.157      110.760       59.206       37.319    12267.785     3505.399     1392.715        1.879        0.858      142.565       41.715        0.086      334.671        4.797      852.177
02/27/2014  04:57:00       15.460      -41.765       21.331       46.077       58.702       25.081     2123.116     3445.909      629.048        0.432        0.310       44.535       21.903        0.242      334.704        4.853      852.112
02/27/2014  04:58:00       -9.201       38.050       11.387       31.872       36.139       18.713     1015.796     1306.058      350.158        0.217        0.134       39.146       16.989        0.188      334.816        5.039      852.051
02/27/2014  04:59:00       13.889       16.853       -0.298       39.979       60.030       21.450     1598.311     3603.658      460.086        0.307        0.283       21.839       22.222        1.035      334.774        4.970      852.016
02/27/2014  05:00:00      -89.459      -66.807        4.559       52.699       38.245       26.384     2777.165     1462.694      696.125        0.871        0.247      111.652       18.021        0.026      334.829        5.058      852.085
02/27/2014  05:01:00     -114.705      -94.169       -1.304       50.200       53.125       29.696     2520.015     2822.264      881.860        1.412        0.311      148.408       19.945        0.018      334.709        4.861      852.151
02/27/2014  05:02:00     -115.075      -69.238       -1.133       39.920       55.167       20.030     1593.632     3043.368      401.216        1.154        0.252      134.299       17.238        0.016      334.685        4.819      852.181
02/27/2014  05:03:00       61.272       63.058       26.542       99.855       64.224       42.480     9970.944     4124.702     1804.524        1.216        0.795       87.923       25.720        0.086      334.713        4.865      852.111
02/27/2014  05:04:00       29.036       47.825       34.828      110.402       85.495       50.601    12188.559     7309.353     2560.484        1.320        1.103       55.950       33.270        0.354      335.027        5.389      852.009
02/27/2014  05:05:00        2.280      -58.565      -34.216       57.679       47.980       27.679     3326.812     2302.050      766.114        0.550        0.320       58.609       23.057        0.155      335.165        5.617      852.043
02/27/2014  05:06:00      -60.966     -128.084        0.889       39.591       44.326       28.875     1567.433     1964.797      833.758        1.224        0.218      141.853       23.578        0.028      335.079        5.477      852.070
02/27/2014  05:07:00      -50.730     -174.267       19.683       42.903       71.673       31.873     1840.683     5136.995     1015.865        2.066        0.400      181.500       26.431        0.021      335.286        5.815      852.054
02/27/2014  05:08:00     -187.661      -80.983       -0.827       72.088       51.994       33.311     5196.738     2703.405     1109.610        2.539        0.450      204.389       41.575        0.041      335.320        5.871      852.074
02/27/2014  05:09:00      -67.282       11.722       22.100       64.599       37.698       28.863     4173.042     1421.147      833.070        0.579        0.321       68.295       31.813        0.217      335.276        5.800      852.102
02/27/2014  05:10:00      -57.760      -78.639       11.069       67.581       68.526       32.142     4567.199     4695.811     1033.108        0.997        0.515       97.572       36.339        0.139      335.250        5.759      852.145
02/27/2014  05:11:00      -54.701      -35.262       -0.056       24.383       46.552       15.556      594.514     2167.130      242.004        0.362        0.150       65.082       16.109        0.061      335.207        5.686      852.191
02/27/2014  05:12:00      -53.111      -34.790        3.708       47.118       41.200       21.276     2220.074     1697.460      452.652        0.421        0.219       63.491       23.000        0.131      335.211        5.694      852.265
02/27/2014  05:13:00      -58.417      -16.309        0.384       47.336       32.907       18.317     2240.680     1082.896      335.494        0.367        0.183       60.651       16.511        0.074      334.979        5.308      852.337
02/27/2014  05:14:00       -0.398     -103.235        3.704       28.255       52.657       23.892      798.333     2772.766      570.827        0.741        0.207      103.236       20.607        0.040      335.095        5.503      852.362
02/27/2014  05:15:00      -99.733       10.189       -2.003       61.301      124.166       33.420     3757.812    15417.178     1116.910        1.517        1.015      100.252       39.091        0.152      335.134        5.564      852.330
02/27/2014  05:16:00     -154.765       23.934      -25.573       59.293       59.988       21.644     3515.696     3598.602      468.462        1.638        0.379      156.605       22.855        0.021      335.071        5.462      852.350
02/27/2014  05:17:00      -67.754     -119.504        1.875      101.656       71.104       55.219    10333.868     5055.788     3049.189        1.865        0.922      137.375       45.193        0.108      335.106        5.519      852.330
02/27/2014  05:18:00     -113.015      -42.176       -4.282       82.471      109.417       46.299     6801.498    11972.011     2143.558        1.774        1.046      120.628       40.376        0.112      335.178        5.639      852.296
02/27/2014  05:19:00     -171.701       -5.975      -18.409       67.175       63.308       38.552     4512.539     4007.944     1486.277        1.993        0.500      171.805       32.667        0.036      335.062        5.447      852.308
02/27/2014  05:20:00     -189.696       82.182      -21.163       69.923       88.587       47.699     4889.226     7847.590     2275.206        2.910        0.751      206.732       34.290        0.028      334.996        5.334      852.304
02/27/2014  05:21:00     -226.697       67.376      -18.314       85.533       52.500       35.169     7315.809     2756.250     1236.864        3.379        0.565      236.497       33.258        0.020      334.961        5.277      852.278
02/27/2014  05:22:00     -141.065       99.257      -29.250       58.925       83.894       37.966     3472.167     7038.185     1441.449        2.128        0.598      172.485       43.569        0.064      335.006        5.353      852.260
02/27/2014  05:23:00     -166.259      139.421      -19.026       97.175       72.458       47.247     9443.000     5250.189     2232.317        3.218        0.846      216.980       50.556        0.054      335.021        5.375      852.244
02/27/2014  05:24:00     -106.198       64.484      -13.098       73.382       83.865       46.633     5384.922     7033.265     2174.606        1.510        0.730      124.243       27.153        0.048      335.053        5.433      852.269
02/27/2014  05:25:00     -155.427      109.260      -34.013       59.968       54.825       30.492     3596.176     3005.782      929.772        2.239        0.377      189.988       29.616        0.024      335.019        5.373      852.313
02/27/2014  05:26:00     -259.759      136.572      -26.765      126.750      121.949       72.607    16065.497    14871.568     5271.770        6.152        1.810      293.473       62.256        0.045      335.104        5.515      852.296
02/27/2014  05:27:00     -342.911      -82.094      -26.329       84.913      101.399       49.766     7210.288    10281.839     2476.632        7.249        0.998      352.601       36.048        0.010      335.008        5.353      852.331
02/27/2014  05:28:00     -282.719      -76.539      -45.630      112.102       91.807       62.584    12566.846     8428.490     3916.755        5.639        1.246      292.896       53.393        0.033      334.989        5.324      852.324
02/27/2014  05:29:00     -235.915      -60.362      -18.601      119.124       87.066       45.962    14190.432     7580.402     2112.495        4.176        1.194      243.515       48.527        0.040      334.966        5.286      852.266
02/27/2014  05:30:00     -179.122       62.363      -20.524       88.676      112.599       53.755     7863.427    12678.566     2889.651        2.991        1.172      189.668       56.054        0.087      334.938        5.238      852.241
02/27/2014  05:31:00     -218.272       86.747      -25.799       73.682       71.722       46.777     5429.066     5144.053     2188.090        3.429        0.638      234.878       42.137        0.032      334.955        5.267      852.233
02/27/2014  05:32:00     -126.129       13.987        2.623       61.812       82.441       43.700     3820.729     6796.483     1909.732        1.432        0.626      126.902       34.680        0.075      334.965        5.286      852.194
02/27/2014  05:33:00     -140.177       12.893       -4.656       54.492       62.934       47.960     2969.423     3960.745     2300.195        1.453        0.462      140.769       16.728        0.014      335.061        5.446      852.184
02/27/2014  05:34:00     -198.111      -84.876      -14.092      127.765       91.631       51.858    16323.814     8396.244     2689.201        3.702        1.370      215.527       45.410        0.044      335.241        5.743      852.236
02/27/2014  05:35:00     -163.321      -52.054        4.122       80.888       69.894       39.932     6542.839     4885.108     1594.551        2.121        0.651      171.416       36.941        0.046      335.075        5.467      852.335
02/27/2014  05:36:00     -100.569      -55.467        6.112       80.524       50.521       39.165     6484.141     2552.378     1533.888        1.190        0.529      114.850       35.592        0.096      335.011        5.362      852.357
02/27/2014  05:37:00      -55.923       50.996       -3.690       92.298      108.031       53.768     8518.943    11670.688     2890.981        1.441        1.154       75.684       48.299        0.407      334.997        5.338      852.375
02/27/2014  05:38:00      -78.080      -19.753       -5.319       87.250       75.183       36.640     7612.553     5652.514     1342.520        1.056        0.730       80.540       28.892        0.129      334.998        5.340      852.378
02/27/2014  05:39:00      -54.946      -58.578        7.627       66.291       47.099       37.275     4394.539     2218.358     1389.445        0.725        0.400       80.315       35.433        0.195      334.965        5.286      852.439
02/27/2014  05:40:00      -34.799      -52.466       -2.302       53.425       37.302       31.085     2854.181     1391.474      966.277        0.459        0.261       62.957       22.832        0.132      334.997        5.338      852.469
02/27/2014  05:41:00      -46.903       15.669       -4.769       20.804       32.608       19.951      432.790     1063.311      398.054        0.218        0.095       49.451       14.683        0.088      334.922        5.214      852.464
02/27/2014  05:42:00     -119.260      -50.042       11.315       88.756       63.467       40.471     7877.587     4028.062     1637.909        1.520        0.677      129.333       45.228        0.122      334.896        5.169      852.449
02/27/2014  05:43:00      -25.786      -34.592        9.057       41.059       52.207       32.717     1685.803     2725.623     1070.422        0.371        0.274       43.145       30.273        0.492      334.973        5.298      852.458
02/27/2014  05:44:00       -1.555       -1.079       12.243       25.155       33.376       19.978      632.787     1113.956      399.117        0.115        0.107        1.893       18.188       92.352      335.022        5.381      852.475
02/27/2014  05:45:00      -23.880        2.205       13.294       15.590       28.122       13.047      243.045      790.868      170.222        0.098        0.060       23.982       12.344        0.265      334.952        5.264      852.485
02/27/2014  05:46:00      -59.418      -10.152       18.662       43.724       39.336       29.072     1911.774     1547.326      845.176        0.414        0.215       60.279       31.812        0.279      334.946        5.255      852.484
02/27/2014  05:47:00      -51.698      -20.798       16.171       56.455       41.291       28.585     3187.141     1704.917      817.075        0.454        0.285       55.725       30.283        0.295      334.921        5.213      852.507
02/27/2014  05:48:00     -148.683     -100.061        4.177       75.594       54.259       36.251     5714.387     2944.092     1314.166        2.105        0.499      179.217       35.297        0.039      334.804        5.016      852.584
02/27/2014  05:49:00     -198.014     -131.772        9.861      129.273       73.406       50.683    16711.515     5388.494     2568.775        4.066        1.233      237.852       53.372        0.050      334.821        5.044      852.660
02/27/2014  05:50:00     -167.719     -126.541        0.079       81.812       76.632       45.032     6693.275     5872.404     2027.854        2.937        0.730      210.101       38.650        0.034      334.861        5.111      852.701
02/27/2014  05:51:00      -13.490     -151.745       10.455       63.493       45.817       33.446     4031.377     2099.174     1118.606        1.528        0.362      152.343       37.859        0.062      334.784        4.985      852.723
02/27/2014  05:52:00     -100.963     -103.097      -11.758       56.821       29.775       15.876     3228.640      886.580      252.058        1.266        0.218      144.300       15.173        0.011      334.794        5.000      852.723
02/27/2014  05:53:00      -79.915      -61.517       -2.997       54.529       35.422       15.795     2973.418     1254.686      249.467        0.733        0.224      100.850       19.362        0.037      334.745        4.922      852.671
02/27/2014  05:54:00       52.945       26.720       30.615       58.980       49.028       27.958     3478.608     2403.728      781.662        0.556        0.333       59.306       21.661        0.133      334.829        5.059      852.606
02/27/2014  05:55:00       63.165       76.735       40.437       36.429       24.882       32.109     1327.057      619.136     1031.000        0.724        0.149       99.389       28.188        0.080      334.803        5.017      852.575
02/27/2014  05:56:00       19.135       63.084       48.959       32.052       30.667       23.862     1027.300      940.480      569.375        0.464        0.127       65.922       10.352        0.025      334.798        5.009      852.586
02/27/2014  05:57:00        7.662       44.524        9.289       29.629       32.059       14.955      877.902     1027.758      223.650        0.213        0.106       45.178       11.084        0.060      334.688        4.827      852.595
02/27/2014  05:58:00     -100.398        8.347      -11.830       37.683       36.994       16.333     1420.014     1368.584      266.770        0.667        0.153      100.744       14.952        0.022      334.709        4.860      852.650
02/27/2014  05:59:00      -73.127      -56.239        0.301       36.777       18.698       16.841     1352.580      349.605      283.610        0.525        0.099       92.252       13.511        0.021      334.727        4.890      852.695
02/27/2014  06:00:00        8.749      -57.784       48.102       41.846       60.559       47.711     1751.119     3667.413     2276.364        0.671        0.385       58.443       34.115        0.341      334.865        5.120      852.670
02/27/2014  06:01:00      -92.659      -78.874        8.520      125.433       96.808       77.600    15733.473     9371.855     6021.823        2.300        1.556      121.684       63.645        0.274      334.853        5.098      852.684
02/27/2014  06:02:00     -181.640     -102.297      -12.242       52.031       59.704       36.763     2707.207     3564.582     1351.532        2.561        0.381      208.465       24.943        0.014      334.705        4.849      852.735
02/27/2014  06:03:00     -127.933      -73.529        2.714       91.309       63.813       36.498     8337.304     4072.113     1332.098        1.776        0.687      147.558       49.869        0.114      334.683        4.815      852.735
02/27/2014  06:04:00     -125.083     -130.149       -8.586       57.086       54.552       29.465     3258.840     2975.927      868.160        1.988        0.355      180.512       24.920        0.019      334.623        4.716      852.715
02/27/2014  06:05:00      -54.690      -30.448       13.224       49.045       23.565       17.452     2405.403      555.300      304.582        0.368        0.163       62.594       21.239        0.115      334.749        4.927      852.668
02/27/2014  06:06:00     -104.703      -15.183       -2.885       61.023       45.893       21.485     3723.860     2106.201      461.620        0.875        0.315      105.798       15.188        0.021      334.713        4.865      852.679
02/27/2014  06:07:00     -237.494      -95.031       -5.048       68.485       52.209       34.407     4690.175     2725.821     1183.812        3.703        0.430      255.801       34.435        0.018      334.728        4.888      852.724
02/27/2014  06:08:00     -242.009     -102.757      -17.501      113.305       67.793       55.453    12838.129     4595.919     3075.032        4.497        1.025      262.920       52.899        0.040      334.658        4.773      852.729
02/27/2014  06:09:00     -279.617      -97.273      -16.056       90.514       80.975       47.149     8192.761     6557.018     2223.010        5.244        0.849      296.054       45.195        0.023      334.634        4.731      852.738
02/27/2014  06:10:00     -162.960        2.890        7.848      100.347       83.882       49.223    10069.569     7036.198     2422.900        2.307        0.976      162.985       35.130        0.046      334.711        4.862      852.740
02/27/2014  06:11:00     -238.616      -31.315       -7.671      105.399       74.776       39.753    11108.870     5591.398     1580.278        3.813        0.914      240.662       40.339        0.028      334.728        4.888      852.770
02/27/2014  06:12:00     -308.786      -32.822      -25.125       96.127       73.154       42.262     9240.338     5351.569     1786.063        5.671        0.819      310.525       42.318        0.019      334.816        5.036      852.806
02/27/2014  06:13:00     -229.294      -30.490       -2.595       83.694       77.185       42.352     7004.712     5957.562     1793.702        3.413        0.738      231.312       47.007        0.041      334.884        5.148      852.822
02/27/2014  06:14:00      -73.715      -57.692       13.792       63.143       88.291       35.719     3987.020     7795.227     1275.840        1.100        0.653       93.607       36.685        0.154      334.883        5.149      852.818
02/27/2014  06:15:00      -36.498      -84.054        5.085       40.268       84.943       26.987     1621.477     7215.321      728.304        0.899        0.478       91.636       12.290        0.018      334.936        5.237      852.734
02/27/2014  06:16:00       -6.788       43.680       66.602       46.120       61.444       49.187     2127.061     3775.309     2419.344        0.735        0.416       44.204       37.233        0.709      335.037        5.406      852.596
02/27/2014  06:17:00     -161.999      -24.968       -5.526      121.190       77.266       30.695    14687.027     5969.973      942.179        2.424        1.080      163.912       40.916        0.062      335.153        5.594      852.628
02/27/2014  06:18:00     -282.892      -89.657      -14.257       91.760       71.027       39.937     8419.912     5044.836     1594.994        5.166        0.753      296.759       32.777        0.012      334.856        5.100      852.777
02/27/2014  06:19:00     -245.076     -108.781      -13.677      124.810       72.540       43.730    15577.470     5262.047     1912.283        4.741        1.138      268.133       45.209        0.028      334.831        5.060      852.811
02/27/2014  06:20:00     -220.349      -69.143       -8.074      100.187       82.646       47.817    10037.521     6830.360     2286.486        3.627        0.958      230.943       49.854        0.047      334.869        5.124      852.768
02/27/2014  06:21:00     -313.956     -165.370      -15.052      107.782       79.145       58.855    11616.863     6263.989     3463.895        7.374        1.067      354.846       51.817        0.021      334.823        5.047      852.723
02/27/2014  06:22:00     -160.721     -241.918       12.949      126.962      142.649       69.154    16119.366    20348.794     4782.290        6.288        2.063      290.440       69.095        0.057      334.963        5.280      852.699
02/27/2014  06:23:00      -98.010     -201.280       -6.272      141.227      140.159       48.870    19945.171    19644.584     2388.287        4.606        2.099      223.874       69.667        0.097      335.364        5.947      852.702
02/27/2014  06:24:00      -53.723     -153.117       -6.045       64.707       42.799       29.982     4187.036     1831.751      898.942        1.664        0.346      162.269       29.587        0.033      335.194        5.665      852.593
02/27/2014  06:25:00      -87.112     -108.678       -1.402       68.069       62.247       37.867     4633.455     3874.731     1433.907        1.467        0.497      139.281       34.310        0.061      335.265        5.782      852.547
02/27/2014  06:26:00     -102.389     -129.160       -8.999       43.090       72.651       30.569     1856.740     5278.188      934.444        1.766        0.403      164.820       22.163        0.018      335.198        5.670      852.531
02/27/2014  06:27:00     -170.274     -177.829        1.751      106.127       81.072       50.436    11263.006     6572.635     2543.756        4.050        1.019      246.204       52.013        0.045      335.115        5.531      852.561
02/27/2014  06:28:00     -121.430     -170.546       -2.609       85.191       93.196       40.735     7257.528     8685.437     1659.311        3.072        0.880      209.359       30.833        0.022      335.076        5.470      852.616
02/27/2014  06:29:00      -70.580     -127.043       14.080       69.748       54.759       38.091     4864.751     2998.580     1450.920        1.532        0.466      145.333       36.762        0.064      335.169        5.624      852.612
02/27/2014  06:30:00     -165.162     -155.007       -2.313       97.746       89.266       42.471     9554.263     7968.484     1803.827        3.531        0.966      226.508       47.184        0.043      335.147        5.586      852.701
02/27/2014  06:31:00     -214.116     -147.133       -6.465      136.637       98.389       60.099    18669.713     9680.383     3611.934        4.974        1.598      259.796       60.666        0.055      335.092        5.495      852.710
02/27/2014  06:32:00     -159.271      -97.481      -14.936       89.384       93.266       44.940     7989.524     8698.456     2019.636        2.690        0.935      186.734       38.167        0.042      335.039        5.408      852.710
02/27/2014  06:33:00     -142.329     -102.291       18.002      114.119       92.924       63.539    13023.248     8634.912     4037.176        2.837        1.285      175.274       66.091        0.142      335.057        5.437      852.713
02/27/2014  06:34:00     -191.622      -97.232       -0.403      108.771       77.177       33.957    11831.104     5956.354     1153.054        3.255        0.947      214.879       35.089        0.027      335.078        5.473      852.765
02/27/2014  06:35:00     -209.887     -137.834        0.468       99.074       76.654       43.773     9815.560     5875.774     1916.101        4.033        0.880      251.099       40.036        0.025      335.088        5.488      852.789
02/27/2014  06:36:00     -382.883      -48.743      -21.300      146.348      113.002       63.367    21417.674    12769.448     4015.430        9.381        1.910      385.973       64.607        0.028      335.142        5.579      852.774
02/27/2014  06:37:00     -289.473      -66.004       -0.037      127.728      104.951       67.851    16314.403    11014.784     4603.787        6.004        1.597      296.902       69.625        0.055      335.133        5.563      852.795
02/27/2014  06:38:00     -202.844     -191.281        8.461      111.245      162.258       69.094    12375.525    26327.750     4773.982        6.063        2.174      278.808       82.059        0.087      335.168        5.621      852.819
02/27/2014  06:39:00     -137.255     -306.822       -1.060      121.050      131.843       67.318    14653.209    17382.597     4531.706        7.477        1.828      336.123       61.271        0.033      335.237        5.734      852.824
02/27/2014  06:40:00     -281.803     -130.343       -0.956      146.253      126.300       66.859    21389.804    15951.611     4470.093        6.910        2.091      310.487       68.761        0.049      335.176        5.633      852.861
02/27/2014  06:41:00     -290.502      -84.732        0.397      110.333       87.506       55.067    12173.421     7657.247     3032.382        5.721        1.143      302.607       38.086        0.016      335.046        5.419      852.866
02/27/2014  06:42:00     -115.069      -41.399       -1.960       89.908       56.734       37.857     8083.379     3218.691     1433.140        1.384        0.637      122.290       25.605        0.044      334.995        5.334      852.803
02/27/2014  06:43:00     -293.921     -172.448      -34.195      192.426      128.575       68.147    37027.832    16531.455     4643.994        8.774        2.910      340.775       80.440        0.056      334.888        5.155      852.802
02/27/2014  06:44:00     -248.089     -140.541        7.405      155.156      113.144       72.681    24073.290    12801.539     5282.533        6.175        2.108      285.131       80.024        0.079      334.827        5.052      852.765
02/27/2014  06:45:00     -140.473      -12.956        1.060      127.016       96.034       47.948    16133.188     9222.600     2298.992        2.377        1.383      141.069       55.449        0.154      334.832        5.064      852.731
02/27/2014  06:46:00     -143.511        7.173       13.411       97.870       90.514       42.550     9578.443     8192.789     1810.462        2.020        0.979      143.690       42.893        0.089      334.769        4.958      852.704
02/27/2014  06:47:00      -25.029      -79.269       35.557      116.875       56.086       59.950    13659.659     3145.685     3593.966        1.428        1.020       83.127       65.434        0.620      334.795        5.001      852.739
02/27/2014  06:48:00      -87.590      -41.654        5.814       94.413       75.499       50.653     8913.898     5700.162     2565.728        1.331        0.859       96.990       48.557        0.251      334.794        5.001      852.785
02/27/2014  06:49:00      -86.675     -206.511        1.862       59.813       80.128       46.481     3577.630     6420.493     2160.526        3.116        0.608      223.963       36.738        0.027      334.845        5.084      852.830
02/27/2014  06:50:00     -173.698      -83.002        6.149      134.593       68.407       54.436    18115.295     4679.458     2963.312        3.142        1.288      192.511       62.852        0.107      334.824        5.047      852.856
02/27/2014  06:51:00     -233.310     -100.168       -3.783       98.797      105.270       48.922     9760.863    11081.687     2393.324        4.385        1.162      253.903       43.902        0.030      334.816        5.033      852.881
02/27/2014  06:52:00      -97.517      -72.605        1.234       67.794       68.184       40.990     4596.038     4649.040     1680.221        1.285        0.546      121.578       42.204        0.121      334.799        5.009      852.870
02/27/2014  06:53:00     -117.379      -56.929       -5.246       55.870       54.005       30.711     3121.449     2916.513      943.143        1.201        0.349      130.456       28.265        0.047      334.805        5.017      852.871
02/27/2014  06:54:00     -182.022      -99.332        0.458       75.325       74.378       40.807     5673.857     5532.014     1665.215        2.793        0.644      207.362       36.717        0.031      334.781        4.978      852.956
02/27/2014  06:55:00     -258.473      -78.291       -7.959       85.808       71.958       45.876     7362.998     5177.950     2104.595        4.382        0.732      270.070       44.292        0.027      334.742        4.912      853.038
02/27/2014  06:56:00      -98.024      -54.735       10.909       93.456       44.752       34.802     8733.937     2002.785     1211.206        1.233        0.597      112.271       35.681        0.101      334.788        4.991      853.036
02/27/2014  06:57:00      -43.933       -1.321       -2.608       49.012       33.762       27.856     2402.137     1139.856      775.958        0.313        0.216       43.953       26.450        0.362      334.850        5.096      852.932
02/27/2014  06:58:00       12.406       16.443       44.785       47.100       50.901       45.991     2218.427     2590.914     2115.163        0.468        0.346       20.598       31.041        2.271      334.927        5.221      852.858
02/27/2014  06:59:00       32.720      -71.006       21.773       47.590       93.500       68.392     2264.788     8742.265     4677.515        1.113        0.784       78.183       74.943        0.919      335.074        5.468      852.932
02/27/2014  07:00:00        1.328      -61.118       22.523       76.289       52.583       36.122     5820.018     2764.974     1304.795        0.707        0.494       61.132       28.723        0.221      335.118        5.540      853.095
02/27/2014  07:01:00     -153.672     -105.987        3.684       84.014       54.905       39.247     7058.274     3014.537     1540.298        2.324        0.581      186.677       31.798        0.029      334.962        5.280      853.177
02/27/2014  07:02:00     -120.751      -82.357       -1.923       48.953       47.922       33.603     2396.375     2296.559     1129.172        1.359        0.291      146.162       28.054        0.037      334.891        5.163      853.168
02/27/2014  07:03:00     -116.600     -117.657       -2.029       69.506       58.318       46.693     4831.074     3401.042     2180.247        1.893        0.521      165.646       43.633        0.069      334.885        5.152      853.157
02/27/2014  07:04:00     -120.706     -231.685       -6.761       53.785       68.344       39.366     2892.837     4670.938     1549.680        3.870        0.456      261.243       30.655        0.014      334.867        5.119      853.168
02/27/2014  07:05:00      -69.564     -151.485      -15.605       96.108       78.282       35.340     9236.788     6128.118     1248.946        2.232        0.831      166.694       25.308        0.023      335.020        5.376      853.148
02/27/2014  07:06:00      -41.532      -40.765       -5.693       33.528       45.160       27.958     1124.154     2039.445      781.630        0.368        0.197       58.195       13.960        0.058      335.018        5.373      853.102
02/27/2014  07:07:00      -18.563       -2.096        5.197       40.715       23.862       19.072     1657.730      569.389      363.729        0.148        0.130       18.681       12.916        0.478      335.051        5.429      853.084
02/27/2014  07:08:00      -34.760      -34.828        2.722       35.894       27.055       23.350     1288.362      731.994      545.217        0.250        0.128       49.207       19.909        0.164      335.070        5.461      853.082
02/27/2014  07:09:00      -69.663      -54.493       -4.957       40.418       49.553       31.275     1633.577     2455.507      978.108        0.646        0.253       88.445       14.164        0.026      335.113        5.531      853.070
02/27/2014  07:10:00      -23.870       -8.776       27.571       26.139       56.730       24.237      683.221     3218.261      587.409        0.295        0.224       25.432       13.870        0.297      335.169        5.623      853.055
02/27/2014  07:11:00      -21.990        0.598       22.900       19.533       26.350       20.177      381.533      694.307      407.098        0.125        0.074       21.998       13.250        0.363      335.074        5.468      853.019
02/27/2014  07:12:00       31.670     -109.234      -22.124       77.536       54.230       27.763     6011.811     2940.846      770.805        1.157        0.486      113.732       22.247        0.038      335.120        5.544      853.023
02/27/2014  07:13:00      -11.988       11.345       22.134       37.885       32.421       22.560     1435.304     1051.146      508.937        0.188        0.150       16.505       15.481        0.880      335.086        5.487      853.022
02/27/2014  07:14:00       88.762       66.884       41.858       40.513       30.192       30.621     1641.287      911.566      937.643        0.880        0.175      111.140       21.848        0.039      335.024        5.384      852.958
02/27/2014  07:15:00        1.697       24.313       23.915       45.033       26.040       29.160     2027.949      678.071      850.281        0.236        0.178       24.372       28.872        1.403      335.029        5.393      852.964
02/27/2014  07:16:00      -67.536       37.300       -9.889       38.678       37.505       26.302     1496.016     1406.627      691.806        0.482        0.180       77.152       16.038        0.043      335.004        5.351      853.044
02/27/2014  07:17:00      -91.706      -38.287        0.238       63.214       38.947       21.259     3995.975     1516.873      451.941        0.792        0.298       99.377       27.083        0.074      335.015        5.368      853.066
02/27/2014  07:18:00      -48.490      -75.399       -4.567       46.303       35.692       27.162     2143.991     1273.928      737.773        0.611        0.208       89.645       26.954        0.090      335.061        5.445      853.059
02/27/2014  07:19:00      -35.007      -51.603       -1.374       24.858       16.179       14.020      617.932      261.748      196.556        0.248        0.054       62.357        8.202        0.017      335.086        5.486      853.006
02/27/2014  07:20:00      -34.723      -36.264        3.787       24.742       21.775       17.582      612.173      474.134      309.137        0.197        0.070       50.207       14.087        0.079      335.136        5.570      852.983
02/27/2014  07:21:00      -71.610      -56.706        3.630       60.835       33.551       16.080     3700.882     1125.655      258.563        0.672        0.254       91.343       12.493        0.019      335.052        5.432      852.976
02/27/2014  07:22:00      -91.093      -75.131        5.344       48.778       47.701       28.962     2379.338     2275.371      838.811        0.973        0.275      118.079       27.300        0.053      335.049        5.427      852.971
02/27/2014  07:23:00      -42.876      -26.692       -1.943       33.038       26.558       20.009     1091.513      705.343      400.361        0.238        0.110       50.506       15.846        0.098      335.076        5.471      852.969
02/27/2014  07:24:00      -39.431      -52.485       -8.826       25.696       26.709       23.116      660.277      713.366      534.360        0.315        0.095       65.646       19.351        0.087      335.102        5.513      852.963
02/27/2014  07:25:00      -16.439      -13.493       -4.864       47.572       47.434       30.235     2263.090     2250.006      914.176        0.295        0.271       21.267        7.403        0.121      335.236        5.737      852.935
02/27/2014  07:26:00      -10.787       19.052       38.538       22.986       24.191       29.071      528.372      585.227      845.112        0.196        0.098       21.893       12.507        0.326      335.476        6.134      852.930
02/27/2014  07:27:00        1.080      -21.148        6.604       37.202       52.698       44.041     1384.024     2777.043     1939.613        0.330        0.305       21.176       37.785        3.184      335.366        5.951      852.935
02/27/2014  07:28:00        7.871      -10.904       40.471       40.154       66.766       43.784     1612.337     4457.723     1917.012        0.490        0.399       13.449       43.633       10.527      335.488        6.155      852.925
02/27/2014  07:29:00      -22.219      -53.444       -1.813       65.337       81.146       50.352     4268.929     6584.719     2535.319        0.837        0.669       57.878       36.184        0.391      335.443        6.079      852.942
02/27/2014  07:30:00      -70.174      -45.311      -19.074       42.607       42.845       26.376     1815.362     1835.688      695.696        0.584        0.217       83.532       17.943        0.046      335.370        5.959      852.949
02/27/2014  07:31:00      -61.238     -100.585        8.311       63.398       59.709       35.902     4019.356     3565.156     1288.974        1.140        0.444      117.760       36.993        0.099      335.599        6.340      852.915
02/27/2014  07:32:00      -31.207      -30.775       -0.513       32.800       38.409       28.492     1075.825     1475.257      811.774        0.264        0.168       43.829       18.909        0.186      335.613        6.364      852.926
02/27/2014  07:33:00      -10.602      -66.580        3.566       50.834       59.482       35.546     2584.099     3538.100     1263.499        0.597        0.369       67.418       21.456        0.101      335.668        6.454      852.937
02/27/2014  07:34:00      102.571     -217.949      -31.682      181.376      121.658       59.694    32897.225    14800.592     3563.362        5.513        2.563      240.879       62.753        0.068      335.637        6.399      852.943
02/27/2014  07:35:00       -9.113     -107.825      -13.967      121.760       81.850       45.707    14825.575     6699.435     2089.172        1.775        1.181      108.210       33.081        0.093      335.613        6.363      852.938
02/27/2014  07:36:00       34.269      -92.860       -4.119       63.246       65.183       39.923     4000.051     4248.822     1593.849        0.983        0.492       98.982       13.500        0.019      335.798        6.669      852.964
02/27/2014  07:37:00     -134.400      -94.090       -1.207       57.731       57.366       33.267     3332.870     3290.909     1106.708        1.732        0.387      164.062       27.751        0.029      335.511        6.193      852.974
02/27/2014  07:38:00     -112.368      -68.342       -0.550       65.313       32.950       28.458     4265.725     1085.694      809.844        1.173        0.308      131.519       31.656        0.058      335.449        6.090      852.998
02/27/2014  07:39:00      -30.550      -36.553       15.038       49.924       43.298       36.362     2492.403     1874.688     1322.229        0.409        0.284       47.638       32.285        0.459      335.642        6.410      853.030
02/27/2014  07:40:00     -169.666     -190.700       -6.760       94.033       94.808       50.794     8842.189     8988.643     2580.043        4.280        1.021      255.251       44.058        0.030      335.455        6.097      853.059
02/27/2014  07:41:00      -67.720      -49.067       18.002       76.516       66.503       31.516     5854.736     4422.677      993.282        0.929        0.564       83.627       28.584        0.117      335.643        6.412      853.037
02/27/2014  07:42:00      -39.872      -94.716       -1.150       69.417       56.445       46.669     4818.704     3186.084     2178.042        1.037        0.509      102.766       22.559        0.048      335.717        6.537      853.031
02/27/2014  07:43:00       33.630     -138.823       -7.874       90.197       75.686       43.705     8135.589     5728.374     1910.149        1.812        0.789      142.838       30.653        0.046      335.788        6.653      853.026
02/27/2014  07:44:00       11.246      -68.559       -0.953       84.539       63.641       44.090     7146.817     4050.155     1943.959        0.898        0.657       69.475       28.870        0.173      335.866        6.785      853.020
02/27/2014  07:45:00      -13.821     -153.561       -4.728      116.922       77.030       49.074    13670.851     5933.611     2408.241        2.290        1.101      154.182       38.784        0.063      335.803        6.679      853.021
02/27/2014  07:46:00      -26.342      -41.041       15.523       69.500       48.322       39.939     4830.301     2335.035     1595.158        0.569        0.438       48.767       24.587        0.254      335.911        6.859      853.013
02/27/2014  07:47:00     -193.328     -261.466      -18.531      142.883      124.995       52.812    20415.635    15623.660     2789.107        7.245        1.941      325.177       53.092        0.027      335.496        6.167      853.045
02/27/2014  07:48:00     -166.636     -263.172       -5.224      146.666       96.170       66.232    21511.020     9248.643     4386.718        6.609        1.757      311.491       60.054        0.037      335.449        6.086      853.021
02/27/2014  07:49:00     -106.095     -197.195       -7.391       75.561       72.088       41.689     5709.501     5196.716     1737.960        3.142        0.632      223.924       24.075        0.012      335.469        6.121      853.019
02/27/2014  07:50:00     -123.898     -181.876       -3.312       87.380       91.114       48.707     7635.208     8301.736     2372.344        3.337        0.915      220.067       42.980        0.038      335.479        6.138      853.032
02/27/2014  07:51:00      -23.169      -69.320       23.705       49.859       76.536       32.990     2485.885     5857.747     1088.324        0.767        0.472       73.089       35.775        0.240      335.585        6.316      853.035
02/27/2014  07:52:00      -37.309      -91.012       -1.470       44.696       28.989       34.150     1997.773      840.391     1166.251        0.684        0.200       98.363       15.083        0.024      335.825        6.718      853.036
02/27/2014  07:53:00      -33.538      -56.202      -15.688       45.333       45.087       36.911     2055.086     2032.853     1362.439        0.499        0.273       65.448       24.517        0.140      335.721        6.543      853.098
02/27/2014  07:54:00      -14.433      -37.129        2.268       41.678       29.046       24.482     1737.069      843.699      599.369        0.239        0.159       39.836        5.789        0.021      335.822        6.712      853.144
02/27/2014  07:55:00        9.029      -67.706        1.852       48.907       62.478       49.359     2391.866     3903.512     2436.290        0.670        0.437       68.305       32.980        0.233      336.013        7.030      853.174
02/27/2014  07:56:00      -35.155      -62.483       15.761       40.022       29.972       33.747     1601.797      898.297     1138.842        0.451        0.182       71.693       14.441        0.041      335.881        6.811      853.193
02/27/2014  07:57:00       30.670      -76.253       12.870       85.210       69.778       42.785     7260.740     4869.014     1830.524        1.044        0.698       82.190       40.237        0.240      335.797        6.669      853.172
02/27/2014  07:58:00       20.667      -18.530       21.986       33.970       47.739       27.545     1153.994     2279.007      758.742        0.272        0.210       27.758       32.241        1.349      336.087        7.155      853.194
02/27/2014  07:59:00       59.071      -55.036        8.577       45.242       45.264       23.928     2046.794     2048.791      572.564        0.563        0.233       80.736       13.116        0.026      335.712        6.529      853.200
02/27/2014  08:00:00      -20.911       14.847       -9.104       24.930       32.940       16.410      621.524     1085.037      269.277        0.136        0.099       25.646       15.758        0.378      335.800        6.675      853.217
02/27/2014  08:01:00      -17.472      -13.957        7.824       34.543       46.457       26.251     1193.185     2158.208      689.134        0.230        0.202       22.363       32.853        2.158      335.837        6.738      853.255
02/27/2014  08:02:00       35.708       97.435       92.621       66.050       65.314       39.395     4362.538     4265.901     1551.928        1.476        0.509      103.772       42.944        0.171      335.875        6.799      853.232
02/27/2014  08:03:00       85.586      -96.690       33.383       98.765      125.783       68.259     9754.569    15821.472     4659.248        2.401        1.512      129.128       93.748        0.527      335.826        6.715      853.199
02/27/2014  08:04:00      239.842     -238.206      -49.376       84.398       97.548       48.748     7123.087     9515.644     2376.383        6.786        0.951      338.033       28.326        0.007      335.532        6.226      853.232
02/27/2014  08:05:00      145.255      111.109       93.549      142.366      125.197       84.338    20268.048    15674.274     7112.960        4.262        2.153      182.877       82.177        0.202      335.675        6.465      853.207
02/27/2014  08:06:00      125.911      134.125       98.543      190.589      102.503      114.464    36324.264    10506.818    13101.905        5.173        2.997      183.965      112.435        0.374      335.713        6.527      853.068
02/27/2014  08:07:00       44.612      -40.730       12.753       66.558       56.719       46.884     4429.999     3217.024     2198.071        0.683        0.492       60.408       40.993        0.460      335.903        6.846      853.167
02/27/2014  08:08:00       19.226      -59.303       24.429       49.509       51.381       36.406     2451.153     2640.023     1325.431        0.545        0.321       62.342       26.869        0.186      335.757        6.605      853.203
02/27/2014  08:09:00       68.609      -14.030       50.694       68.780      114.316       58.034     4730.745    13068.071     3367.996        1.432        1.058       70.029       63.525        0.823      335.785        6.650      853.227
02/27/2014  08:10:00       71.323       -7.801       71.727       87.177      113.774       65.778     7599.788    12944.631     4326.734        1.758        1.244       71.748       76.515        1.137      335.661        6.442      853.220
02/27/2014  08:11:00       49.712      -25.873       81.820       83.636      122.602       74.797     6994.936    15031.334     5594.613        1.872        1.381       56.041       81.585        2.119      335.787        6.652      853.187
02/27/2014  08:12:00      112.733       10.856       99.009      101.868      116.680       70.189    10377.150    13614.274     4926.470        2.577        1.446      113.255       79.837        0.497      335.656        6.432      853.190
02/27/2014  08:13:00      105.570      -41.201       55.686      134.369      107.920       77.303    18055.063    11646.736     5975.748        2.580        1.784      113.325       64.939        0.328      335.690        6.491      853.174
02/27/2014  08:14:00      119.085       70.266       90.234       98.118      130.834       85.247     9627.159    17117.644     7267.070        3.063        1.701      138.270       88.705        0.412      335.620        6.374      853.192
02/27/2014  08:15:00       95.807       84.555      124.165       98.554      110.691       73.541     9712.891    12252.443     5408.262        2.955        1.369      127.783       77.108        0.364      335.709        6.522      853.227
02/27/2014  08:16:00       85.527        5.580       89.006      105.389      103.539       73.118    11106.841    10720.330     5346.228        2.122        1.359       85.709       74.248        0.750      335.722        6.543      853.244
02/27/2014  08:17:00       89.505       -5.942       80.319       70.266      143.164       69.134     4937.358    20495.830     4779.519        2.235        1.511       89.702       85.802        0.915      335.675        6.465      853.295
02/27/2014  08:18:00      124.812     -137.092      -25.614       96.177      109.914       52.035     9249.952    12081.167     2707.645        2.953        1.202      185.398       58.210        0.099      335.855        6.764      853.325
02/27/2014  08:19:00      210.111     -159.249       23.125      113.776      132.497      101.881    12944.936    17555.518    10379.774        5.545        2.044      263.641      106.965        0.165      335.712        6.525      853.296
02/27/2014  08:20:00       94.279       53.717      133.936      104.485      140.318       88.917    10917.193    19689.128     7906.248        3.411        1.926      108.508       98.440        0.823      335.731        6.558      853.272
02/27/2014  08:21:00       93.430      -40.829       77.353      118.528      138.819       72.485    14048.978    19270.761     5254.036        2.747        1.929      101.961       85.722        0.707      335.863        6.780      853.229
02/27/2014  08:22:00      134.564      102.256      118.824      109.641      107.222       91.945    12021.218    11496.653     8453.835        3.732        1.599      169.008       71.364        0.178      335.921        6.875      853.192
02/27/2014  08:23:00      249.317      177.697      123.739      127.103      101.465      104.877    16155.101    10295.079    10999.123        7.324        1.872      306.162       76.610        0.063      335.685        6.480      853.171
02/27/2014  08:24:00      238.540      138.589       84.600      101.803      101.287       84.539    10363.827    10259.101     7146.803        5.551        1.388      275.877       62.552        0.051      335.700        6.504      853.160
02/27/2014  08:25:00      132.784      195.107      194.195      133.087      136.571       92.742    17712.116    18651.515     8601.138        6.918        2.248      236.005       99.311        0.177      335.765        6.613      853.118
02/27/2014  08:26:00      130.308      202.341      191.947      123.910      101.524       89.674    15353.674    10307.166     8041.442        6.423        1.685      240.670       70.702        0.086      335.809        6.687      853.084
02/27/2014  08:27:00      146.855      142.780      139.585      136.434      103.283       83.121    18614.321    10667.323     6909.134        4.881        1.810      204.824       73.580        0.129      335.844        6.746      853.088
02/27/2014  08:28:00      210.715      105.500       87.760      139.082       94.801       92.297    19343.830     8987.304     8518.667        5.003        1.842      235.650       88.325        0.140      335.758        6.602      853.077
02/27/2014  08:29:00       84.018       55.961      122.135       98.605       88.493       64.728     9723.042     7830.933     4189.662        2.342        1.087      100.949       58.286        0.333      335.875        6.799      853.113
02/27/2014  08:30:00      113.357       96.088       97.035       82.742       83.543       76.364     6846.204     6979.398     5831.421        2.557        0.983      148.603       62.782        0.178      335.773        6.628      853.142
02/27/2014  08:31:00      257.959      108.905       64.005      109.570       77.101       76.645    12005.663     5944.505     5874.499        5.316        1.191      280.006       63.093        0.051      335.725        6.547      853.139
02/27/2014  08:32:00      289.774      132.679       24.608      108.726       86.105       71.686    11821.316     7414.037     5138.895        6.327        1.219      318.705       60.471        0.036      335.518        6.202      853.109
02/27/2014  08:33:00      329.575      217.633       24.477       93.665       64.574       63.800     8773.217     4169.781     4070.420        8.679        0.851      394.948       42.331        0.011      335.593        6.326      853.076
02/27/2014  08:34:00      302.744      175.423       49.076      127.931      102.740       79.381    16366.258    10555.590     6301.286        7.902        1.661      349.896       47.876        0.019      335.636        6.399      853.061
02/27/2014  08:35:00      139.056      127.047      130.451      138.853      134.941      109.539    19280.211    18209.012    11998.880        5.098        2.474      188.355       97.177        0.266      335.741        6.574      853.082
02/27/2014  08:36:00      105.636      149.928      148.125       83.558       74.697       56.847     6981.940     5579.698     3231.591        3.568        0.790      183.405       50.777        0.077      335.725        6.547      853.121
02/27/2014  08:37:00       95.192      140.900      158.550       87.786       97.410       73.054     7706.395     9488.802     5336.893        3.829        1.127      170.042       67.345        0.157      335.653        6.427      853.098
02/27/2014  08:38:00      204.062      147.142      100.869      128.246       93.149       88.301    16447.129     8676.666     7797.020        5.319        1.646      251.579       78.292        0.097      335.810        6.687      853.026
02/27/2014  08:39:00      234.999      190.750       10.892      151.399      116.054       77.711    22921.562    13468.416     6039.060        6.707        2.121      302.671       66.067        0.048      335.770        6.623      853.041
02/27/2014  08:40:00      109.032      277.290      -34.036       91.610      155.599       79.723     8392.303    24211.071     6355.797        6.444        1.948      297.955       85.175        0.082      335.759        6.603      853.066
02/27/2014  08:41:00      104.157      216.040      -14.537      137.698      120.297       98.557    18960.863    14471.380     9713.569        5.043        2.157      239.838       82.743        0.119      335.729        6.553      853.073
02/27/2014  08:42:00      204.163      134.742       22.531       63.093       64.334       59.654     3980.701     4138.900     3558.540        3.601        0.584      244.619       36.851        0.023      335.705        6.513      853.066
02/27/2014  08:43:00       96.347      166.060      -11.129       91.241      103.334       56.409     8324.904    10677.895     3181.957        2.958        1.109      191.986       56.062        0.085      335.983        6.977      853.046
02/27/2014  08:44:00      189.972      141.872       22.322      117.318       87.004       70.962    13763.547     7569.681     5035.592        4.154        1.318      237.101       39.862        0.028      335.831        6.724      853.039
02/27/2014  08:45:00      129.933       76.068       25.979       54.005       38.294       41.018     2916.583     1466.423     1682.505        1.470        0.303      150.562       27.973        0.035      335.755        6.601      853.056
02/27/2014  08:46:00       68.948       47.900        6.485       34.041       35.277       30.029     1158.798     1244.444      901.719        0.520        0.165       83.953       17.882        0.045      335.972        6.962      853.046
02/27/2014  08:47:00       97.549       62.316       15.134       76.765       44.823       34.229     5892.931     2009.110     1171.648        1.135        0.454      115.755       21.144        0.033      336.131        7.225      853.028
02/27/2014  08:48:00       79.019      105.273       -4.834       53.592       70.846       43.202     2872.052     5019.107     1866.442        1.355        0.488      131.630       37.155        0.080      335.972        6.961      853.038
02/27/2014  08:49:00      132.205       99.059        5.848       67.680       52.342       39.731     4580.643     2739.644     1578.529        1.811        0.445      165.199       31.771        0.037      335.955        6.932      853.052
02/27/2014  08:50:00       10.196      165.683      -25.547       35.882       52.454       27.851     1287.539     2751.438      775.698        1.651        0.241      165.997       29.615        0.032      335.785        6.650      853.100
02/27/2014  08:51:00      -14.210      156.036      -19.029       34.503       34.308       23.083     1190.472     1177.055      532.844        1.391        0.145      156.682       13.722        0.008      335.819        6.707      853.162
02/27/2014  08:52:00       70.190       31.058       12.703       32.213       48.390       34.968     1037.681     2341.564     1222.770        0.533        0.230       76.755       20.760        0.073      336.189        7.324      853.203
02/27/2014  08:53:00        1.787       55.205       65.401       40.807       50.036       45.898     1665.233     2503.565     2106.629        0.680        0.314       55.234       31.542        0.326      336.291        7.493      853.246
02/27/2014  08:54:00      191.910      128.439       31.546       66.569       51.712       55.403     4431.434     2674.116     3069.467        3.225        0.509      230.924       44.535        0.037      335.989        6.986      853.288
02/27/2014  08:55:00      230.987      105.103       15.402       66.221       56.667       42.830     4385.186     3211.111     1834.412        3.703        0.472      253.775       28.478        0.013      335.878        6.801      853.310
02/27/2014  08:56:00      124.151       65.893        5.960       57.809       48.223       42.614     3341.898     2325.446     1815.975        1.364        0.374      140.554       21.160        0.023      335.959        6.940      853.318
02/27/2014  08:57:00       61.417       56.796       18.145       83.642       43.015       41.349     6995.922     1850.329     1709.725        0.894        0.528       83.653       20.868        0.062      336.128        7.220      853.312
02/27/2014  08:58:00       45.037       63.438        4.158       46.418       50.042       30.916     2154.659     2504.191      955.786        0.584        0.281       77.799       28.603        0.135      336.264        7.450      853.336
02/27/2014  08:59:00      -12.206      218.540      -28.032       39.486       50.487       18.715     1559.106     2548.914      350.266        2.658        0.223      218.881        8.120        0.001      335.820        6.705      853.363
02/27/2014  09:00:00       -1.367      117.220      -18.912       51.345       95.425       31.417     2636.352     9105.910      987.034        1.341        0.636      117.228       33.219        0.080      335.805        6.681      853.387
02/27/2014  09:01:00       38.281       47.409       19.942       46.644       42.513       24.052     2175.667     1807.351      578.501        0.434        0.228       60.935       24.435        0.161      336.163        7.280      853.416
02/27/2014  09:02:00       12.432        2.960       40.511       19.983       38.022       28.249      399.334     1445.706      797.986        0.222        0.132       12.780       30.200        5.584      336.323        7.547      853.402
02/27/2014  09:03:00      113.569      103.976       80.008       74.845       42.364       42.785     5601.792     1794.722     1830.583        1.967        0.461      153.977       40.512        0.069      336.052        7.094      853.350
02/27/2014  09:04:00       72.371       77.882       73.733       60.346       41.502       45.545     3641.696     1722.453     2074.346        1.209        0.372      106.317       41.764        0.154      336.334        7.567      853.361
02/27/2014  09:05:00       56.156     -101.014       16.801       67.611       93.307       55.394     4571.270     8706.224     3068.451        1.499        0.817      115.574       64.380        0.310      336.367        7.620      853.394
02/27/2014  09:06:00       89.820     -209.512      -20.355       32.073       36.946       28.013     1028.692     1365.004      784.712        2.778        0.159      227.954       15.847        0.005      335.930        6.887      853.408
02/27/2014  09:07:00       -9.202      -44.377       -3.805       69.169       93.574       42.429     4784.291     8756.171     1800.236        0.870        0.767       45.321       32.758        0.522      336.241        7.410      853.361
02/27/2014  09:08:00       73.009       31.825       55.165       58.980       47.459       51.374     3478.667     2252.361     2639.274        0.888        0.419       79.644       35.373        0.197      336.251        7.427      853.312
02/27/2014  09:09:00       58.572       12.636        3.389       38.486       41.683       23.578     1481.172     1737.435      555.908        0.369        0.189       59.920       17.243        0.083      336.221        7.378      853.287
02/27/2014  09:10:00       96.064       54.907       20.872       70.680       42.838       39.348     4995.706     1835.092     1548.292        1.053        0.419      110.648       34.929        0.100      336.248        7.423      853.276
02/27/2014  09:11:00       99.011       96.117       10.041       70.966       52.488       40.485     5036.224     2755.040     1639.071        1.428        0.472      137.992       33.169        0.058      336.182        7.311      853.280
02/27/2014  09:12:00       85.456       53.505        4.271       25.251       25.719       28.661      637.594      661.460      821.433        0.615        0.106      100.824       11.644        0.013      336.027        7.054      853.293
02/27/2014  09:13:00       74.966       40.674       40.851       62.348       48.450       45.680     3887.254     2347.402     2086.655        0.863        0.416       85.289       36.472        0.183      336.171        7.293      853.297
02/27/2014  09:14:00      160.219       58.109       46.078       86.451       84.028       74.154     7473.729     7060.690     5498.864        2.560        1.002      170.431       64.225        0.142      336.063        7.110      853.292
02/27/2014  09:15:00      102.519       90.331       93.419       93.448       87.217       76.985     8732.450     7606.832     5926.648        2.483        1.113      136.638       66.731        0.239      336.145        7.249      853.263
02/27/2014  09:16:00      190.721      159.620       82.840       94.977       54.882       73.322     9020.570     3011.995     5376.088        4.306        0.870      248.702       66.555        0.072      335.961        6.940      853.230
02/27/2014  09:17:00      120.953      135.087      116.787       93.503       70.348       81.617     8742.773     4948.805     6661.318        3.343        1.018      181.323       73.458        0.164      336.117        7.200      853.180
02/27/2014  09:18:00       44.267       91.522      106.051       66.452       74.383       67.139     4415.826     5532.760     4507.590        1.802        0.723      101.665       61.988        0.372      336.316        7.534      853.139
02/27/2014  09:19:00      139.397       66.316       13.617       80.244       63.238       51.370     6439.169     3999.006     2638.828        1.854        0.654      154.367       10.393        0.005      336.225        7.382      853.115
02/27/2014  09:20:00      178.102      145.286       25.060      121.765       77.244       66.169    14826.818     5966.610     4378.375        3.931        1.259      229.844       44.677        0.038      336.158        7.269      853.080
02/27/2014  09:21:00       76.735      104.776        3.268       97.804       94.203       68.057     9565.608     8874.203     4631.769        1.997        1.154      129.870       49.328        0.144      336.291        7.493      853.114
02/27/2014  09:22:00       76.698      121.154       -4.862       66.865       73.419       53.866     4470.984     5390.317     2901.564        1.667        0.638      143.391       46.959        0.107      336.067        7.119      853.161
02/27/2014  09:23:00       23.434      125.355       -9.857       34.528       62.523       31.306     1192.187     3909.158      980.079        1.122        0.304      127.527       36.010        0.080      336.078        7.139      853.188
02/27/2014  09:24:00       30.950       60.888        1.693       30.794       29.976       24.413      948.243      898.574      595.988        0.355        0.122       68.302       19.953        0.085      336.170        7.293      853.213
02/27/2014  09:25:00      144.896       93.427       17.947       82.121       66.384       44.008     6743.825     4406.838     1936.706        2.156        0.654      172.405       34.599        0.040      336.166        7.283      853.205
02/27/2014  09:26:00      127.246      129.201       16.944       83.832       58.922       58.437     7027.848     3471.766     3414.865        2.354        0.696      181.341       32.039        0.031      336.122        7.210      853.219
02/27/2014  09:27:00       77.220       79.865       38.513       60.989       34.996       46.231     3719.687     1224.736     2137.300        1.045        0.354      111.092       32.241        0.084      336.211        7.360      853.236
02/27/2014  09:28:00       85.015       70.761       44.091       74.127       42.801       43.796     5494.745     1831.967     1918.091        1.171        0.462      110.611       46.087        0.174      336.197        7.337      853.244
02/27/2014  09:29:00       87.305       52.098       39.448       46.438       50.987       41.699     2156.493     2599.657     1738.782        0.919        0.325      101.668       36.867        0.131      336.184        7.315      853.253
02/27/2014  09:30:00       81.841       75.410       89.435       58.965       49.650       35.517     3476.831     2465.079     1261.468        1.379        0.360      111.286       25.478        0.052      336.183        7.313      853.248
02/27/2014  09:31:00       18.055      -58.527       38.117       43.363       74.387       41.535     1880.366     5533.491     1725.173        0.717        0.457       61.248       38.972        0.405      336.434        7.733      853.244
02/27/2014  09:32:00       74.808       39.255       58.160       60.685       51.894       47.321     3682.697     2692.973     2239.247        0.957        0.431       84.482       37.222        0.194      336.263        7.447      853.276
02/27/2014  09:33:00       13.262       44.482       81.937       39.704       56.746       37.765     1576.398     3220.075     1426.169        0.754        0.311       46.417       33.404        0.518      336.409        7.693      853.308
02/27/2014  09:34:00       32.971        9.165       64.668       36.205       52.229       37.878     1310.828     2727.918     1434.739        0.541        0.274       34.222       31.176        0.830      336.420        7.711      853.332
02/27/2014  09:35:00       43.766       -0.483       51.952       63.507       87.484       60.177     4033.092     7653.413     3621.316        0.996        0.765       43.769       66.520        2.310      336.411        7.694      853.345
02/27/2014  09:36:00       62.752       45.845       38.333       53.574       29.164       35.455     2870.151      850.522     1257.055        0.624        0.249       77.715       30.910        0.158      336.129        7.223      853.362
02/27/2014  09:37:00       84.777      -89.427      -17.943       66.753       78.688       46.012     4455.931     6191.780     2117.071        1.413        0.638      123.225       61.546        0.249      336.260        7.440      853.376
02/27/2014  09:38:00       58.261      -16.868       16.674       45.842       43.278       36.572     2101.529     1872.969     1337.545        0.463        0.266       60.654       37.673        0.386      336.300        7.510      853.362
02/27/2014  09:39:00       -3.004       16.030       49.144       16.290       25.144       14.283      265.370      632.223      203.993        0.189        0.055       16.309       14.213        0.760      336.585        7.985      853.309
02/27/2014  09:40:00       30.128      -88.715       -4.571       36.606       42.723       36.028     1339.979     1825.272     1298.010        0.663        0.223       93.691       33.451        0.127      336.499        7.842      853.276
02/27/2014  09:41:00       38.821      -55.100       -6.956       71.770       41.698       30.754     5150.918     1738.711      945.821        0.621        0.392       67.402       12.516        0.034      336.414        7.699      853.265
02/27/2014  09:42:00       13.734      -53.759      -10.771       23.645       21.344       14.260      559.086      455.555      203.345        0.221        0.061       55.485       11.359        0.042      336.134        7.232      853.299
02/27/2014  09:43:00        1.794      -20.110       11.192       33.144       34.907       35.472     1098.546     1218.516     1258.236        0.205        0.179       20.190       27.930        1.914      336.494        7.833      853.318
02/27/2014  09:44:00      -58.207      -15.065        8.682       53.714       36.064       24.262     2885.179     1300.625      588.666        0.423        0.239       60.125       26.985        0.201      336.290        7.492      853.277
02/27/2014  09:45:00      -76.860      -20.504        2.789       36.071       28.351       17.827     1301.143      803.755      317.802        0.438        0.121       79.548       16.387        0.042      336.252        7.429      853.234
02/27/2014  09:46:00     -114.152      -46.705       -7.512       21.511       19.336       14.837      462.727      373.890      220.128        0.816        0.053      123.337       11.199        0.008      336.133        7.230      853.217
02/27/2014  09:47:00      -85.288      -42.669       -6.068       33.186       24.223       20.963     1101.336      586.764      439.440        0.563        0.106       95.366       15.309        0.026      336.154        7.266      853.238
02/27/2014  09:48:00      -93.053      -91.908       -1.609       52.410       41.578       23.787     2746.836     1728.714      565.805        1.107        0.252      130.790       22.098        0.029      336.204        7.349      853.269
02/27/2014  09:49:00      -66.551      -91.120       -9.117       48.111       50.271       29.784     2314.675     2527.145      887.095        0.927        0.286      112.836       31.384        0.077      336.258        7.439      853.299
02/27/2014  09:50:00     -136.092      -70.500        6.024      101.532       49.334       44.628    10308.772     2433.844     1991.630        1.913        0.737      153.269       44.957        0.086      336.356        7.601      853.335
02/27/2014  09:51:00     -145.160     -117.279       11.395      108.405       88.775       49.509    11751.666     7881.004     2451.113        2.852        1.104      186.617       51.184        0.075      336.407        7.686      853.374
02/27/2014  09:52:00     -144.021     -158.680       -2.952       77.631       72.726       40.771     6026.546     5289.123     1662.303        2.945        0.649      214.293       36.182        0.029      336.374        7.630      853.394
02/27/2014  09:53:00     -174.380     -171.263       -4.290       98.096      112.977       54.922     9622.850    12763.732     3016.428        4.258        1.270      244.416       59.451        0.059      336.329        7.555      853.403
02/27/2014  09:54:00     -206.834     -209.804       -1.596      109.935      103.433       60.000    12085.608    10698.309     3600.035        5.659        1.319      294.615       57.524        0.038      336.280        7.473      853.406
02/27/2014  09:55:00     -231.592     -217.106       -8.903      103.091       97.569       53.786    10627.842     9519.784     2892.939        6.194        1.152      317.442       53.967        0.029      336.193        7.325      853.413
02/27/2014  09:56:00     -209.580     -187.936      -16.411       71.660       65.137       44.574     5135.224     4242.845     1986.836        4.544        0.568      281.503       42.679        0.023      336.182        7.309      853.421
02/27/2014  09:57:00     -123.914     -117.272        7.000       83.354       60.082       46.710     6947.965     3609.792     2181.870        2.095        0.637      170.609       40.646        0.057      336.250        7.425      853.428
02/27/2014  09:58:00      -19.098     -117.017       -3.224       56.519       73.871       29.068     3194.346     5456.915      844.951        1.178        0.475      118.565       25.700        0.047      336.272        7.463      853.436
02/27/2014  09:59:00      -13.126      -86.011       -3.262       37.147       42.311       20.527     1379.932     1790.243      421.339        0.559        0.180       87.007       11.558        0.018      336.198        7.339      853.446
02/27/2014  10:00:00      -59.186     -149.028       -8.313       39.369       55.938       26.844     1549.949     3129.084      720.591        1.559        0.270      160.351       13.438        0.007      336.215        7.366      853.456
02/27/2014  10:01:00       16.710      -56.274       -5.748       47.285       72.067       33.468     2235.892     5193.665     1120.095        0.601        0.427       58.703       21.144        0.130      336.219        7.373      853.489
02/27/2014  10:02:00       55.399       57.305       19.490       43.298       42.334       45.993     1874.749     1792.174     2115.365        0.626        0.289       79.705       24.361        0.093      336.303        7.514      853.498
02/27/2014  10:03:00      121.353       52.314      -18.744       66.833       53.497       33.127     4466.668     2861.950     1097.390        1.312        0.421      132.148       21.644        0.027      336.171        7.293      853.539
02/27/2014  10:04:00       49.068       97.537       18.379       66.554       41.576       35.547     4429.423     1728.542     1263.599        0.984        0.371      109.184       29.615        0.074      336.283        7.480      853.528
02/27/2014  10:05:00       87.583       68.680      -21.781       44.279       64.146       24.896     1960.589     4114.652      619.810        0.978        0.335      111.300       16.144        0.021      336.211        7.361      853.531
02/27/2014  10:06:00       56.957       25.696        0.786       39.462       44.073       25.879     1557.249     1942.434      669.721        0.404        0.208       62.485       25.473        0.166      336.406        7.686      853.545
02/27/2014  10:07:00        7.801      -21.355        6.328       28.435       30.653       25.630      808.566      939.606      656.887        0.148        0.120       22.735       17.853        0.617      336.467        7.788      853.569
02/27/2014  10:08:00      -30.647       12.461        7.345       20.638       19.967       16.274      425.907      398.672      264.852        0.112        0.054       33.083       12.294        0.138      336.555        7.934      853.576
02/27/2014  10:09:00       25.977       36.611        8.391       32.943       31.556       26.488     1085.259      995.800      701.610        0.243        0.139       44.891       22.024        0.241      336.499        7.841      853.561
02/27/2014  10:10:00       36.578       87.910       -4.772       44.112       46.852       32.604     1945.855     2195.084     1063.051        0.715        0.260       95.216       27.628        0.084      336.471        7.795      853.540
02/27/2014  10:11:00       80.048       54.314       10.680       50.850       27.644       29.036     2585.754      764.164      843.098        0.683        0.210       96.735        4.444        0.002      336.506        7.852      853.519
02/27/2014  10:12:00       82.947       56.495       21.163       42.906       34.641       33.213     1840.924     1199.970     1103.136        0.733        0.207      100.359       19.359        0.037      336.493        7.833      853.501
02/27/2014  10:13:00       76.308       44.575       24.288       51.548       34.183       40.402     2657.214     1168.476     1632.341        0.693        0.273       88.373       37.852        0.183      336.578        7.974      853.492
02/27/2014  10:14:00        9.087       25.003        7.017       35.796       28.679       26.390     1281.336      822.457      696.410        0.178        0.140       26.603        6.375        0.057      336.674        8.135      853.490
02/27/2014  10:15:00       15.724       59.810       -1.718       30.009       38.760       23.911      900.513     1502.318      571.723        0.340        0.149       61.843       21.292        0.119      336.561        7.946      853.496
02/27/2014  10:16:00      -13.512       73.747       -8.659       20.261       36.489       22.344      410.490     1331.463      499.257        0.397        0.112       74.974       13.376        0.032      336.515        7.869      853.494
02/27/2014  10:17:00       17.923       14.185        1.374       31.611       28.325       19.505      999.263      802.332      380.432        0.135        0.109       22.857       17.472        0.584      336.490        7.827      853.470
02/27/2014  10:18:00       46.689       74.152       61.613       37.692       36.814       54.498     1420.694     1355.250     2970.039        0.861        0.287       87.626       40.646        0.215      336.551        7.930      853.453
02/27/2014  10:19:00       70.922       80.957       70.884       61.622       62.177       39.531     3797.236     3865.973     1562.698        1.292        0.461      107.629       36.439        0.115      336.485        7.818      853.470
02/27/2014  10:20:00       59.319       30.964       21.654       54.474       42.188       24.362     2967.467     1779.824      593.496        0.514        0.267       66.914       20.792        0.097      336.592        7.997      853.497
02/27/2014  10:21:00       17.752       49.354       62.652       36.612       48.524       31.650     1340.468     2354.555     1001.703        0.569        0.235       52.449       37.113        0.501      336.716        8.205      853.518
02/27/2014  10:22:00       22.376      -19.738       18.778       20.481       23.490       25.682      419.460      551.791      659.573        0.144        0.082       29.838       18.635        0.390      336.673        8.134      853.507
02/27/2014  10:23:00      -54.217      -14.146       -9.571       33.924       20.294       15.754     1150.804      411.855      248.177        0.252        0.091       56.032       16.185        0.083      336.427        7.720      853.493
02/27/2014  10:24:00      -53.792      -29.921      -10.073       30.544       22.018       13.445      932.942      484.787      180.779        0.274        0.080       61.554        9.498        0.024      336.310        7.526      853.502
02/27/2014  10:25:00      -41.671      -37.620        7.010       40.388       29.786       19.033     1631.184      887.218      362.249        0.304        0.144       56.140       13.296        0.056      336.508        7.858      853.483
02/27/2014  10:26:00      -35.748       37.898        6.890       39.743       43.576       33.268     1579.488     1898.857     1106.753        0.367        0.229       52.097       20.509        0.155      336.633        8.065      853.465
02/27/2014  10:27:00      -28.344      -69.935        0.404       43.590       46.833       30.716     1900.054     2193.338      943.463        0.536        0.252       75.460       21.600        0.082      336.770        8.296      853.452
02/27/2014  10:28:00      -27.250      -43.298       14.021       32.344       50.593       34.287     1046.158     2559.688     1175.629        0.380        0.239       51.159       30.114        0.346      336.881        8.481      853.444
02/27/2014  10:29:00       26.632        8.928       29.618       31.730       35.461       33.650     1006.803     1257.506     1132.299        0.253        0.170       28.089       18.289        0.424      337.227        9.060      853.432
02/27/2014  10:30:00      -66.550     -102.678       -4.514      107.549       62.490       34.556    11566.894     3905.016     1194.108        1.583        0.833      122.359       26.063        0.045      336.778        8.307      853.434
02/27/2014  10:31:00     -259.855      -60.369       -0.719      116.735       79.096       48.351    13627.090     6256.157     2337.838        4.669        1.111      266.775       57.446        0.046      336.853        8.429      853.414
02/27/2014  10:32:00     -128.512      -67.962       16.883      138.279       64.977       45.441    19121.046     4222.015     2064.845        2.341        1.270      145.376       51.648        0.126      336.640        8.076      853.422
02/27/2014  10:33:00     -228.695     -152.686      -11.286      109.745       93.719       53.115    12043.875     8783.256     2821.246        4.969        1.182      274.980       43.802        0.025      336.703        8.181      853.397
02/27/2014  10:34:00     -253.930      -89.569       -9.779      148.832       87.001       60.001    22151.037     7569.243     3600.118        5.295        1.666      269.263       63.743        0.056      336.856        8.435      853.392
02/27/2014  10:35:00     -371.543      -89.795       -9.334       88.787       85.321       48.390     7883.098     7279.645     2341.593        8.185        0.875      382.240       38.263        0.010      336.605        8.015      853.369
02/27/2014  10:36:00     -272.537      -87.806       -4.357      136.850      112.238       57.378    18727.921    12597.304     3292.198        5.830        1.731      286.333       65.627        0.053      336.785        8.317      853.367
02/27/2014  10:37:00     -284.471      -31.821       -6.581      170.221      102.982       52.637    28975.344    10605.253     2770.615        6.216        2.118      286.245       46.325        0.026      336.788        8.321      853.374
02/27/2014  10:38:00     -578.364      -31.901      -42.632      174.425      169.651       79.554    30424.187    28781.415     6328.861       20.142        3.277      579.243       85.830        0.022      336.600        8.008      853.364
02/27/2014  10:39:00     -402.535      -20.489      -22.003      172.739      143.179       70.929    29838.776    20500.271     5030.937       10.914        2.768      403.056       65.839        0.027      336.661        8.111      853.338
02/27/2014  10:40:00     -337.909      -89.078       -2.956      253.302      142.004       81.952    64161.744    20165.127     6716.124       10.657        4.552      349.453      101.750        0.085      336.742        8.246      853.320
02/27/2014  10:41:00     -427.111      -99.361      -25.055      167.253      149.181       80.645    27973.429    22254.848     6503.588       12.482        2.837      438.516       94.901        0.047      336.657        8.104      853.293
02/27/2014  10:42:00     -364.728        2.103      -21.121      109.422      109.675       57.149    11973.157    12028.569     3266.042        8.037        1.363      364.734       57.840        0.025      336.777        8.303      853.292
02/27/2014  10:43:00     -238.372      -43.968       -7.347      114.760      104.674       44.639    13169.884    10956.581     1992.651        4.246        1.306      242.393       37.189        0.024      336.965        8.618      853.287
02/27/2014  10:44:00     -481.427     -116.575      -20.292      205.124      147.507       92.268    42075.945    21758.311     8513.404       15.905        3.617      495.340       88.846        0.032      336.949        8.589      853.229
02/27/2014  10:45:00     -528.353     -129.724      -18.799      198.539      187.601       91.317    39417.686    35194.101     8338.874       18.963        4.148      544.045       95.301        0.031      336.942        8.578      853.170
02/27/2014  10:46:00     -294.386     -185.907       -2.529      221.327      223.635      115.966    48985.695    50012.653    13448.030       11.682        5.622      348.174      112.385        0.104      336.854        8.431      853.147
02/27/2014  10:47:00     -397.796      -97.738       -5.319      247.196      182.927       83.599    61105.982    33462.395     6988.839       13.467        5.078      409.627      102.498        0.063      336.963        8.614      853.137
02/27/2014  10:48:00     -339.739     -164.403       -2.308      231.296      176.777      106.658    53498.062    31250.260    11375.877       11.927        4.806      377.427      115.900        0.094      336.957        8.604      853.148
02/27/2014  10:49:00     -203.947     -172.538        4.300      237.999      147.596       88.883    56643.613    21784.485     7900.168        7.884        4.316      267.140      107.071        0.161      337.000        8.678      853.158
02/27/2014  10:50:00     -479.716     -191.571      -28.784      221.484      178.753       93.352    49055.163    31952.553     8714.618       17.867        4.486      516.553       82.750        0.026      336.975        8.634      853.133
02/27/2014  10:51:00     -297.224     -112.745       -5.892      179.228      126.275       65.971    32122.710    15945.385     4352.108        7.674        2.621      317.889       70.879        0.050      336.963        8.614      853.138
02/27/2014  10:52:00     -344.971     -188.859        5.762      209.701      144.744       92.685    43974.667    20950.769     8590.532       11.410        3.676      393.285      109.783        0.078      337.145        8.919      853.105
02/27/2014  10:53:00     -122.071       30.952       14.068      163.250      102.540       65.252    26650.671    10514.477     4257.791        2.873        2.071      125.934       70.490        0.313      337.608        9.697      853.088
02/27/2014  10:54:00     -584.744      -88.805      -49.094      235.238      179.334       92.489    55337.092    32160.734     8554.295       22.412        4.803      591.449       96.703        0.027      337.110        8.858      853.041
02/27/2014  10:55:00     -510.591      -56.747        0.543      235.040      161.109      106.536    55243.839    25955.966    11349.861       17.822        4.627      513.735      118.225        0.053      336.939        8.573      853.006
02/27/2014  10:56:00     -224.325      -19.446       18.949      147.541      110.439       68.245    21768.424    12196.836     4657.440        4.483        1.931      225.166       72.559        0.104      337.353        9.268      853.038
02/27/2014  10:57:00     -270.728     -171.543      -22.847      147.512      152.973       90.720    21759.878    23400.745     8230.155        7.831        2.670      320.501       88.015        0.075      337.245        9.086      852.991
02/27/2014  10:58:00     -247.696     -103.505       14.952      167.818      156.137       82.060    28163.018    24378.808     6733.898        6.577        2.964      268.452       90.947        0.115      337.453        9.435      852.970
02/27/2014  10:59:00     -277.884     -157.799       -6.688      217.110      152.255       81.338    47136.687    23181.710     6615.805        8.953        3.847      319.562       96.515        0.091      337.127        8.888      852.979
02/27/2014  11:00:00     -196.556      -85.826       -5.153      138.638      138.379       73.679    19220.556    19148.775     5428.580        4.490        2.190      214.477       77.800        0.132      337.340        9.245      852.965
02/27/2014  11:01:00     -175.585      -65.731        9.543      147.946      141.802       68.174    21888.072    20107.822     4647.675        4.093        2.332      187.485       68.634        0.134      337.606        9.693      852.977
02/27/2014  11:02:00     -258.018     -164.744       11.514      152.042      141.125       68.896    23116.705    19916.142     4746.646        7.080        2.389      306.127       71.094        0.054      337.530        9.563      852.992
02/27/2014  11:03:00     -339.676      -79.603       -4.308      130.310      157.628       74.205    16980.682    24846.726     5506.401        8.453        2.367      348.879       70.222        0.041      337.350        9.261      853.017
02/27/2014  11:04:00     -329.388      -84.551      -13.355      181.870      143.387       77.971    33076.521    20559.896     6079.481        8.776        2.986      340.067       92.196        0.074      337.377        9.306      853.030
02/27/2014  11:05:00     -415.444       -6.099      -37.104      177.352      139.329       85.887    31453.678    19412.690     7376.519       11.611        2.912      415.489       75.685        0.033      337.381        9.313      853.027
02/27/2014  11:06:00     -362.079     -197.502        4.226      260.302      179.749      105.947    67757.178    32309.795    11224.668       14.069        5.565      412.442      127.297        0.095      337.382        9.315      853.030
02/27/2014  11:07:00     -524.531     -155.301      -15.506      174.504      163.681       87.992    30451.791    26791.624     7742.621       18.223        3.249      547.038       85.450        0.024      337.174        8.968      852.997
02/27/2014  11:08:00     -413.524     -175.994      -13.946      157.533      148.713       78.803    24816.541    22115.685     6209.882       12.765        2.657      449.418       79.571        0.031      337.252        9.098      853.018
02/27/2014  11:09:00     -272.601     -168.359       -7.083      206.760      138.344       71.434    42749.859    19139.041     5102.852        8.484        3.350      320.400       88.470        0.076      337.383        9.318      852.990
02/27/2014  11:10:00     -265.973     -237.406        7.016      201.330      157.343       76.484    40533.874    24756.933     5849.739        9.913        3.557      356.515       84.847        0.057      337.376        9.306      852.975
02/27/2014  11:11:00     -271.024     -225.588       -7.356      163.210      175.011       73.974    26637.438    30628.770     5472.225        9.356        3.137      352.624       84.446        0.057      337.408        9.359      852.971
02/27/2014  11:12:00     -240.386     -204.760       -9.770      163.768      109.651       71.805    26820.111    12023.300     5156.025        7.189        2.200      315.772       61.721        0.038      337.615        9.704      852.978
02/27/2014  11:13:00     -422.974     -201.447      -29.306      204.585      125.094       71.013    41855.162    15648.599     5042.906       14.143        3.127      468.496       65.999        0.020      337.489        9.494      852.970
02/27/2014  11:14:00     -210.813     -136.729       13.395      156.995      146.703       73.359    24647.574    21521.878     5381.608        5.742        2.578      251.271       75.242        0.090      337.618        9.710      852.977
02/27/2014  11:15:00     -126.694     -233.743        3.024      146.801      119.642       60.227    21550.388    14314.275     3627.313        5.509        1.975      265.870       61.993        0.054      337.542        9.582      852.993
02/27/2014  11:16:00     -244.834     -155.521       21.002      233.077      104.666       83.099    54324.938    10954.867     6905.372        7.836        3.609      290.053      110.392        0.145      337.659        9.778      852.990
02/27/2014  11:17:00     -425.789     -205.696      -25.718      148.322      152.317       71.003    21999.285    23200.350     5041.403       13.724        2.512      472.871       65.588        0.019      337.491        9.497      853.022
02/27/2014  11:18:00     -212.196     -207.122        0.518      143.548      123.871       81.431    20606.061    15344.022     6631.055        6.525        2.129      296.524       78.250        0.070      337.582        9.649      853.039
02/27/2014  11:19:00     -198.568     -127.173        1.024      115.429       92.193       52.398    13323.840     8499.525     2745.527        4.008        1.228      235.802       56.594        0.058      337.846       10.094      853.053
02/27/2014  11:20:00      -91.250      -83.278       23.602       89.385       60.027       45.551     7989.710     3603.268     2074.928        1.474        0.683      123.539       44.621        0.130      338.052       10.442      853.085
02/27/2014  11:21:00     -161.078     -256.718        6.861      146.017      154.244       70.705    21320.832    23791.243     4999.178        7.099        2.506      303.068       73.575        0.059      337.755        9.941      853.108
02/27/2014  11:22:00     -371.859     -147.168      -14.586      180.952      221.474       70.154    32743.631    49050.787     4921.614       12.342        4.336      399.922       77.446        0.038      337.690        9.831      853.133
02/27/2014  11:23:00     -259.480     -116.651       -4.143      187.130      176.337       90.512    35017.473    31094.867     8192.433        7.761        3.715      284.495       77.735        0.075      337.797       10.011      853.157
02/27/2014  11:24:00     -340.988     -156.582       -0.747      237.312      139.947       76.872    56316.914    19585.087     5909.325       11.129        4.091      375.221       94.975        0.064      337.604        9.688      853.156
02/27/2014  11:25:00     -244.672     -218.384       -5.972      158.873      129.953       71.347    25240.694    16887.704     5090.389        7.740        2.361      327.958       79.822        0.059      337.521        9.549      853.145
02/27/2014  11:26:00     -378.214     -205.430      -18.874      200.426      145.214       81.922    40170.593    21087.059     6711.179       12.677        3.398      430.403       93.574        0.047      337.635        9.740      853.168
02/27/2014  11:27:00     -197.322     -139.995       -4.642      146.912      162.230       78.157    21583.012    26318.581     6108.583        5.627        2.701      241.939       76.290        0.099      337.792       10.003      853.212
02/27/2014  11:28:00     -159.292     -178.600       -3.058      157.395      172.079       74.826    24773.182    29611.313     5598.929        5.862        2.999      239.316       77.601        0.105      337.934       10.242      853.232
02/27/2014  11:29:00     -177.522     -252.127        2.896      151.579      150.217       57.563    22976.223    22565.103     3313.484        7.196        2.443      308.354       63.779        0.043      337.588        9.658      853.225
02/27/2014  11:30:00     -252.068     -185.801       -4.419      124.006      110.908       60.004    15377.493    12300.530     3600.432        6.467        1.564      313.146       51.046        0.027      337.640        9.747      853.201
02/27/2014  11:31:00     -246.761     -166.376        2.729      161.387      147.769       59.849    26045.631    21835.728     3581.871        7.001        2.573      297.610       69.931        0.055      337.690        9.833      853.197
02/27/2014  11:32:00     -275.290     -198.041      -13.525      162.326      128.022       61.838    26349.831    16389.713     3823.990        8.087        2.328      339.124       63.935        0.036      337.672        9.802      853.163
02/27/2014  11:33:00     -279.959     -160.572        4.206      166.847      132.950       76.350    27837.883    17675.576     5829.355        7.775        2.567      322.739       85.301        0.070      337.828       10.062      853.182
02/27/2014  11:34:00     -412.983     -169.701      -28.034      149.909      128.638       72.922    22472.754    16547.796     5317.561       12.223        2.217      446.490       72.346        0.026      337.695        9.839      853.221
02/27/2014  11:35:00     -215.699     -120.902        6.710      144.806      117.656       72.275    20968.770    13843.034     5223.679        5.060        2.002      247.272       82.242        0.111      337.899       10.183      853.248
02/27/2014  11:36:00     -334.374     -154.685        4.591      159.498      149.987       83.978    25439.503    22496.158     7052.370        9.536        2.749      368.420       76.861        0.044      337.747        9.926      853.249
02/27/2014  11:37:00     -357.829      -95.245       -7.217      206.536      139.280       83.667    42657.316    19398.879     7000.128       10.310        3.453      370.288       96.411        0.068      337.586        9.656      853.229
02/27/2014  11:38:00     -289.039      -59.023      -22.755      170.578      130.955       69.502    29096.933    17149.283     4830.501        6.930        2.554      295.003       64.188        0.047      337.698        9.845      853.229
02/27/2014  11:39:00     -368.662      -53.506      -14.822      151.924      133.985       73.821    23080.787    17951.851     5449.582        9.273        2.324      372.524       69.531        0.035      337.583        9.652      853.183
02/27/2014  11:40:00     -353.502     -225.940       -4.906      184.934      128.713       76.353    34200.580    16566.980     5829.809       11.631        2.830      419.538       74.801        0.032      337.782        9.985      853.149
02/27/2014  11:41:00     -187.103     -156.724       25.183      183.321      141.657      100.239    33606.707    20066.765    10047.927        6.195        3.186      244.070      109.961        0.203      337.822       10.053      853.134
02/27/2014  11:42:00     -369.201     -185.912       -0.153      185.715      135.997       79.465    34490.242    18495.115     6314.747       11.507        2.965      413.368       81.851        0.039      337.626        9.724      853.082
02/27/2014  11:43:00     -311.024     -168.027        2.190      180.839      184.226       86.357    32702.914    33939.305     7457.600        9.952        3.705      353.509       89.677        0.064      337.797       10.010      853.035
02/27/2014  11:44:00     -473.347     -175.558      -27.403      262.676      211.683       95.303    68998.442    44809.654     9082.674       18.924        6.145      504.855      121.421        0.058      337.736        9.906      853.044
02/27/2014  11:45:00     -416.897     -269.845       -4.816      226.987      208.809      106.693    51522.915    43601.076    11383.293       17.655        5.325      496.608      120.021        0.058      337.592        9.667      853.058
02/27/2014  11:46:00     -272.063     -228.199       11.823      208.592      161.636      102.183    43510.613    26126.130    10441.379       10.314        4.004      355.096      107.680        0.092      337.607        9.693      853.026
02/27/2014  11:47:00     -344.741     -209.854      -11.731      236.308      173.366      126.410    55841.661    30055.673    15979.565       13.243        5.094      403.590      127.142        0.099      337.769        9.964      852.988
02/27/2014  11:48:00     -416.722     -216.926        2.904      221.401      212.113       94.847    49018.501    44991.931     8996.024       16.184        5.150      469.802      115.278        0.060      337.591        9.664      853.086
02/27/2014  11:49:00     -252.544     -103.394        3.795      161.315      165.013       91.748    26022.638    27229.423     8417.750        6.806        3.083      272.890       83.624        0.094      337.632        9.735      853.130
02/27/2014  11:50:00     -231.645     -181.984       18.822      218.000      163.878       99.175    47524.067    26856.009     9835.622        8.566        4.211      294.581      113.999        0.150      337.663        9.785      853.058
02/27/2014  11:51:00     -314.405     -166.020       -2.450      169.071      124.974       69.848    28585.150    15618.376     4878.810        8.774        2.454      355.547       75.407        0.045      337.512        9.533      853.005
02/27/2014  11:52:00     -419.993     -166.907      -14.843      201.583      174.342       92.804    40635.748    30395.147     8612.635       14.204        3.982      451.943       91.080        0.041      337.549        9.596      852.988
02/27/2014  11:53:00     -459.428     -242.831       -6.456      214.124      186.196       92.473    45849.187    34668.814     8551.216       17.956        4.453      519.654      104.813        0.041      337.436        9.405      852.999
02/27/2014  11:54:00     -503.242     -299.083      -21.764      230.535      217.495      108.722    53146.534    47304.073    11820.491       22.770        5.614      585.409      107.786        0.034      337.392        9.330      852.982
02/27/2014  11:55:00     -553.613      -87.622      -29.236      173.957      258.089       85.366    30261.201    66610.115     7287.327       20.957        5.208      560.504       73.808        0.017      337.357        9.274      852.989
02/27/2014  11:56:00     -360.227      -89.638        8.000      220.132      151.911       76.365    48458.026    23077.090     5831.555       10.760        3.868      371.212       92.530        0.062      337.384        9.319      853.005
02/27/2014  11:57:00     -413.531     -176.392      -27.726      215.774      148.485       89.753    46558.588    22047.720     8055.689       13.976        3.833      449.579      106.966        0.057      337.427        9.390      852.987
02/27/2014  11:58:00     -461.719     -128.584      -23.191      226.504      202.599       89.714    51304.242    41046.496     8048.526       16.531        5.020      479.290       90.130        0.035      337.325        9.219      852.979
02/27/2014  11:59:00     -320.499     -264.516       -7.579      242.230      163.320      108.145    58675.134    26673.370    11695.347       13.488        4.852      415.558      128.001        0.095      337.348        9.258      852.968
02/27/2014  12:00:00     -232.792     -214.239        3.537      165.074      136.486       81.187    27249.353    18628.422     6591.277        7.628        2.623      316.371       94.536        0.089      337.578        9.642      852.929
02/27/2014  12:01:00     -473.141     -167.021      -14.367      267.539      155.039       97.670    71577.168    24037.124     9539.334       17.854        5.258      501.755      108.048        0.046      337.471        9.465      852.928
02/27/2014  12:02:00     -465.433     -109.564        4.428      194.423      156.039       86.379    37800.253    24348.311     7461.376       14.912        3.480      478.155       78.323        0.027      337.308        9.191      852.932
02/27/2014  12:03:00     -187.898     -166.419       12.879      135.534      106.213       68.327    18369.562    11281.255     4668.564        4.874        1.716      251.000       74.638        0.088      337.615        9.706      852.915
02/27/2014  12:04:00     -158.948     -121.337       13.894      123.787      100.561       70.937    15323.153    10112.584     5032.051        3.532        1.523      199.968       67.447        0.114      337.853       10.104      852.903
02/27/2014  12:05:00     -390.483     -145.125      -10.331      211.751      174.205       82.458    44838.371    30347.270     6799.292       12.780        4.099      416.579       96.741        0.054      337.696        9.841      852.879
02/27/2014  12:06:00     -420.015     -230.731      -17.136      191.954      145.868       87.750    36846.523    21277.492     7700.134       14.787        3.291      479.217       97.678        0.042      337.667        9.793      852.832
02/27/2014  12:07:00     -240.628     -128.897      -10.972      173.446      141.640       76.135    30083.590    20061.840     5796.586        6.528        2.797      272.976       80.004        0.086      337.925       10.224      852.808
02/27/2014  12:08:00     -444.005      -23.137      -20.975      215.965      155.834       81.804    46640.926    24284.237     6691.835       13.785        3.881      444.608       92.808        0.044      337.615        9.705      852.805
02/27/2014  12:09:00     -234.901     -106.033        4.232      150.301      107.142       65.777    22590.498    11479.464     4326.598        5.241        1.920      257.724       67.895        0.069      337.855       10.108      852.792
02/27/2014  12:10:00     -247.491     -148.611       -0.339      233.505      125.633       85.953    54524.750    15783.590     7387.858        8.050        3.885      288.681      114.084        0.156      337.773        9.971      852.774
02/27/2014  12:11:00     -229.191     -182.270       11.374      144.617      130.808       79.181    20914.013    17110.796     6269.575        6.508        2.215      292.833       83.900        0.082      337.905       10.193      852.761
02/27/2014  12:12:00     -480.053      -35.116      -36.081      217.299      151.504       74.637    47218.660    22953.582     5570.724       15.435        3.787      481.336       98.920        0.042      337.757        9.945      852.723
02/27/2014  12:13:00     -194.710     -199.502       -7.887      154.865      116.869       63.619    23983.020    13658.324     4047.319        5.972        2.084      278.770       63.112        0.051      337.852       10.103      852.725
02/27/2014  12:14:00     -279.404     -126.528       -3.292      151.004      133.929       69.080    22802.345    17937.075     4772.070        6.979        2.276      306.718       79.572        0.067      338.019       10.384      852.715
02/27/2014  12:15:00     -227.171     -122.616        8.418      226.741      184.731       90.286    51411.626    34125.416     8151.623        8.018        4.684      258.150       99.448        0.148      338.075       10.478      852.723
02/27/2014  12:16:00     -352.937     -166.558       -6.078      210.501      140.284       77.796    44310.861    19679.562     6052.287       11.118        3.502      390.265       95.533        0.060      337.705        9.856      852.728
02/27/2014  12:17:00     -544.913      -76.724      -20.208      192.418      180.408       90.124    37024.553    32546.932     8122.288       19.044        3.885      550.288       85.882        0.024      337.726        9.892      852.698
02/27/2014  12:18:00     -251.908     -186.032       12.150      212.947      167.710       91.310    45346.430    28126.529     8337.570        9.000        4.091      313.154      106.814        0.116      337.720        9.883      852.676
02/27/2014  12:19:00     -166.745      -28.735       -3.677      178.472      104.183       56.663    31852.302    10854.165     3210.721        3.727        2.296      169.203       83.568        0.244      338.093       10.510      852.649
02/27/2014  12:20:00     -116.104     -108.276       28.853      129.024       94.319       58.049    16647.282     8896.034     3369.726        2.747        1.446      158.758       67.024        0.178      337.975       10.310      852.664
02/27/2014  12:21:00      -93.952      -99.617       -2.250      124.367       77.680       53.071    15467.261     6034.132     2816.576        2.153        1.216      136.933       55.452        0.164      337.995       10.344      852.665
02/27/2014  12:22:00     -133.102     -110.233        5.574      119.124       75.889       44.543    14190.410     5759.209     1984.058        2.591        1.097      172.822       50.447        0.085      338.051       10.437      852.646
02/27/2014  12:23:00     -323.160     -156.693       -9.060      228.954      120.833       76.578    52419.987    14600.615     5864.243       10.096        3.644      359.145      103.639        0.083      338.085       10.494      852.605
02/27/2014  12:24:00     -248.969     -268.970      -14.727      157.882      125.955       79.387    24926.603    15864.619     6302.228        9.081        2.355      366.512       81.052        0.049      338.083       10.490      852.606
02/27/2014  12:25:00     -246.307     -197.608       -5.692      139.998      109.789       77.581    19599.408    12053.563     6018.859        6.870        1.884      315.779       55.851        0.031      337.996       10.345      852.577
02/27/2014  12:26:00     -231.175     -218.964       -6.381      174.526      119.905       74.381    30459.467    14377.299     5532.570        7.589        2.518      318.414       71.090        0.050      337.856       10.110      852.547
02/27/2014  12:27:00     -290.553     -310.637      -22.411      143.244      129.183       73.324    20518.827    16688.332     5376.346       11.199        2.129      425.343       76.701        0.033      337.685        9.822      852.556
02/27/2014  12:28:00     -207.117     -184.698        2.163      154.264      116.481       66.932    23797.332    13567.918     4479.927        5.942        2.092      277.509       64.111        0.053      338.036       10.411      852.548
02/27/2014  12:29:00     -344.712     -183.452      -23.668      192.932      123.274       78.520    37222.727    15196.416     6165.416       10.580        2.929      390.488       81.692        0.044      338.019       10.382      852.528
02/27/2014  12:30:00     -234.443      -91.828       -1.211      218.374       91.290       68.436    47687.010     8333.856     4683.553        6.204        3.035      251.785       93.847        0.139      338.089       10.501      852.556
02/27/2014  12:31:00     -230.837     -173.648       10.394      126.654      114.427       76.549    16041.251    13093.564     5859.763        5.926        1.750      288.858       74.763        0.067      338.142       10.588      852.572
02/27/2014  12:32:00     -332.925     -193.951      -13.701      166.465      116.815       73.288    27710.479    13645.701     5371.063        9.768        2.336      385.300       75.811        0.039      337.856       10.111      852.593
02/27/2014  12:33:00     -372.243     -155.330      -31.586      184.918      121.237       76.058    34194.773    14698.477     5784.751       10.917        2.734      403.351       79.079        0.038      338.198       10.683      852.612
02/27/2014  12:34:00     -178.989     -140.563       19.114      176.219      137.309       74.791    31053.082    18853.834     5593.730        5.382        2.775      227.585       77.337        0.115      338.228       10.733      852.615
02/27/2014  12:35:00     -268.621     -250.695      -14.558      164.050       90.525       72.964    26912.428     8194.796     5323.797        8.782        2.022      367.431       67.970        0.034      337.990       10.334      852.582
02/27/2014  12:36:00     -188.130     -137.999       12.665      114.328       79.646       60.831    13070.854     6343.502     3700.419        3.885        1.156      233.317       62.682        0.072      338.284       10.830      852.615
02/27/2014  12:37:00     -117.857     -189.642        3.207      137.975      113.612       64.195    19037.231    12907.716     4120.962        4.296        1.803      223.281       67.141        0.090      338.350       10.938      852.641
02/27/2014  12:38:00     -362.346     -273.581      -20.058      183.241      164.168       79.402    33577.176    26951.029     6304.705       13.668        3.342      454.028       85.257        0.035      338.267       10.800      852.630
02/27/2014  12:39:00     -258.341     -172.067        7.430      168.517      113.790       64.777    28398.119    12948.098     4196.012        7.096        2.277      310.398       56.966        0.034      338.293       10.844      852.698
02/27/2014  12:40:00     -216.985     -132.937        7.010      148.828      119.217       75.796    22149.832    14212.642     5745.061        5.345        2.105      254.469       55.571        0.048      338.582       11.329      852.698
02/27/2014  12:41:00     -259.243     -249.919      -38.421      104.619      173.559       73.772    10945.170    30122.623     5442.355        8.882        2.326      360.092       61.872        0.030      338.364       10.961      852.738
02/27/2014  12:42:00     -173.049     -137.122        5.798      147.182      108.317       52.298    21662.430    11732.640     2735.059        4.245        1.807      220.790       66.558        0.091      338.539       11.257      852.711
02/27/2014  12:43:00     -158.255     -105.330        0.243      139.285      109.492       54.987    19400.267    11988.464     3023.619        3.527        1.721      190.102       54.775        0.083      338.554       11.281      852.689
02/27/2014  12:44:00     -221.209     -203.494      -20.962      167.998      158.652       63.542    28223.490    25170.613     4037.528        7.410        2.872      300.571       68.377        0.052      338.417       11.052      852.698
02/27/2014  12:45:00     -151.356     -178.457       12.697      162.260      102.574       59.972    26328.198    10521.492     3596.627        4.767        2.022      233.999       54.039        0.053      338.431       11.075      852.748
02/27/2014  12:46:00     -140.509     -252.856        0.835      136.742      101.858       68.065    18698.349    10375.035     4632.783        5.869        1.685      289.273       70.565        0.060      338.548       11.272      852.719
02/27/2014  12:47:00     -104.606     -206.561       -7.084      107.241      118.812       65.701    11500.639    14116.194     4316.561        4.179        1.497      231.538       66.257        0.082      338.620       11.391      852.710
02/27/2014  12:48:00     -139.046     -138.596        9.087      176.237      174.810       75.693    31059.592    30558.463     5729.384        5.297        3.367      196.323       78.862        0.161      338.689       11.511      852.657
02/27/2014  12:49:00     -265.481      -49.433        1.027      191.017      138.090       77.835    36487.618    19068.778     6058.273        6.726        3.081      270.044       79.508        0.087      338.622       11.397      852.655
02/27/2014  12:50:00     -193.791     -111.555        8.092      120.488      130.928       66.920    14517.281    17142.157     4478.225        4.309        1.807      223.606       68.584        0.094      338.802       11.699      852.670
02/27/2014  12:51:00     -378.459     -238.795      -26.405      214.954      151.776       90.420    46205.250    23035.903     8175.804       13.917        3.871      447.498       87.952        0.039      338.187       10.664      852.699
02/27/2014  12:52:00     -405.313     -100.957        4.035      218.323      168.314       89.602    47664.753    28329.497     8028.466       12.924        4.201      417.697       92.847        0.049      338.262       10.790      852.715
02/27/2014  12:53:00     -492.310     -103.575      -13.157      164.135      138.322       69.356    26940.154    19132.994     4810.203       15.207        2.544      503.087       66.737        0.018      338.040       10.418      852.703
02/27/2014  12:54:00     -211.025     -124.711       -4.203      134.419      126.338       63.600    18068.390    15961.387     4045.017        4.908        1.904      245.121       62.204        0.064      338.238       10.752      852.661
02/27/2014  12:55:00     -248.188     -215.973      -25.856      213.141      119.408       72.241    45428.941    14258.336     5218.725        8.690        3.245      329.001       57.898        0.031      337.999       10.350      852.566
02/27/2014  12:56:00     -429.054     -267.589       -1.973      268.473      194.288      112.126    72077.573    37747.660    12572.189       18.902        6.120      505.659      117.874        0.054      337.976       10.310      852.588
02/27/2014  12:57:00     -238.070     -139.584        2.369      164.581      145.211       81.737    27086.989    21086.135     6680.946        6.550        2.743      275.973       86.642        0.099      338.164       10.626      852.630
02/27/2014  12:58:00     -218.539     -231.270       23.833      177.076      145.689       89.839    31355.767    21225.369     8071.003        8.122        3.033      318.190       89.255        0.079      338.152       10.607      852.653
02/27/2014  12:59:00     -262.240     -196.723       -0.520      223.642      134.153       89.234    50015.786    17996.932     7962.785        9.171        3.799      327.825      105.307        0.103      338.101       10.521      852.627
02/27/2014  13:00:00     -402.815     -250.458       -3.543      199.811      169.767       89.598    39924.500    28820.924     8027.752       15.087        3.839      474.330       94.744        0.040      338.236       10.748      852.627
02/27/2014  13:01:00     -330.319     -243.082       16.494      213.232      211.589       99.194    45467.985    44769.912     9839.516       13.425        5.004      410.121      107.444        0.069      338.155       10.611      852.619
02/27/2014  13:02:00     -301.237       43.878       -9.002      223.405      145.998       81.678    49909.629    21315.378     6671.271        8.531        3.895      304.416       95.040        0.097      338.334       10.913      852.607
02/27/2014  13:03:00     -346.605       66.318      -10.328      201.614      162.899       82.918    40648.050    26536.138     6875.467        9.934        3.703      352.892      100.532        0.081      338.384       10.996      852.570
02/27/2014  13:04:00     -355.450      -29.278      -17.348      211.179      154.019       83.661    44596.403    23721.828     6999.244       10.140        3.766      356.653      102.697        0.083      338.512       11.212      852.532
02/27/2014  13:05:00     -253.954     -149.797       -7.921      163.210      115.519       69.083    26637.583    13344.566     4772.495        6.587        2.238      294.842       63.874        0.047      338.254       10.777      852.550
02/27/2014  13:06:00     -429.518     -307.885      -14.393      280.852      203.284      119.805    78877.724    41324.442    14353.276       20.699        6.728      528.469      147.223        0.078      338.131       10.571      852.528
02/27/2014  13:07:00     -264.506     -187.073       -6.219      159.390      154.479       97.507    25405.275    23863.671     9507.659        8.188        2.939      323.975       97.739        0.091      338.346       10.933      852.503
02/27/2014  13:08:00     -377.873     -231.242        4.257      286.872      159.904      142.595    82295.465    25569.295    20333.213       16.221        6.410      443.014      172.916        0.152      338.279       10.820      852.489
02/27/2014  13:09:00     -692.911     -404.903      -36.510      346.218      244.823      133.984   119866.650    59938.139    17951.811       42.154        9.888      802.541      161.821        0.041      338.047       10.430      852.444
02/27/2014  13:10:00     -465.969     -239.464       13.303      303.806      246.095      115.965    92297.903    60562.899    13447.863       22.045        8.315      523.900      140.304        0.072      337.984       10.326      852.513
02/27/2014  13:11:00     -413.440      -85.042        1.343      232.395      167.536       78.316    54007.495    28068.460     6133.397       13.317        4.410      422.095       84.359        0.040      338.041       10.421      852.429
02/27/2014  13:12:00     -319.852     -149.781        1.120      146.449      139.880       74.960    21447.361    19566.379     5619.013        8.568        2.332      353.185       73.140        0.043      338.184       10.658      852.455
02/27/2014  13:13:00     -270.517     -102.864        4.264      178.929      150.437       77.262    32015.508    22631.368     5969.361        7.219        3.031      289.414       73.192        0.064      338.408       11.037      852.508
02/27/2014  13:14:00     -269.963     -137.955        3.456      156.491      175.744       78.295    24489.525    30886.098     6130.166        7.670        3.075      303.169       72.665        0.057      338.405       11.031      852.537
02/27/2014  13:15:00     -377.177     -199.873       -8.150      300.403      217.386       94.501    90242.056    47256.697     8930.401       16.432        7.321      426.863      135.580        0.101      338.424       11.063      852.549
02/27/2014  13:16:00     -496.846     -178.146      -40.261      206.904      178.656       80.308    42809.243    31917.799     6449.415       18.068        4.059      527.818       79.982        0.023      338.394       11.012      852.540
02/27/2014  13:17:00      -87.233     -128.788       23.075      178.672      133.506       89.703    31923.609    17823.790     8046.579        4.125        2.890      155.550      102.799        0.437      338.564       11.298      852.526
02/27/2014  13:18:00     -301.917     -189.450       -0.701      193.116      148.276       93.091    37293.651    21985.854     8665.898        9.748        3.397      356.434      105.621        0.088      338.570       11.309      852.534
02/27/2014  13:19:00     -305.100     -261.828       -3.814      224.835      204.480      113.962    50550.896    41812.073    12987.339       13.348        5.268      402.045      139.709        0.121      338.205       10.693      852.499
02/27/2014  13:20:00     -401.705     -260.552        1.926      248.197      155.511      109.805    61601.907    24183.751    12057.204       16.353        4.892      478.805      112.539        0.055      338.090       10.502      852.480
02/27/2014  13:21:00     -506.208      -70.643      -14.908      230.715      224.741      117.632    53229.484    50508.650    13837.276       18.949        5.879      511.114      115.685        0.051      338.237       10.749      852.462
02/27/2014  13:22:00     -350.524     -152.797       -0.099      275.949      178.050       97.415    76147.920    31701.931     9489.627       13.175        5.867      382.379      109.300        0.082      338.248       10.767      852.526
02/27/2014  13:23:00     -376.716     -104.508      -18.319      152.899      129.647       59.922    23378.238    16808.470     3590.648        9.847        2.189      390.944       49.158        0.016      338.136       10.581      852.549
02/27/2014  13:24:00     -228.077     -231.718      -10.524      205.034      151.696       91.304    42038.871    23011.766     8336.335        8.959        3.669      325.134      101.717        0.098      338.219       10.719      852.537
02/27/2014  13:25:00     -628.159     -193.123      -40.526      221.247      165.510       88.290    48950.349    27393.457     7795.182       25.881        4.207      657.176       91.332        0.019      338.094       10.509      852.525
02/27/2014  13:26:00     -402.480     -288.775        1.098      207.382      210.087      103.698    43007.305    44136.645    10753.246       17.162        4.895      495.360      111.346        0.051      338.243       10.760      852.480
02/27/2014  13:27:00     -587.219     -402.231      -28.321      242.881      205.495      115.438    58991.013    42228.291    13325.822       31.096        5.727      711.769      112.822        0.025      338.140       10.585      852.495
02/27/2014  13:28:00     -444.566     -335.917       -5.513      278.463      164.464      102.972    77541.488    27048.458    10603.322       21.283        5.760      557.207      117.322        0.044      338.184       10.659      852.492
02/27/2014  13:29:00     -512.163     -238.801      -17.211      241.079      222.427       98.616    58119.083    49473.741     9725.093       21.845        5.866      565.099      116.077        0.042      338.227       10.731      852.535
02/27/2014  13:30:00     -413.330     -163.104        1.636      231.938      193.743       95.180    53795.030    37536.390     9059.233       14.890        5.020      444.348       92.917        0.044      338.366       10.966      852.584
02/27/2014  13:31:00     -352.697     -129.589       -3.506      208.488      165.999       92.286    43467.210    27555.523     8516.793       11.035        3.977      375.751       81.482        0.047      338.501       11.193      852.571
02/27/2014  13:32:00     -262.334     -180.546        9.457      210.109      149.695      101.371    44145.656    22408.460    10276.073        8.915        3.842      318.459      107.847        0.115      338.546       11.269      852.527
02/27/2014  13:33:00     -450.232     -236.124      -30.993      228.357      200.173       91.627    52146.731    40069.178     8395.531       18.000        5.031      508.393       92.821        0.033      338.471       11.144      852.542
02/27/2014  13:34:00     -606.892     -261.968      -29.975      236.516      246.080      104.174    55939.997    60555.258    10852.150       28.257        6.367      661.019       96.958        0.022      338.353       10.943      852.578
02/27/2014  13:35:00     -337.973     -241.455       -1.386      247.872      180.194      100.632    61440.547    32470.014    10126.717       13.826        5.202      415.362      108.037        0.068      338.133       10.574      852.611
02/27/2014  13:36:00     -464.594     -294.976      -25.546      284.243      174.539      106.954    80794.361    30463.708    11439.261       21.308        6.135      550.326      108.694        0.039      338.153       10.609      852.538
02/27/2014  13:37:00     -322.094     -197.928      -12.269      138.907      132.527       71.478    19295.251    17563.472     5109.113        9.251        2.098      378.048       82.095        0.047      338.422       11.059      852.594
02/27/2014  13:38:00     -253.595     -186.536       11.639      207.702      146.382      101.374    43140.211    21427.727    10276.774        8.703        3.742      314.811      117.968        0.140      338.562       11.296      852.617
02/27/2014  13:39:00     -291.569     -130.666       -1.112      164.405      131.698       76.625    27029.030    17344.439     5871.361        7.616        2.512      319.509       79.157        0.061      338.653       11.447      852.618
02/27/2014  13:40:00     -203.760     -134.385       15.659      192.960      159.945       82.342    37233.670    25582.550     6780.271        6.470        3.480      244.085       75.957        0.097      338.636       11.419      852.659
02/27/2014  13:41:00     -282.427      -55.246       11.305      167.865      119.768       74.374    28178.737    14344.397     5531.500        6.549        2.403      287.780       83.275        0.084      338.531       11.243      852.667
02/27/2014  13:42:00     -323.660      -50.597        8.740      159.167      126.559       78.088    25334.258    16017.117     6097.731        7.741        2.372      327.591       84.433        0.066      338.612       11.379      852.655
02/27/2014  13:43:00     -347.331       -3.295      -21.466      165.287      133.636       81.590    27319.776    17858.596     6656.901        8.646        2.592      347.347       67.122        0.037      338.571       11.309      852.672
02/27/2014  13:44:00     -224.554     -113.232       11.799      199.784      123.971       73.892    39913.719    15368.842     5460.094        6.205        3.037      251.488       79.190        0.099      338.638       11.424      852.656
02/27/2014  13:45:00     -407.644     -188.845       -7.042      181.161      160.835       90.623    32819.451    25867.938     8212.618       13.438        3.345      449.262       84.916        0.036      338.383       10.993      852.637
02/27/2014  13:46:00     -381.854     -231.139      -31.507      231.672      164.788       87.174    53672.066    27154.938     7599.237       14.431        4.421      446.360      107.842        0.058      338.294       10.845      852.630
02/27/2014  13:47:00     -311.825      -93.373       -8.047      274.718      209.074      109.573    75469.776    43711.870    12006.283       11.858        6.559      325.505      129.213        0.158      338.515       11.217      852.642
02/27/2014  13:48:00     -504.614     -188.649      -22.099      185.857      145.036       81.506    34542.900    21035.477     6643.238       17.645        3.111      538.724       83.834        0.024      338.184       10.660      852.727
02/27/2014  13:49:00     -193.510      -68.044        0.696      168.357      104.858       69.523    28344.213    10995.138     4833.421        4.312        2.209      205.125       84.951        0.172      338.448       11.106      852.759
02/27/2014  13:50:00     -241.677     -132.944        8.981      237.288      149.081       93.379    56305.705    22225.203     8719.673        8.169        4.363      275.830      116.552        0.179      338.413       11.045      852.767
02/27/2014  13:51:00      -76.375      -33.853       33.337       82.739       88.489       52.976     6845.698     7830.359     2806.430        1.278        0.874       83.541       43.584        0.272      338.815       11.722      852.761
02/27/2014  13:52:00     -123.130     -152.777       13.977      127.905      118.652       60.533    16359.791    14078.229     3664.252        3.639        1.705      196.219       60.588        0.095      338.487       11.168      852.714
02/27/2014  13:53:00     -250.337      -80.008        1.326      110.506      115.463       62.138    12211.533    13331.715     3861.114        4.923        1.470      262.811       64.783        0.061      338.656       11.452      852.680
02/27/2014  13:54:00     -218.913     -180.150       19.601      188.635      148.249       86.153    35583.041    21977.725     7422.265        7.286        3.249      283.508       86.327        0.093      338.476       11.149      852.697
02/27/2014  13:55:00     -222.179     -150.134        3.084      188.673      132.615       78.337    35597.662    17586.750     6136.736        6.561        2.966      268.148       89.280        0.111      338.450       11.107      852.695
02/27/2014  13:56:00     -218.007     -262.597       21.491      172.481      182.171       86.513    29749.713    33186.289     7484.417        9.367        3.521      341.298       86.372        0.064      338.298       10.852      852.705
02/27/2014  13:57:00     -381.485     -216.939      -15.065      321.400      172.004      118.732   103298.190    29585.456    14097.252       16.987        7.349      438.855      145.133        0.109      338.386       10.999      852.716
02/27/2014  13:58:00     -508.706     -154.729      -13.188      235.872      238.185      108.677    55635.470    56732.220    11810.601       20.351        6.209      531.717      102.423        0.037      338.293       10.842      852.701
02/27/2014  13:59:00     -355.861     -178.440        1.448      217.491      171.800       95.897    47302.332    29515.336     9196.325       12.223        4.301      398.093       95.109        0.057      338.168       10.632      852.733
02/27/2014  14:00:00     -262.119     -105.588       -7.833      153.139      115.249       73.512    23451.479    13282.282     5404.033        6.102        2.107      282.586       70.541        0.062      338.414       11.044      852.712
02/27/2014  14:01:00     -304.135     -250.392       15.414      246.215      210.485      121.743    60621.936    44303.939    14821.343       13.757        5.987      393.947      143.530        0.133      338.446       11.099      852.700
02/27/2014  14:02:00     -527.845     -328.090      -13.150      203.446      142.382       92.783    41390.438    20272.673     8608.753       22.834        3.514      621.501       84.332        0.018      338.227       10.732      852.762
02/27/2014  14:03:00     -612.119     -137.177      -26.505      294.011      245.782      108.492    86442.390    60408.995    11770.423       27.638        7.931      627.301      133.107        0.045      338.198       10.684      852.800
02/27/2014  14:04:00     -599.342     -307.836      -20.845      329.682      259.693      111.593   108689.953    67440.246    12452.945       32.146        9.429      673.776      144.462        0.046      338.304       10.861      852.775
02/27/2014  14:05:00     -496.887     -164.663      -11.164      267.693      151.652       88.226    71659.478    22998.246     7783.913       18.827        5.122      523.460       99.960        0.036      338.300       10.855      852.758
02/27/2014  14:06:00     -236.587      -68.647        0.117      212.860      146.706       81.249    45309.300    21522.656     6601.425        6.704        3.672      246.344       90.157        0.134      338.649       11.442      852.750
02/27/2014  14:07:00     -417.848     -275.072      -10.420      314.488      218.737      109.746    98902.754    47845.670    12044.281       20.455        7.940      500.262      125.686        0.063      338.495       11.181      852.750
02/27/2014  14:08:00     -184.759     -192.587       -8.713      143.880      126.251       78.659    20701.455    15939.252     6187.175        5.706        2.141      266.881       76.412        0.082      338.386       10.999      852.740
02/27/2014  14:09:00     -304.558     -265.070       -8.239      181.560      200.837       81.257    32964.107    40335.584     6602.778       12.148        3.995      403.754       88.194        0.048      338.445       11.098      852.807
02/27/2014  14:10:00     -351.595     -259.924        8.719      219.806      157.451       90.384    48314.597    24790.661     8169.330       13.625        4.064      437.240       88.256        0.041      338.587       11.336      852.849
02/27/2014  14:11:00     -283.989     -187.602        9.765      195.807      140.387       86.490    38340.412    19708.554     7480.504        9.072        3.276      340.359       96.128        0.080      338.546       11.268      852.791
02/27/2014  14:12:00     -173.936     -169.270       34.198      220.224      164.880       90.179    48498.709    27185.461     8132.308        7.193        4.191      242.706      104.011        0.184      338.602       11.363      852.759
02/27/2014  14:13:00     -182.221     -187.968       21.007      242.644      215.657       96.797    58876.106    46508.130     9369.700        9.184        5.738      261.794       90.934        0.121      338.631       11.412      852.752
02/27/2014  14:14:00      -70.434     -254.956       20.287      172.293      190.183       82.932    29684.828    36169.494     6877.763        7.154        3.637      264.507       81.832        0.096      338.704       11.534      852.773
02/27/2014  14:15:00     -221.578     -372.404      -18.121      220.125      265.518      107.883    48455.027    70499.834    11638.659       15.933        6.530      433.338      102.613        0.056      338.457       11.118      852.789
02/27/2014  14:16:00     -211.643     -289.141      -18.990      145.394      161.198       77.388    21139.514    25984.867     5988.952        9.092        2.656      358.323       70.240        0.038      338.524       11.231      852.826
02/27/2014  14:17:00     -152.748     -281.934       -7.427      296.376      213.072      113.797    87838.755    45399.812    12949.855       12.450        7.309      320.654      119.594        0.139      338.618       11.390      852.808
02/27/2014  14:18:00      -65.981     -387.725      -12.512      249.453      254.211      106.883    62226.670    64623.291    11424.056       14.653        6.914      393.299       89.968        0.052      338.579       11.324      852.767
02/27/2014  14:19:00      -68.812     -448.198      -23.799      273.375      279.920      121.348    74734.054    78355.321    14725.321       18.697        8.391      453.450      114.677        0.064      338.376       10.982      852.774
02/27/2014  14:20:00     -267.807     -449.454      -19.388      200.936      248.146      101.036    40375.170    61576.226    10208.320       19.311        5.608      523.192      108.801        0.043      338.140       10.587      852.817
02/27/2014  14:21:00     -190.928     -304.626      -22.127      146.728      186.960       76.464    21529.225    34954.144     5846.735        9.602        3.117      359.514       72.457        0.041      338.323       10.893      852.795
02/27/2014  14:22:00     -151.893     -143.282       12.222      136.584      109.144       67.886    18655.106    11912.352     4608.522        3.946        1.759      208.809       63.020        0.091      338.590       11.343      852.818
02/27/2014  14:23:00     -308.514     -142.744       -5.306      220.057      108.617       59.806    48425.246    11797.732     3576.718        8.968        3.190      339.937       62.054        0.033      338.490       11.174      852.820
02/27/2014  14:24:00     -342.488     -144.822      -14.000      198.974      135.217       89.490    39590.621    18283.701     8008.427       10.216        3.294      371.849       97.949        0.069      338.449       11.105      852.797
02/27/2014  14:25:00     -241.021     -128.756       11.126      174.075      154.033       81.570    30302.022    23726.053     6653.639        6.773        3.034      273.257       87.517        0.103      338.720       11.560      852.781
02/27/2014  14:26:00     -181.226     -265.850       -1.425      137.750      129.205       56.000    18975.107    16693.970     3135.986        7.116        1.940      321.744       59.256        0.034      338.247       10.765      852.771
02/27/2014  14:27:00     -156.070     -267.408       -5.255      103.154      149.181       62.623    10640.714    22254.934     3921.622        6.635        1.841      309.620       49.475        0.026      338.529       11.239      852.781
02/27/2014  14:28:00      -65.885     -118.877        2.304      154.215      134.124       86.672    23782.241    17989.223     7511.982        3.387        2.464      135.914       58.644        0.186      338.790       11.679      852.736
02/27/2014  14:29:00     -193.005     -111.735       10.478      116.903       95.532       62.865    13666.288     9126.378     3952.037        3.829        1.337      223.015       57.602        0.067      338.974       11.988      852.783
02/27/2014  14:30:00     -242.220     -399.150       -0.252      147.574      170.105       84.574    21778.111    28935.840     7152.719       13.792        2.893      466.895       61.266        0.017      338.649       11.441      852.832
02/27/2014  14:31:00     -183.710     -255.661        7.519      167.409      190.151       76.487    28025.924    36157.265     5850.271        8.459        3.502      314.820       64.750        0.042      338.556       11.284      852.885
02/27/2014  14:32:00     -264.638     -266.161      -29.306      114.248      201.752       78.456    13052.517    40704.025     6155.392       10.081        2.996      375.333       47.701        0.016      338.452       11.110      852.842
02/27/2014  14:33:00     -267.861     -128.685        8.173      144.031      181.302       73.217    20744.822    32870.544     5360.745        7.366        2.949      297.169       67.094        0.051      338.612       11.378      852.846
02/27/2014  14:34:00     -104.893     -156.178        4.565       99.667      116.508       72.929     9933.509    13574.102     5318.628        3.211        1.441      188.133       60.721        0.104      338.737       11.588      852.828
02/27/2014  14:35:00     -275.190     -224.206       -5.502      180.353      131.587       78.539    32527.372    17315.117     6168.304        9.101        2.801      354.962       81.125        0.052      338.756       11.621      852.862
02/27/2014  14:36:00     -344.816     -133.931       -5.447      209.356      186.388       83.499    43830.105    34740.544     6972.047       11.119        4.277      369.913       89.687        0.059      338.661       11.462      852.854
02/27/2014  14:37:00     -454.641     -242.909       -3.465      245.487      164.017      109.615    60263.968    26901.560    12015.533       18.243        4.959      515.464      119.915        0.054      338.432       11.076      852.843
02/27/2014  14:38:00     -485.131     -316.292      -13.056      237.322      183.117      105.339    56321.850    33531.757    11096.350       21.824        5.047      579.131      112.498        0.038      338.423       11.060      852.902
02/27/2014  14:39:00     -290.484     -176.497       -5.893      204.143      131.232       78.431    41674.489    17221.723     6151.437        9.029        3.252      339.900       99.486        0.086      338.551       11.277      852.900
02/27/2014  14:40:00     -264.084     -105.399       -0.418      166.117      132.759       73.363    27594.827    17625.000     5382.102        6.572        2.530      284.340       72.486        0.065      338.713       11.549      852.918
02/27/2014  14:41:00     -219.082     -269.450        0.403      122.027      155.606       79.485    14890.650    24213.329     6317.842        8.300        2.271      347.276       73.005        0.044      338.591       11.343      852.954
02/27/2014  14:42:00     -168.386     -389.710       -9.047      197.643      189.498      105.968    39062.808    35909.516    11229.296       13.324        4.310      424.533       91.510        0.046      338.483       11.163      852.956
02/27/2014  14:43:00     -200.593     -270.277        6.525      205.529      221.562       87.369    42242.072    49089.654     7633.360       10.613        4.948      336.582       85.068        0.064      338.546       11.268      852.964
02/27/2014  14:44:00     -284.310     -248.273      -13.089      189.476      156.379       90.866    35901.124    24454.285     8256.600       10.561        3.431      377.454       88.311        0.055      338.577       11.319      852.922
02/27/2014  14:45:00     -275.830     -257.944       -0.513      169.561      140.229       78.930    28750.883    19664.088     6229.977        9.862        2.732      377.647       86.190        0.052      338.539       11.255      852.896
02/27/2014  14:46:00     -140.747     -181.964       28.334      181.365      133.006       69.541    32893.330    17690.695     4835.957        5.456        2.771      230.045       78.592        0.117      338.795       11.685      852.900
02/27/2014  14:47:00     -268.395      -16.287       24.782      222.859      136.757       93.872    49666.042    18702.347     8811.912        7.503        3.859      268.889      109.042        0.164      338.755       11.619      852.893
02/27/2014  14:48:00     -300.494     -137.769        9.768      231.849      115.259       68.912    53754.104    13284.703     4748.848        9.057        3.589      330.571       97.234        0.087      338.755       11.620      852.944
02/27/2014  14:49:00     -244.124     -355.297      -20.350      209.836      230.058       85.056    44030.974    52926.501     7234.546       14.520        5.210      431.083       92.445        0.046      338.587       11.337      852.923
02/27/2014  14:50:00     -157.860     -386.770       -7.921      129.732      141.385       83.011    16830.460    19989.789     6890.786       10.913        2.186      417.745       69.732        0.028      338.613       11.379      852.953
02/27/2014  14:51:00     -250.034     -273.522      -15.814      143.290      127.863       73.552    20531.888    16348.923     5409.952        8.993        2.115      370.582       69.188        0.035      338.599       11.356      852.941
02/27/2014  14:52:00     -259.300     -339.615       -4.129      169.335      194.779       81.377    28674.392    37939.017     6622.150       12.790        3.662      427.288       85.034        0.040      338.564       11.300      852.936
02/27/2014  14:53:00     -252.593     -162.073        2.170      186.861      168.175       87.305    34917.013    28282.874     7622.193        8.043        3.541      300.118       90.759        0.091      338.761       11.628      852.911
02/27/2014  14:54:00     -249.785     -188.586        5.677      208.815      152.704       90.448    43603.602    23318.410     8180.805        8.653        3.755      312.981      101.903        0.106      338.862       11.798      852.864
02/27/2014  14:55:00     -352.344     -143.676       10.281      206.913      165.762       93.144    42812.913    27477.090     8675.755       11.191        3.948      380.511       90.780        0.057      338.729       11.575      852.883
02/27/2014  14:56:00     -368.612     -276.236      -14.269      187.361      161.965       96.678    35104.087    26232.740     9346.620       14.152        3.534      460.631       82.148        0.032      338.432       11.076      852.817
02/27/2014  14:57:00     -352.417     -289.840        5.758      296.366      227.878      122.099    87832.559    51928.164    14908.219       18.142        7.733      456.295      129.091        0.080      338.455       11.116      852.807
02/27/2014  14:58:00     -276.514     -131.050        1.793      183.207      181.739       77.543    33564.748    33029.083     6012.885        8.311        3.630      305.997       80.820        0.070      338.519       11.223      852.782
02/27/2014  14:59:00     -455.942     -176.108       10.048      197.613      150.518       96.290    39050.818    22655.640     9271.814       15.497        3.549      488.771      100.192        0.042      338.659       11.456      852.779
02/27/2014  15:00:00     -290.362     -351.935       -4.691      356.799      214.905      121.776   127305.499    46184.043    14829.332       19.822        9.416      456.254      146.317        0.103      338.488       11.171      852.793
02/27/2014  15:01:00     -462.514     -307.623      -24.620      247.003      179.505       84.762    61010.509    32222.168     7184.581       20.477        5.021      555.474       89.024        0.026      338.387       11.002      852.812
02/27/2014  15:02:00     -241.703     -188.730       11.192      170.565      205.788       90.520    29092.416    42348.594     8193.921        8.688        3.982      306.658      102.012        0.111      338.450       11.108      852.806
02/27/2014  15:03:00     -265.320     -173.998      -13.066      261.225      148.485       83.784    68238.290    22047.754     7019.763        9.905        4.865      317.286      109.779        0.120      338.596       11.351      852.842
02/27/2014  15:04:00     -292.547      -73.934       15.260      191.902      147.790       98.189    36826.298    21841.813     9641.083        7.978        3.415      301.745      103.617        0.118      338.818       11.724      852.865
02/27/2014  15:05:00     -307.095      -96.471       -4.086      171.209      139.054       62.183    29312.627    19336.013     3866.747        7.806        2.626      321.891       66.675        0.043      338.450       11.106      852.902
02/27/2014  15:06:00     -230.582     -184.450        3.279      174.295      145.629       67.926    30378.900    21207.794     4613.911        7.169        2.810      295.279       74.026        0.063      338.571       11.310      852.939
02/27/2014  15:07:00     -321.719     -191.911      -10.861      193.185      147.103       75.547    37320.362    21639.163     5707.291       10.255        3.233      374.611       91.111        0.059      338.513       11.213      852.948
02/27/2014  15:08:00     -154.070     -181.130      -16.849      130.356      135.867       54.144    16992.563    18459.742     2931.573        4.760        1.919      237.793       52.907        0.050      338.542       11.262      852.955
02/27/2014  15:09:00     -255.783     -214.163       -7.662      221.892      126.803       73.814    49235.936    16078.904     5448.525        9.104        3.538      333.603       68.661        0.042      338.691       11.511      853.040
02/27/2014  15:10:00     -245.258     -156.870        3.415      192.357      137.119       84.063    37001.076    18801.485     7066.541        7.381        3.143      291.135       79.561        0.075      338.611       11.377      853.026
02/27/2014  15:11:00     -195.904     -342.927        3.016      172.854      140.873       75.619    29878.630    19845.064     5718.273       10.570        2.772      394.940       74.196        0.035      338.296       10.847      853.046
02/27/2014  15:12:00     -195.670      -80.009        2.829      105.116       79.041       51.030    11049.443     6247.416     2604.037        3.229        0.995      211.396       40.603        0.037      338.620       11.392      852.994
02/27/2014  15:13:00      -62.473      -52.639        6.504       98.792       97.812       44.659     9759.857     9567.150     1994.388        1.401        1.066       81.693       37.500        0.211      338.678       11.492      852.938
02/27/2014  15:14:00       -2.970     -240.864       19.592      129.731      126.454       73.537    16830.224    15990.517     5407.733        4.831        1.911      240.882       62.741        0.068      338.672       11.479      852.933
02/27/2014  15:15:00     -446.103     -219.764      -17.938      240.533      183.226       73.430    57856.145    33571.781     5391.927       17.220        4.841      497.297       90.987        0.033      338.362       10.960      852.942
02/27/2014  15:16:00     -393.869      -86.225      -12.792      233.808      127.251       69.798    54666.075    16192.814     4871.772       11.922        3.787      403.196       87.460        0.047      338.285       10.830      852.921
02/27/2014  15:17:00     -194.982      -99.169        9.584      178.376      108.050       57.763    31817.826    11674.739     3336.597        4.738        2.341      218.752       64.112        0.086      338.573       11.313      852.954
02/27/2014  15:18:00     -268.890      -91.101       -5.159      152.375      120.089       62.464    23218.124    14421.452     3901.808        6.108        2.077      283.903       74.717        0.069      338.606       11.369      852.958
02/27/2014  15:19:00     -111.686     -175.180       -0.694      102.495       90.165       54.280    10505.313     8129.708     2946.283        3.237        1.079      207.754       48.567        0.055      338.752       11.615      852.978
02/27/2014  15:20:00     -150.337     -172.863        1.041      118.624      145.246       59.815    14071.736    21096.451     3577.788        4.561        1.937      229.091       69.979        0.093      338.575       11.318      852.979
02/27/2014  15:21:00     -241.338     -104.327        0.381      148.291      135.756       72.877    21990.215    18429.676     5311.016        5.742        2.287      262.922       62.479        0.056      338.559       11.291      852.993
02/27/2014  15:22:00     -120.812     -113.457        3.370      130.985      122.569       50.481    17157.025    15023.114     2548.328        3.110        1.736      165.735       59.223        0.128      338.709       11.543      852.974
02/27/2014  15:23:00      -76.719      -75.824        7.935      187.730       79.442       53.726    35242.586     6310.991     2886.474        2.806        2.222      107.866       47.267        0.192      339.025       12.074      853.003
02/27/2014  15:24:00     -188.970     -153.398      -10.989      118.483       99.994       53.550    14038.266     9998.763     2867.624        4.313        1.345      243.394       56.634        0.054      338.696       11.520      853.057
02/27/2014  15:25:00     -286.110     -173.438      -17.046      120.727      108.739       49.090    14575.105    11824.062     2409.798        7.051        1.440      334.574       43.121        0.017      338.442       11.093      853.100
02/27/2014  15:26:00     -207.468      -84.748      -10.449       69.845       72.928       44.832     4878.357     5318.456     2009.917        3.127        0.610      224.110       34.669        0.024      338.378       10.985      853.143
02/27/2014  15:27:00      -62.346     -122.929       13.147       99.243       91.317       47.933     9849.169     8338.821     2297.599        1.982        1.024      137.835       55.743        0.164      338.729       11.577      853.196
02/27/2014  15:28:00       24.434     -143.983        1.811      135.324      111.266       52.209    18312.717    12380.106     2725.802        2.737        1.671      146.041       38.789        0.071      338.548       11.271      853.170
02/27/2014  15:29:00     -289.379      -66.756       -4.066      171.005      114.969       70.757    29242.856    13217.826     5006.492        6.783        2.373      296.979       79.847        0.072      338.464       11.131      853.163
02/27/2014  15:30:00     -171.800      -62.543        4.685      191.796       89.012       50.683    36785.530     7923.125     2568.813        4.035        2.364      182.830       40.526        0.049      338.567       11.304      853.217
02/27/2014  15:31:00     -294.169      -55.644      -12.054      117.978      103.637       57.271    13918.769    10740.710     3279.930        5.885        1.397      299.385       61.021        0.042      338.222       10.724      853.247
02/27/2014  15:32:00      -85.618     -105.950        6.074       45.958       57.462       34.102     2112.117     3301.851     1162.937        1.258        0.329      136.220       27.494        0.041      338.262       10.796      853.249
02/27/2014  15:33:00     -138.760      -75.912       17.404      154.830      104.851       52.947    23972.455    10993.787     2803.391        3.154        1.888      158.167       64.925        0.168      338.712       11.549      853.219
02/27/2014  15:34:00     -175.328     -170.617       -4.414      112.142       91.723       48.732    12575.834     8413.088     2374.793        4.161        1.168      244.643       44.626        0.033      338.212       10.707      853.253
02/27/2014  15:35:00     -367.033      -82.725      -26.476      230.073      142.152       81.914    52933.791    20207.136     6709.929       11.104        3.993      376.240      101.366        0.073      338.730       11.578      853.216
02/27/2014  15:36:00     -222.801     -150.300      -10.658      141.475      124.206       63.179    20015.290    15427.141     3991.544        5.588        1.972      268.757       61.660        0.053      338.609       11.376      853.217
02/27/2014  15:37:00      -61.981      -68.948       17.936      108.282      104.136       58.178    11725.091    10844.394     3384.650        1.743        1.298       92.712       56.656        0.373      338.827       11.744      853.189
02/27/2014  15:38:00     -282.615      -75.991        9.932      209.444      105.297       62.678    43866.659    11087.464     3928.564        7.230        2.944      292.653       50.905        0.030      338.610       11.376      853.186
02/27/2014  15:39:00     -278.679     -108.079       -9.224      145.029      115.136       59.599    21033.358    13256.265     3552.094        6.363        1.892      298.903       49.757        0.028      338.589       11.340      853.163
02/27/2014  15:40:00     -268.265     -124.231        1.306      203.231      131.835       90.799    41302.646    17380.488     8244.429        7.715        3.346      295.634      112.250        0.144      338.587       11.335      853.133
02/27/2014  15:41:00     -182.460     -371.567       -4.284      225.513      155.715       82.544    50856.315    24247.054     6813.492       12.663        4.096      413.949       65.520        0.025      338.380       10.989      853.185
02/27/2014  15:42:00     -218.987     -148.455       10.902      169.488      113.921       78.504    28726.273    12978.056     6162.919        5.898        2.393      264.564       79.385        0.090      338.578       11.322      853.168
02/27/2014  15:43:00     -225.306     -149.609       -5.482      194.895      109.566       66.070    37984.248    12004.703     4365.287        6.375        2.718      270.454       81.307        0.090      338.634       11.415      853.204
02/27/2014  15:44:00     -299.900     -179.794      -28.532      128.513      106.393       53.253    16515.588    11319.380     2835.904        7.687        1.534      349.665       51.207        0.021      338.626       11.402      853.196
02/27/2014  15:45:00     -114.364     -177.582        0.763      103.516       98.408       49.668    10715.648     9684.108     2466.939        3.374        1.143      211.222       54.446        0.066      338.692       11.514      853.204
02/27/2014  15:46:00     -207.484     -153.733       -9.933      133.190      126.903       64.959    17739.547    16104.316     4219.676        5.242        1.903      258.231       67.943        0.069      338.637       11.422      853.219
02/27/2014  15:47:00     -214.173     -132.298        8.586      160.751      154.174       79.682    25840.811    23769.737     6349.222        5.969        2.798      251.740       90.100        0.128      338.568       11.303      853.217
02/27/2014  15:48:00     -342.216     -214.086       -2.674      187.173      148.907       82.215    35033.812    22173.255     6759.254       11.345        3.198      403.664       81.940        0.041      338.519       11.222      853.235
02/27/2014  15:49:00     -156.243     -154.459      -11.640      212.248      111.668       76.413    45049.002    12469.650     5838.899        5.587        3.168      219.703       53.269        0.059      338.551       11.277      853.249
02/27/2014  15:50:00     -304.017     -183.305      -26.723      184.846      113.901       72.459    34167.930    12973.535     5250.305        8.956        2.620      355.003       76.294        0.046      338.491       11.174      853.239
02/27/2014  15:51:00     -462.791     -134.604       -9.219      202.453      187.607       92.429    40987.237    35196.447     8543.030       15.854        4.236      481.969      102.488        0.045      338.443       11.094      853.319
02/27/2014  15:52:00     -302.027     -190.212      -11.253      239.899      159.344       94.683    57551.724    25390.485     8964.916       10.970        4.595      356.932      110.292        0.095      338.332       10.907      853.281
02/27/2014  15:53:00     -566.216     -297.342       -2.589      319.586      263.260      136.657   102134.897    69305.663    18675.122       29.953        9.506      639.541      160.834        0.063      338.206       10.697      853.122
02/27/2014  15:54:00     -645.077     -508.848      -34.554      299.765      261.941      135.359    89859.305    68613.218    18322.113       42.648        8.840      821.615      146.971        0.032      338.026       10.393      853.119
02/27/2014  15:55:00     -642.771     -400.448      -17.152      366.755      293.859      139.833   134509.453    86352.889    19553.284       40.706       12.021      757.306      177.889        0.055      338.158       10.617      853.208
02/27/2014  15:56:00     -602.936     -275.334      -19.090      268.788      197.773      110.729    72247.179    39114.067    12260.964       28.164        6.181      662.828      132.367        0.040      338.130       10.568      853.276
02/27/2014  15:57:00     -518.812      -96.899       -5.542      235.509      169.590      108.222    55464.526    28760.819    11712.062       18.724        4.797      527.783      116.071        0.048      338.249       10.769      853.279
02/27/2014  15:58:00     -337.692     -246.738       -5.547      224.952      210.272       94.367    50603.554    44214.442     8905.152       13.931        5.186      418.229      114.037        0.074      338.235       10.745      853.285
02/27/2014  15:59:00     -340.545     -227.396        3.407      210.329      155.069       81.945    44238.226    24046.281     6714.965       12.133        3.750      409.487       97.691        0.057      338.261       10.790      853.242
02/27/2014  16:00:00     -362.507     -172.704      -11.077      203.369      212.630       89.340    41358.943    45211.471     7981.706       12.794        4.728      401.545      102.368        0.065      338.467       11.136      853.214
02/27/2014  16:01:00     -447.033     -295.956       -2.995      306.116      279.725      138.965    93707.169    78246.063    19311.145       23.931        9.563      536.124      171.349        0.102      338.259       10.786      853.181
02/27/2014  16:02:00     -416.768     -192.906      -11.743      274.331      233.470      102.685    75257.355    54508.193    10544.249       17.565        7.015      459.248      120.297        0.069      338.190       10.671      853.225
02/27/2014  16:03:00     -472.226     -226.471      -11.870      253.655      198.498      103.824    64340.614    39401.361    10779.452       19.445        5.726      523.724      108.380        0.043      338.152       10.606      853.300
02/27/2014  16:04:00     -435.226     -208.591       -7.228      264.380      236.734      100.114    69896.779    56042.961    10022.880       18.445        6.798      482.630      111.703        0.054      338.136       10.579      853.314
02/27/2014  16:05:00     -342.577     -206.419      -23.753      144.952      175.887       75.929    21011.205    30936.095     5765.254       10.911        2.886      399.960       72.914        0.033      338.147       10.598      853.383
02/27/2014  16:06:00     -439.989     -159.690       -7.378      251.653      200.775      107.141    63329.073    40310.606    11479.201       16.711        5.756      468.072      130.771        0.078      338.282       10.824      853.344
02/27/2014  16:07:00     -312.861     -124.834       13.351      230.425      160.078       88.716    53095.858    25624.999     7870.453       10.010        4.330      336.846       99.875        0.088      338.372       10.975      853.368
02/27/2014  16:08:00     -545.389     -220.448      -26.968      239.032      216.372      109.075    57136.304    46816.723    11897.353       23.129        5.793      588.257      118.353        0.040      338.186       10.664      853.305
02/27/2014  16:09:00     -680.675     -477.316      -22.563      326.164      269.771      148.945   106382.981    72776.151    22184.644       44.646       10.067      831.353      167.638        0.041      338.024       10.389      853.324
02/27/2014  16:10:00     -454.807     -329.402      -13.082      206.144      159.869       94.095    42495.462    25558.178     8853.947       19.620        3.845      561.565       88.879        0.025      337.771        9.965      853.506
02/27/2014  16:11:00     -340.649     -162.365       -2.772      186.148      167.648       74.304    34651.257    28105.750     5521.038       10.533        3.414      377.364       77.160        0.042      337.929       10.229      853.508
02/27/2014  16:12:00     -318.608     -111.989      -10.485      191.791      151.319       75.168    36783.971    22897.573     5650.195        8.973        3.267      337.716       92.185        0.075      337.937       10.246      853.463
02/27/2014  16:13:00     -325.488     -131.286       -8.069      169.141      119.334       84.366    28608.812    14240.545     7117.631        8.660        2.498      350.968       84.784        0.058      337.954       10.274      853.450
02/27/2014  16:14:00     -536.874      -79.554        2.364      196.601      155.474       87.338    38652.096    24172.034     7627.904       18.250        3.523      542.736       90.533        0.028      337.953       10.272      853.475
02/27/2014  16:15:00     -526.502      -31.521      -23.179      235.022      148.412       83.766    55235.204    22026.050     7016.789       18.149        4.214      527.444      103.434        0.038      338.005       10.359      853.490
02/27/2014  16:16:00     -617.895     -185.321      -10.033      231.496      167.273       94.581    53590.475    27980.239     8945.645       25.336        4.526      645.088      104.417        0.026      337.896       10.175      853.480
02/27/2014  16:17:00     -567.497     -157.782      -36.095      231.204      167.904       81.272    53455.412    28191.919     6605.161       21.823        4.413      589.023       78.932        0.018      337.931       10.235      853.510
02/27/2014  16:18:00     -490.945      -45.545      -22.477      138.504      142.993       80.296    19183.389    20446.956     6447.480       14.483        2.304      493.053       70.984        0.021      338.033       10.406      853.522
02/27/2014  16:19:00     -547.018     -309.031      -20.958      257.554      252.757      121.596    66333.834    63885.935    14785.595       27.006        7.250      628.274      128.322        0.042      337.899       10.181      853.540
02/27/2014  16:20:00     -585.654     -288.435      -24.198      281.736      205.731      112.574    79375.060    42325.306    12672.923       28.055        6.719      652.829      129.969        0.040      337.800       10.016      853.531
02/27/2014  16:21:00     -552.939     -350.313      -22.681      218.487      193.548       97.284    47736.685    37460.749     9464.120       26.180        4.733      654.569      112.987        0.030      337.782        9.986      853.583
02/27/2014  16:22:00     -512.155     -253.247      -27.259      222.525      204.230      104.062    49517.209    41709.793    10828.968       21.460        5.103      571.346      115.478        0.041      337.736        9.909      853.576
02/27/2014  16:23:00     -280.247      -97.891       13.856      227.535      183.228      103.546    51772.054    33572.390    10721.715        9.217        4.803      296.852      116.776        0.155      337.875       10.142      853.562
02/27/2014  16:24:00     -162.235      -69.208       20.290      192.553      146.089       86.246    37076.578    21342.106     7438.447        4.868        3.293      176.380       87.975        0.249      338.123       10.557      853.513
02/27/2014  16:25:00     -369.111     -211.912      -23.848      251.647      224.027      119.788    63326.136    50188.204    14349.277       15.477        6.393      425.617      124.208        0.085      337.892       10.169      853.496
02/27/2014  16:26:00     -607.690     -115.810       -5.187      375.366      209.456      114.516   140899.414    43871.903    13113.826       29.027        9.894      618.626      129.389        0.044      337.690        9.830      853.478
02/27/2014  16:27:00     -489.290      -56.210      -13.037      244.028      175.444       97.097    59549.570    30780.673     9427.895       17.123        4.988      492.508      105.584        0.046      337.723        9.887      853.455
02/27/2014  16:28:00     -650.770     -177.663      -41.030      283.922      228.186      110.261    80611.435    52068.675    12157.404       30.076        7.242      674.586      126.923        0.035      337.694        9.838      853.361
02/27/2014  16:29:00     -550.408     -225.289       -1.680      267.328      225.269      109.945    71464.184    50745.922    12088.012       24.398        6.715      594.730      134.548        0.051      337.757        9.944      853.302
02/27/2014  16:30:00     -544.135      -83.639      -19.695      210.771      182.136       90.931    44424.356    33173.557     8268.362       19.465        4.293      550.526       81.001        0.022      337.789        9.999      853.370
02/27/2014  16:31:00     -478.901     -105.187       -6.544      283.921      192.756      112.801    80611.009    37154.904    12724.033       18.545        6.524      490.317      128.441        0.069      337.740        9.914      853.363
02/27/2014  16:32:00     -279.942     -133.385       38.330      258.043      212.028      113.494    66586.027    44956.044    12880.794       11.100        6.221      310.096      136.189        0.193      337.863       10.122      853.311
02/27/2014  16:33:00     -295.113     -154.185       12.134      195.274      165.853      109.985    38131.996    27507.352    12096.593        9.436        3.887      332.964       91.674        0.076      337.856       10.110      853.349
02/27/2014  16:34:00     -536.838     -319.826      -27.735      321.470      225.000      135.225   103342.826    50624.963    18285.797       28.172        8.613      624.887      144.060        0.053      337.585        9.656      853.345
02/27/2014  16:35:00     -699.095     -143.938      -42.140      280.752      245.553      123.331    78821.586    60296.202    15210.597       33.275        7.716      713.759      126.373        0.031      337.542        9.582      853.278
02/27/2014  16:36:00     -407.882     -204.775      -10.885      255.922      194.742      104.225    65496.203    37924.418    10862.944       16.133        5.714      456.400      131.019        0.082      337.636        9.740      853.356
02/27/2014  16:37:00     -458.683     -284.191      -13.605      321.962      235.285      130.913   103659.739    55359.254    17138.116       23.371        8.808      539.587      155.538        0.083      337.643        9.752      853.306
02/27/2014  16:38:00     -483.610     -206.243      -13.080      288.361      256.950      117.574    83152.220    66023.069    13823.710       21.976        8.150      525.752      124.351        0.056      337.706        9.858      853.344
02/27/2014  16:39:00     -599.671     -336.676      -18.499      271.385      188.500      119.191    73650.019    35532.352    14206.540       29.832        6.169      687.718      122.886        0.032      337.640        9.747      853.378
02/27/2014  16:40:00     -251.383     -182.556       39.522      298.172      240.526      130.912    88906.833    57852.519    17137.897       13.096        8.195      310.677      137.311        0.195      337.819       10.049      853.379
02/27/2014  16:41:00     -411.803     -271.946      -19.573      265.912      217.753      122.573    70709.053    47416.540    15024.251       18.851        6.657      493.494      123.030        0.062      337.755        9.939      853.364
02/27/2014  16:42:00     -446.589     -244.550      -12.085      273.964      190.918      120.182    75056.527    36449.633    14443.742       19.265        6.297      509.163      129.836        0.065      337.633        9.736      853.412
02/27/2014  16:43:00     -732.678     -272.651      -15.511      371.652      251.803      133.993   138125.462    63404.635    17954.163       41.540       10.974      781.765      162.669        0.043      337.543        9.584      853.360
02/27/2014  16:44:00     -617.983     -298.881      -31.714      297.498      257.752      114.258    88504.958    66436.280    13054.867       32.008        8.400      686.464      108.733        0.025      337.431        9.397      853.388
02/27/2014  16:45:00     -532.459     -340.109      -25.590      369.955      234.231      144.784   136867.017    54863.935    20962.307       30.623       10.635      631.813      158.232        0.063      337.443        9.418      853.364
02/27/2014  16:46:00     -575.810     -306.960       -9.140      272.395      240.464      114.811    74198.986    57822.856    13181.556       28.551        7.260      652.520      133.224        0.042      337.379        9.309      853.412
02/27/2014  16:47:00     -526.276     -311.275      -21.423      184.719      214.178       92.039    34120.936    45872.263     8471.259       23.137        4.423      611.440       84.152        0.019      337.348        9.258      853.413
02/27/2014  16:48:00     -257.636     -132.814       11.670      189.610      167.770       92.955    35951.816    28146.643     8640.694        7.843        3.637      289.855      102.616        0.125      337.566        9.624      853.435
02/27/2014  16:49:00     -494.637     -154.551      -29.390      231.949      173.820       98.701    53800.334    30213.368     9741.811       18.157        4.688      518.220      109.231        0.044      337.421        9.380      853.382
02/27/2014  16:50:00     -445.861     -176.326      -10.667      261.354      213.392      113.125    68305.965    45536.159    12797.236       17.829        6.332      479.461      113.254        0.056      337.544        9.585      853.347
02/27/2014  16:51:00     -421.262     -254.047       16.446      292.733      209.108      136.680    85692.625    43726.266    18681.354       19.516        7.405      491.937      165.906        0.114      337.403        9.350      853.361
02/27/2014  16:52:00     -632.489     -213.851      -32.389      301.306      226.639      101.400    90785.314    51365.373    10282.010       29.960        7.622      667.663      125.524        0.035      337.296        9.172      853.345
02/27/2014  16:53:00     -711.396     -186.582      -21.832      277.666      232.072      113.362    77098.322    53857.331    12850.925       34.256        7.190      735.457      136.050        0.034      337.238        9.074      853.346
02/27/2014  16:54:00     -468.864     -153.148      -14.795      172.285      177.525       90.924    29682.178    31515.078     8267.121       15.647        3.473      493.242       94.687        0.037      337.316        9.205      853.357
02/27/2014  16:55:00     -437.689     -176.211      -16.775      224.851      168.428       98.947    50557.842    28367.973     9790.558       15.579        4.436      471.828      107.504        0.052      337.397        9.340      853.289
02/27/2014  16:56:00     -501.233     -270.436      -14.249      199.308      178.589      104.969    39723.588    31893.941    11018.545       20.359        4.132      569.535       91.440        0.026      337.262        9.115      853.276
02/27/2014  16:57:00     -283.734     -138.104        9.119      278.525      209.561      118.421    77575.938    43915.748    14023.510       11.756        6.776      315.559      132.344        0.176      337.345        9.253      853.234
02/27/2014  16:58:00     -363.219     -158.454        1.154      255.877      225.967      118.247    65473.116    51060.928    13982.246       14.375        6.526      396.278      134.913        0.116      337.217        9.039      853.239
02/27/2014  16:59:00     -333.348     -139.096       -5.469      221.326      173.930       98.928    48985.126    30251.797     9786.702       10.974        4.451      361.204       97.497        0.073      337.139        8.908      853.239
02/27/2014  17:00:00     -554.262     -194.821      -38.033      248.649      201.687       98.264    61826.507    40677.555     9655.818       22.936        5.608      587.504      115.301        0.039      337.057        8.771      853.209
02/27/2014  17:01:00     -478.511      -78.551      -26.029      267.270      189.640       96.466    71433.271    35963.232     9305.704       17.624        5.835      484.915       91.145        0.035      337.104        8.850      853.227
02/27/2014  17:02:00     -506.044     -135.976      -15.295      256.991      203.269      109.981    66044.405    41318.329    12095.928       19.711        5.973      523.994      112.424        0.046      337.009        8.690      853.231
02/27/2014  17:03:00     -450.684     -183.338      -15.211      271.918      205.369      105.370    73939.550    42176.499    11102.813       18.206        6.361      486.547      109.868        0.051      337.025        8.716      853.252
02/27/2014  17:04:00     -450.055      -51.447       -8.505      222.046      183.415       99.410    49304.547    33641.207     9882.409       14.903        4.641      452.986      112.475        0.062      337.046        8.754      853.252
02/27/2014  17:05:00     -478.832      -25.709       -4.002      285.084      197.379      107.050    81273.072    38958.481    11459.726       18.080        6.585      479.522      112.715        0.055      336.997        8.671      853.238
02/27/2014  17:06:00     -578.861      -65.905       -5.404      241.756      175.669      105.903    58445.815    30859.620    11215.510       21.997        5.026      582.601      117.117        0.040      336.894        8.497      853.220
02/27/2014  17:07:00     -559.415      -82.614      -32.908      241.071      190.074       87.838    58115.144    36128.089     7715.471       21.139        5.098      565.483      104.532        0.034      336.872        8.462      853.231
02/27/2014  17:08:00     -426.315      -48.579       -9.221      263.639      162.809       93.935    69505.463    26506.762     8823.771       14.449        5.242      429.074      124.398        0.084      336.950        8.593      853.227
02/27/2014  17:09:00     -455.401     -185.324      -23.203      203.042      151.830       88.519    41225.855    23052.363     7835.656       15.718        3.606      491.666       80.240        0.027      336.905        8.517      853.293
02/27/2014  17:10:00     -350.003      -76.005       -4.512      227.563      169.808       91.750    51784.949    28834.848     8418.029       10.865        4.452      358.161       95.831        0.072      336.924        8.548      853.273
02/27/2014  17:11:00     -355.896      -45.840        4.453      302.713      137.663       99.437    91635.260    18950.966     9887.666       12.460        6.024      358.836      126.974        0.125      336.942        8.579      853.258
02/27/2014  17:12:00     -523.352      -84.509       -3.797      365.530      160.046      109.015   133612.530    25614.880    11884.264       22.605        8.556      530.131      141.946        0.072      336.846        8.418      853.261
02/27/2014  17:13:00     -305.735      -98.810       20.083      255.533      206.038      124.305    65297.060    42451.852    15451.841       11.340        6.160      321.306      130.824        0.166      336.921        8.544      853.201
02/27/2014  17:14:00     -497.179     -165.722      -23.245      262.215      254.068      107.293    68756.453    64550.785    11511.830       20.998        7.241      524.071      120.547        0.053      336.833        8.396      853.210
02/27/2014  17:15:00     -524.238     -103.823      -32.462      263.652      202.983       97.992    69512.623    41202.286     9602.503       20.346        6.016      534.420      123.085        0.053      336.862        8.444      853.179
02/27/2014  17:16:00     -380.043     -107.273       -0.594      227.320      221.853      110.651    51674.520    49218.752    12243.707       13.452        5.657      394.893      125.466        0.101      336.933        8.562      853.181
02/27/2014  17:17:00     -253.404      -73.039        6.183      254.767      154.155      109.162    64906.466    23763.893    11916.425        8.507        5.029      263.720      117.777        0.199      336.929        8.557      853.214
02/27/2014  17:18:00     -333.742      -39.954       -0.453      220.170      195.265      101.200    48474.904    38128.348    10241.489       10.489        4.842      336.125       99.480        0.088      336.908        8.521      853.291
02/27/2014  17:19:00     -371.098     -338.459        8.828      243.649      246.738      120.376    59364.667    60879.820    14490.286       19.351        6.737      502.263      121.373        0.058      336.892        8.493      853.261
02/27/2014  17:20:00     -427.192     -205.872       -2.748      251.145      224.050      104.875    63073.604    50198.520    10998.863       17.455        6.214      474.211      121.435        0.066      336.903        8.514      853.274
02/27/2014  17:21:00     -316.805     -213.155      -12.813      250.418      177.519      108.757    62709.362    31512.889    11828.051       12.599        5.303      381.838      117.454        0.095      336.863        8.447      853.313
02/27/2014  17:22:00     -401.285      -53.299      -17.785      212.248      206.048       90.606    45049.052    42455.679     8209.443       12.993        4.786      404.809       83.371        0.042      336.846        8.419      853.359
02/27/2014  17:23:00     -196.844      -72.576       -5.923      170.783      157.608       80.793    29166.726    24840.236     6527.542        5.228        3.027      209.798       81.305        0.150      336.943        8.582      853.413
02/27/2014  17:24:00     -477.639     -256.587      -23.935      242.683      210.794       92.910    58895.214    44434.052     8632.282       20.323        5.598      542.195       99.341        0.034      336.913        8.529      853.433
02/27/2014  17:25:00      -80.793     -120.753       -2.027      161.993      177.831       95.045    26241.748    31623.726     9033.595        4.399        3.345      145.288       40.156        0.076      337.015        8.701      853.475
02/27/2014  17:26:00     -190.363     -247.752       16.367      217.570      173.056       87.851    47336.645    29948.415     7717.880        9.143        4.250      312.440       79.880        0.065      336.926        8.553      853.428
02/27/2014  17:27:00       58.220      -90.746       64.779      121.769      133.747       77.004    14827.698    17888.317     5929.635        2.723        1.932      107.816       77.049        0.511      336.995        8.667      853.492
02/27/2014  17:28:00      -29.848      -29.425       27.371       90.219       91.840       61.563     8139.551     8434.579     3790.002        1.143        1.018       41.913       51.884        1.532      337.033        8.734      853.541
02/27/2014  17:29:00      116.568      -83.554       43.981      102.171      179.861       93.702    10438.819    32349.865     8780.019        3.703        2.578      143.421      119.896        0.699      337.018        8.704      853.606
02/27/2014  17:30:00       67.666     -135.091        9.354       51.402      119.660       60.123     2642.141    14318.416     3614.770        2.174        1.029      151.090       70.427        0.217      337.049        8.759      853.646
02/27/2014  17:31:00        1.281      -37.061       40.740       54.194      104.947       77.177     2936.981    11013.889     5956.275        1.147        0.995       37.083       79.572        4.604      337.065        8.786      853.631
02/27/2014  17:32:00      117.743     -134.727       19.150       96.744      114.939       73.987     9359.479    13211.085     5474.132        3.021        1.402      178.927       73.664        0.169      337.086        8.818      853.766
02/27/2014  17:33:00      159.256     -176.215        5.013       82.891      114.506       58.558     6870.949    13111.601     3429.068        3.992        1.171      237.516       63.239        0.071      337.102        8.847      853.797
02/27/2014  17:34:00       31.263      -65.088        3.764       43.712       75.575       25.992     1910.763     5711.530      675.608        0.676        0.415       72.207       24.200        0.112      337.060        8.778      853.851
02/27/2014  17:35:00       29.517      -46.012       36.506       46.497       88.190       40.903     2161.999     7777.453     1673.088        0.796        0.581       54.666       38.035        0.484      337.078        8.808      853.865
02/27/2014  17:36:00        6.745      -64.272       48.297       62.122      122.054       63.984     3859.114    14897.190     4093.950        1.468        1.143       64.625       77.174        1.426      337.167        8.958      853.900
02/27/2014  17:37:00      150.030      -93.956       35.398      103.280       91.654       63.810    10666.715     8400.544     4071.676        2.786        1.157      177.021       65.332        0.136      337.094        8.834      853.914
02/27/2014  17:38:00     -110.740      -24.733       33.138      117.493       95.920       54.277    13804.720     9200.670     2945.974        1.996        1.298      113.469       65.109        0.329      337.167        8.956      853.931
02/27/2014  17:39:00     -125.164     -119.031       -5.873       96.600       58.296       45.803     9331.562     3398.402     2097.948        2.235        0.741      172.727       35.353        0.042      337.072        8.797      853.935
02/27/2014  17:40:00      -40.905      -13.296       28.354       53.868       62.398       36.184     2901.731     3893.497     1309.310        0.538        0.405       43.012        9.187        0.046      337.175        8.971      853.893
02/27/2014  17:41:00      -22.981      -49.863       64.605       65.976      130.127       80.450     4352.805    16932.941     6472.128        1.747        1.388       54.904       88.489        2.598      337.233        9.067      853.867
02/27/2014  17:42:00      110.557     -204.061        1.195      140.281      158.382       92.393    19678.684    25084.814     8536.448        5.357        2.665      232.086       87.080        0.141      337.065        8.784      853.880
02/27/2014  17:43:00      145.995     -114.006       35.932      142.766      158.548      108.668    20382.140    25137.563    11808.674        4.645        2.866      185.235      133.141        0.517      337.126        8.887      853.863
02/27/2014  17:44:00       67.006      -55.660       81.745       84.858      160.405       97.859     7200.953    25729.699     9576.435        2.838        2.125       87.108      101.475        1.357      337.184        8.985      853.793
02/27/2014  17:45:00      152.937      -92.635       74.355      146.520      217.051      144.416    21468.240    47110.996    20855.857        6.345        4.472      178.804      157.859        0.779      337.142        8.913      853.755
02/27/2014  17:46:00      -24.111       33.436       88.671       40.886       97.337       68.987     1671.691     9474.487     4759.219        1.273        0.795       41.222       68.484        2.760      337.132        8.898      853.742
02/27/2014  17:47:00       63.221      -99.847       25.524       61.176       88.711       64.428     3742.532     7869.659     4150.919        1.519        0.788      118.179       66.605        0.318      337.188        8.994      853.748
02/27/2014  17:48:00       61.510     -152.733       -0.503       74.857       95.835       43.857     5603.604     9184.442     1923.474        2.191        0.836      164.654       51.799        0.099      337.285        9.156      853.735
02/27/2014  17:49:00      130.810     -204.900       18.839      102.962      133.585       98.145    10601.131    17845.037     9632.507        4.876        1.904      243.095       87.493        0.130      337.005        8.685      853.692
02/27/2014  17:50:00       36.231     -154.900       18.590       87.053       89.993       40.796     7578.167     8098.766     1664.332        2.149        0.867      159.080       35.638        0.050      337.154        8.935      853.687
02/27/2014  17:51:00      186.976     -157.574       -2.215      175.674      255.191      106.861    30861.453    65122.209    11419.254        8.358        5.370      244.519      133.924        0.300      336.976        8.636      853.608
02/27/2014  17:52:00      179.524     -129.680       61.239      170.454      252.969      154.020    29054.578    63993.278    23722.264        8.476        5.839      221.462      176.571        0.636      336.909        8.524      853.561
02/27/2014  17:53:00      198.698      -47.957      105.505      139.798      202.857      128.260    19543.461    41151.151    16450.745        6.501        3.857      204.403      140.279        0.471      336.871        8.461      853.602
02/27/2014  17:54:00       63.321       68.185      145.339      109.546      148.630       91.546    12000.291    22090.804     8380.634        3.612        2.124       93.052       93.233        1.004      336.914        8.532      853.667
02/27/2014  17:55:00       46.350       80.944       95.619      104.055      107.430       86.261    10827.428    11541.176     7440.906        2.382        1.490       93.275       75.582        0.657      336.940        8.576      853.697
02/27/2014  17:56:00      218.213      169.051      150.489      181.227      141.542      138.054    32843.155    20034.254    19058.775        8.537        3.597      276.034      125.505        0.207      336.859        8.441      853.679
02/27/2014  17:57:00      133.608      259.616      225.508      115.674      124.108       93.872    13380.360    15402.876     8812.013        8.684        1.880      291.979       90.882        0.097      336.888        8.488      853.690
02/27/2014  17:58:00       47.589       95.175      141.590      105.062      137.333       87.123    11037.957    18860.287     7590.364        3.442        1.874      106.409       97.653        0.842      336.973        8.631      853.745
02/27/2014  17:59:00       16.035      -89.077        2.796       58.057       54.523       55.898     3370.572     2972.796     3124.573        0.883        0.473       90.509       17.773        0.039      336.997        8.672      853.794
02/27/2014  18:00:00      -64.659      -18.881       -3.718       62.386       42.565       34.062     3892.045     1811.788     1160.225        0.571        0.343       67.359       23.706        0.124      337.100        8.847      853.776
02/27/2014  18:01:00     -144.153      -35.774       -1.541       59.171       55.110       31.338     3501.191     3037.098      982.047        1.479        0.376      148.526       28.927        0.038      337.125        8.887      853.746
02/27/2014  18:02:00     -121.726       57.163      -17.157       54.961       81.401       29.056     3020.763     6626.127      844.231        1.443        0.525      134.479       29.125        0.047      337.122        8.884      853.748
02/27/2014  18:03:00        2.113       47.565        9.643       32.725       30.571       24.068     1070.917      934.608      579.264        0.247        0.129       47.612       19.854        0.174      337.054        8.768      853.754
02/27/2014  18:04:00       32.412       21.137       47.403       43.955       63.965       40.295     1932.034     4091.493     1623.669        0.569        0.382       38.695       29.033        0.563      337.049        8.759      853.778
02/27/2014  18:05:00       45.527        6.382      110.601       98.046      163.370      104.598     9612.970    26689.794    10940.776        3.079        2.362       45.973      124.040        7.280      336.980        8.643      853.773
02/27/2014  18:06:00       48.608     -134.416       39.669      114.381      169.992      107.437    13083.021    28897.341    11542.631        3.775        2.676      142.935      101.641        0.506      337.007        8.688      853.788
02/27/2014  18:07:00       11.587      -18.941       37.633       43.150       58.571       55.214     1861.905     3430.573     3048.579        0.512        0.417       22.204       39.598        3.180      336.957        8.607      853.824
02/27/2014  18:08:00      134.061     -252.409        9.770      172.541      161.064      140.338    29770.318    25941.667    19694.687        7.858        3.770      285.802      118.682        0.172      336.982        8.645      853.793
02/27/2014  18:09:00       34.574     -119.638      -10.424      118.469       87.643       38.386    14034.796     7681.286     1473.517        1.940        1.159      124.534       21.049        0.029      336.999        8.675      853.905
02/27/2014  18:10:00      -59.988      -10.683       14.208       58.124       51.994       31.960     3378.358     2703.386     1021.422        0.551        0.355       60.932       23.056        0.143      337.044        8.751      853.946
02/27/2014  18:11:00       35.663       69.371       20.392       65.093       40.911       74.897     4237.108     1673.735     5609.486        0.901        0.576       78.001       40.381        0.268      336.997        8.674      853.971
02/27/2014  18:12:00       79.208       49.949       63.770       65.715       70.858       77.513     4318.497     5020.880     6008.316        1.409        0.767       93.642       71.354        0.581      336.887        8.490      853.980
02/27/2014  18:13:00       82.402      -34.703       54.912       85.073      124.716       83.235     7237.404    15554.046     6928.113        2.036        1.486       89.411       95.320        1.137      336.823        8.382      853.983
02/27/2014  18:14:00       42.919       85.027      140.686       91.595      121.410       71.774     8389.719    14740.275     5151.481        2.857        1.414       95.246       81.400        0.730      336.813        8.363      853.974
02/27/2014  18:15:00       68.122       19.659       83.356      104.998      112.811       75.334    11024.594    12726.286     5675.178        2.069        1.471       70.902       82.802        1.364      336.815        8.368      853.991
02/27/2014  18:16:00       45.426        0.784        2.424       49.108       57.593       41.069     2411.630     3316.987     1686.659        0.474        0.371       45.433       32.942        0.526      336.831        8.396      854.041
02/27/2014  18:17:00       27.007       29.975       26.987       41.427       38.938       26.606     1716.224     1516.140      707.903        0.315        0.197       40.347       23.263        0.332      336.771        8.296      854.097
02/27/2014  18:18:00       38.363       39.302        0.576       31.861       24.798       28.232     1015.106      614.931      797.038        0.272        0.121       54.921       16.429        0.089      336.761        8.280      854.125
02/27/2014  18:19:00      176.899       88.275        8.087       72.896       48.740       44.023     5313.868     2375.553     1937.987        2.439        0.481      197.701       31.219        0.025      336.767        8.287      854.129
02/27/2014  18:20:00      138.486       84.719        1.554       42.935       34.537       30.665     1843.453     1192.815      940.320        1.517        0.199      162.344       12.461        0.006      336.707        8.191      854.123
02/27/2014  18:21:00       93.924       82.492       48.825       51.101       35.188       40.750     2611.360     1238.200     1660.539        1.176        0.276      125.007       30.958        0.061      336.703        8.184      854.113
02/27/2014  18:22:00       -2.764       14.392       12.715       44.695       34.604       22.245     1997.627     1197.411      494.823        0.203        0.184       14.655        7.215        0.242      336.691        8.165      854.129
02/27/2014  18:23:00       -6.244       43.484       52.032       26.234       39.413       36.422      688.215     1553.394     1326.526        0.410        0.178       43.930       29.573        0.453      336.683        8.151      854.118
02/27/2014  18:24:00       26.521        6.744      -13.269       39.607       71.344       22.183     1568.747     5089.915      492.078        0.404        0.358       27.365       25.223        0.850      336.736        8.240      854.095
02/27/2014  18:25:00       18.326       15.499       -5.685       26.795       21.284       22.983      717.999      453.014      528.202        0.115        0.085       24.001       17.484        0.531      336.697        8.173      854.081
02/27/2014  18:26:00       -1.779       24.147        2.136       24.010       20.339       30.006      576.460      413.667      900.332        0.124        0.095       24.212       11.398        0.222      336.683        8.151      854.084
02/27/2014  18:27:00      -16.096        2.990        9.361       19.973       15.603       15.681      398.915      243.468      245.900        0.062        0.044       16.371       13.860        0.717      336.707        8.191      854.092
02/27/2014  18:28:00       -6.834        5.105       12.355       32.199       12.796       13.531     1036.774      163.730      183.090        0.080        0.069        8.530       17.402        4.162      336.723        8.218      854.080
02/27/2014  18:29:00      -23.298        4.992       31.211       51.741       54.669       36.798     2677.123     2988.655     1354.114        0.428        0.351       23.827       23.194        0.948      336.725        8.219      854.050
02/27/2014  18:30:00     -203.846      -58.976       -5.093       70.073       51.853       31.974     4910.203     2688.779     1022.332        2.684        0.431      212.206       32.029        0.023      336.729        8.225      854.041
02/27/2014  18:31:00     -170.682      -39.517       -9.100      101.882       60.182       38.769    10379.846     3621.883     1503.009        2.314        0.775      175.197       43.422        0.061      336.532        7.896      854.013
02/27/2014  18:32:00     -124.637      -48.462       -8.836       56.095       60.328       32.572     3146.626     3639.409     1060.925        1.290        0.392      133.727       26.173        0.038      336.637        8.073      853.990
02/27/2014  18:33:00     -147.501     -101.208        0.387       80.022       48.379       40.904     6403.518     2340.500     1673.165        2.121        0.521      178.885       40.223        0.051      336.495        7.834      853.991
02/27/2014  18:34:00     -116.804      -20.680       -9.459      106.178       85.307       43.653    11273.766     7277.241     1905.570        1.730        1.023      118.620       50.925        0.184      336.568        7.956      853.990
02/27/2014  18:35:00     -131.589      -40.355       -1.070       54.718       78.142       35.168     2994.070     6106.212     1236.777        1.464        0.517      137.638       31.103        0.051      336.578        7.972      853.995
02/27/2014  18:36:00     -217.838     -101.887        0.869       87.169       74.138       41.896     7598.473     5496.450     1755.238        3.634        0.743      240.487       44.471        0.034      336.538        7.903      853.993
02/27/2014  18:37:00     -260.705       57.467      -28.936       87.772       65.958       37.136     7703.939     4350.475     1379.114        4.277        0.672      266.964       32.069        0.014      336.485        7.816      854.003
02/27/2014  18:38:00     -114.984      -56.904       18.924      128.801       81.146       54.548    16589.592     6584.630     2975.499        2.148        1.307      128.294       68.468        0.285      336.477        7.802      854.003
02/27/2014  18:39:00     -123.737      -82.174       -7.320       50.175       73.000       29.917     2517.539     5328.980      895.013        1.543        0.437      148.537       25.918        0.030      336.493        7.830      853.986
02/27/2014  18:40:00     -179.059      -38.760       -0.523       60.595       50.478       38.817     3671.737     2548.030     1506.770        2.064        0.386      183.206       32.999        0.032      336.577        7.972      853.976
02/27/2014  18:41:00     -349.160      -80.172      -27.329      182.311       83.952       48.478    33237.230     7047.969     2350.098        8.585        2.132      358.246       62.047        0.030      336.458        7.768      853.956
02/27/2014  18:42:00     -235.126     -161.968      -12.832      132.329       94.913       63.335    17510.860     9008.435     4011.381        5.610        1.527      285.513       62.495        0.048      336.407        7.683      853.883
02/27/2014  18:43:00     -176.214      -88.115       -4.571      101.487       91.579       48.335    10299.672     8386.675     2336.309        2.993        1.051      197.017       54.797        0.077      336.422        7.709      853.863
02/27/2014  18:44:00     -272.252     -135.802      -17.645      101.002       90.541       47.878    10201.412     8197.608     2292.275        5.678        1.035      304.242       47.707        0.025      336.395        7.664      853.855
02/27/2014  18:45:00     -244.274      -21.239       -7.565      100.548       74.848       46.161    10109.908     5602.276     2130.834        3.901        0.892      245.196       51.641        0.044      336.514        7.865      853.852
02/27/2014  18:46:00     -239.231      -82.816       -3.669       99.049       78.849       44.667     9810.767     6217.174     1995.112        4.106        0.901      253.160       52.630        0.043      336.368        7.617      853.874
02/27/2014  18:47:00     -221.749      -20.742       -5.817       93.613       60.358       44.717     8763.452     3643.083     1999.634        3.202        0.720      222.717       45.250        0.041      336.425        7.715      853.900
02/27/2014  18:48:00     -130.889      -97.235       -0.932      121.279      106.972       73.064    14708.702    11443.025     5338.403        2.903        1.575      163.054       60.316        0.137      336.369        7.622      853.907
02/27/2014  18:49:00     -327.692     -115.404      -22.612      108.662      113.210       56.741    11807.515    12816.487     3219.535        7.452        1.392      347.419       53.512        0.024      336.345        7.581      853.924
02/27/2014  18:50:00     -367.770     -108.509      -16.828      156.468      104.895       71.215    24482.347    11002.946     5071.609        9.393        2.028      383.444       56.134        0.021      336.340        7.572      853.927
02/27/2014  18:51:00     -187.781      -40.105        6.165      147.909      109.014       73.696    21877.086    11884.016     5431.115        3.804        1.960      192.015       84.742        0.195      336.407        7.685      853.905
02/27/2014  18:52:00     -233.466     -102.191       -2.584      150.287      137.282       51.223    22586.186    18846.356     2623.842        5.450        2.203      254.851       63.829        0.063      336.373        7.627      853.879
02/27/2014  18:53:00     -284.687      -31.862       -5.244      180.226      120.729       66.086    32481.515    14575.417     4367.303        6.675        2.571      286.464       77.795        0.074      336.370        7.623      853.876
02/27/2014  18:54:00     -240.548      -63.882      -18.415      106.582       75.279       44.077    11359.748     5666.957     1942.794        4.062        0.948      248.886       21.395        0.007      336.369        7.621      853.896
02/27/2014  18:55:00     -178.860      -23.107       -7.660      159.032       65.669       45.094    25291.257     4312.431     2033.505        3.210        1.582      180.346       48.047        0.071      336.369        7.623      853.903
02/27/2014  18:56:00     -307.146       -4.509       -5.815      165.481      116.084       61.443    27383.872    13475.402     3775.189        6.950        2.232      307.179       68.292        0.049      336.334        7.562      853.896
02/27/2014  18:57:00     -321.584      -12.712      -15.601      134.929      101.584       52.983    18205.865    10319.310     2807.230        6.757        1.567      321.835       55.567        0.030      336.323        7.544      853.882
02/27/2014  18:58:00     -227.093      -63.671       -2.164      121.923       67.858       43.233    14865.299     4604.738     1869.077        3.848        1.067      235.851       49.528        0.044      336.285        7.481      853.869
02/27/2014  18:59:00      -65.426      -83.077       20.591      100.672       97.873       54.719    10134.753     9579.189     2994.157        1.715        1.135      105.746       60.573        0.328      336.301        7.510      853.853
02/27/2014  19:00:00     -165.781     -110.485        7.181      131.443      110.075       50.204    17277.279    12116.595     2520.444        3.582        1.596      199.224       55.794        0.078      336.270        7.458      853.867
02/27/2014  19:01:00      -96.056      -93.503       20.501      155.983       83.213       68.486    24330.702     6924.417     4690.340        2.716        1.797      134.050       59.101        0.194      336.256        7.434      853.861
02/27/2014  19:02:00     -244.740     -171.059      -16.266      125.161       88.894       59.480    15665.401     7902.200     3537.847        5.826        1.355      298.595       64.263        0.046      336.273        7.460      853.871
02/27/2014  19:03:00     -216.306     -167.864       -1.463      163.075      104.693       69.202    26593.571    10960.652     4788.983        5.865        2.117      273.801       74.978        0.075      336.282        7.476      853.879
02/27/2014  19:04:00     -172.597      -91.753       -2.030       70.045       89.777       45.025     4906.266     8059.941     2027.223        2.660        0.750      195.469       31.737        0.026      336.262        7.441      853.906
02/27/2014  19:05:00      -74.686      -95.179        4.261      119.389       84.119       58.019    14253.702     7076.023     3366.219        1.967        1.235      120.984       59.477        0.242      336.339        7.572      853.921
02/27/2014  19:06:00     -246.731     -174.585      -11.607      105.934      119.387       58.659    11221.944    14253.223     3440.913        6.020        1.446      302.252       65.208        0.047      336.308        7.519      853.954
02/27/2014  19:07:00     -106.346      -90.524       18.606      131.859       90.537       60.143    17386.722     8196.942     3617.210        2.452        1.460      139.657       67.284        0.232      336.293        7.494      853.948
02/27/2014  19:08:00     -234.579      -74.783      -11.254      104.791       71.265       44.619    10981.128     5078.650     1990.818        3.939        0.903      246.210       37.347        0.023      336.282        7.475      853.945
02/27/2014  19:09:00     -117.189      -46.091       -5.685       59.968       63.089       34.415     3596.201     3980.216     1184.394        1.232        0.438      125.927       26.968        0.046      336.261        7.443      853.957
02/27/2014  19:10:00     -105.474      -97.058       -0.508       56.648       51.420       32.040     3208.994     2644.014     1026.592        1.371        0.344      143.336       27.262        0.036      336.273        7.463      853.937
02/27/2014  19:11:00     -257.545     -100.181      -26.901      107.004      100.359       49.215    11449.947    10071.943     2422.146        5.051        1.197      276.344       51.079        0.034      336.284        7.478      853.928
02/27/2014  19:12:00     -132.478      -71.030      -12.897       69.934       60.366       40.446     4890.699     3644.075     1635.895        1.646        0.509      150.318       11.608        0.006      336.289        7.488      853.924
02/27/2014  19:13:00     -129.158     -131.487        2.996       78.027       72.590       46.457     6088.163     5269.351     2158.271        2.375        0.676      184.312       47.095        0.065      336.247        7.418      853.924
02/27/2014  19:14:00      -78.350     -114.027       -3.029       84.731       87.084       50.065     7179.387     7583.644     2506.542        1.821        0.863      138.351       37.588        0.074      336.276        7.467      853.903
02/27/2014  19:15:00      -94.347       -1.965       -4.917       59.819       43.273       28.433     3578.308     1872.537      808.430        0.759        0.313       94.367       21.293        0.051      336.265        7.451      853.914
02/27/2014  19:16:00     -109.102      -89.598        3.400       69.182       65.549       39.027     4786.120     4296.660     1523.141        1.527        0.530      141.178       37.117        0.069      336.288        7.488      853.930
02/27/2014  19:17:00     -116.745      -35.655       -0.417       69.275       53.460       30.063     4799.083     2857.952      903.770        1.173        0.428      122.068       32.211        0.070      336.255        7.435      853.934
02/27/2014  19:18:00      -85.996      -52.207      -14.643       52.919       52.735       31.912     2800.414     2780.987     1018.383        0.847        0.330      100.603       28.119        0.078      336.292        7.496      853.947
02/27/2014  19:19:00      -25.512     -136.254        3.127       51.067       68.989       36.350     2607.883     4759.438     1321.351        1.396        0.434      138.621       24.821        0.032      336.331        7.561      853.953
02/27/2014  19:20:00      -82.523      -76.391        7.891       69.475       67.831       37.175     4826.823     4601.099     1381.954        1.176        0.540      112.453       32.583        0.084      336.283        7.478      853.983
02/27/2014  19:21:00     -136.581      -83.591      -14.515      114.987       46.476       37.167    13221.938     2160.010     1381.374        2.130        0.838      160.131       51.850        0.105      336.292        7.494      853.986
02/27/2014  19:22:00     -120.214     -115.814        1.347       87.258       50.521       38.630     7613.956     2552.393     1492.292        1.976        0.583      166.926       36.339        0.047      336.284        7.480      853.998
02/27/2014  19:23:00     -106.198      -82.095       -0.397       70.526       45.049       38.614     4973.973     2029.374     1491.031        1.325        0.425      134.230       42.421        0.100      336.282        7.478      853.997
02/27/2014  19:24:00      -74.113      -86.110       -5.997       49.360       41.453       28.718     2436.373     1718.362      824.736        0.896        0.249      113.612       21.557        0.036      336.314        7.533      854.005
02/27/2014  19:25:00     -193.616     -123.707      -17.511       88.190       54.085       32.271     7777.451     2925.159     1041.431        3.242        0.587      229.762       29.963        0.017      336.270        7.457      854.001
02/27/2014  19:26:00     -119.762     -127.573        1.523       83.125       82.843       36.729     6909.733     6862.888     1349.039        2.287        0.756      174.980       38.442        0.048      336.278        7.470      854.000
02/27/2014  19:27:00     -137.024      -89.386       -1.387       86.174       54.086       40.195     7425.938     2925.256     1615.676        1.936        0.598      163.602       33.474        0.042      336.272        7.460      853.979
02/27/2014  19:28:00     -165.304     -152.622        9.141       88.494       89.993       48.855     7831.181     8098.703     2386.796        3.451        0.916      224.986       49.309        0.048      336.272        7.458      853.960
02/27/2014  19:29:00     -253.542     -168.843       -6.668      120.963       72.030       55.609    14631.979     5188.343     3092.310        5.787        1.146      304.617       60.290        0.039      336.226        7.382      853.930
02/27/2014  19:30:00     -186.333     -124.233       -4.180       82.683       56.712       38.462     6836.474     3216.226     1479.359        3.085        0.577      223.951       37.167        0.028      336.238        7.402      853.915
02/27/2014  19:31:00     -174.943     -129.377       12.796      111.854       76.530       50.682    12511.294     5856.803     2568.671        3.422        1.047      217.585       56.883        0.068      336.213        7.361      853.895
02/27/2014  19:32:00     -183.198     -157.724       -5.605      132.402       97.163       47.275    17530.299     9440.714     2234.893        4.383        1.460      241.740       58.330        0.058      336.222        7.377      853.864
02/27/2014  19:33:00     -115.968     -106.743        1.997       68.233       54.423       36.587     4655.677     2961.831     1338.610        1.690        0.448      157.615       25.470        0.026      336.266        7.451      853.831
02/27/2014  19:34:00     -158.092      -99.848       -1.123       50.645       51.432       35.021     2564.951     2645.234     1226.450        2.070        0.322      186.983       22.143        0.014      336.253        7.429      853.799
02/27/2014  19:35:00     -134.723     -119.895        3.967       78.496       63.315       40.794     6161.625     4008.845     1664.115        2.219        0.592      180.347       40.033        0.049      336.210        7.358      853.769
02/27/2014  19:36:00     -207.093     -160.683      -14.176       91.765       60.722       43.140     8420.793     3687.144     1861.035        4.144        0.698      262.120       35.198        0.018      336.215        7.363      853.761
02/27/2014  19:37:00     -242.050     -147.411      -24.248      107.337       65.207       45.414    11521.253     4251.901     2062.412        4.937        0.892      283.405       36.312        0.016      336.190        7.323      853.758
02/27/2014  19:38:00     -279.171     -141.942       -4.036       98.941       82.597       45.885     9789.330     6822.253     2105.466        5.840        0.936      313.184       41.015        0.017      336.155        7.263      853.763
02/27/2014  19:39:00     -227.183      -93.689      -16.763       80.866       62.713       41.865     6539.278     3932.904     1752.711        3.645        0.611      245.743       34.884        0.020      336.151        7.256      853.770
02/27/2014  19:40:00     -186.254     -103.569       -2.521       91.599       74.231       44.893     8390.460     5510.280     2015.414        3.067        0.796      213.113       37.913        0.032      336.140        7.240      853.760
02/27/2014  19:41:00      -93.794      -85.667       -1.318       63.123       72.533       31.389     3984.535     5261.096      985.263        1.318        0.512      127.028       22.269        0.031      336.156        7.268      853.754
02/27/2014  19:42:00     -181.767      -59.957       -7.462       58.913       50.855       38.284     3470.735     2586.198     1465.644        2.210        0.376      191.400       29.053        0.023      336.156        7.267      853.750
02/27/2014  19:43:00     -182.409      -72.172      -16.096       61.050       63.615       40.523     3727.143     4046.814     1642.120        2.408        0.471      196.167       32.974        0.028      336.142        7.243      853.754
02/27/2014  19:44:00     -156.952      -16.305       -8.832       42.180       52.137       27.245     1779.138     2718.297      742.273        1.511        0.262      157.796       20.294        0.017      336.140        7.241      853.757
02/27/2014  19:45:00      -61.765      -42.825        5.986       54.087       68.629       20.405     2925.389     4709.984      416.378        0.687        0.403       75.159       11.224        0.022      336.181        7.310      853.760
02/27/2014  19:46:00     -112.623      -53.220       -5.730       40.743       56.522       20.605     1659.985     3194.784      424.573        1.041        0.264      124.564       13.297        0.011      336.182        7.312      853.767
02/27/2014  19:47:00      -21.831      -12.515        4.758       37.094       27.527       17.538     1375.965      757.725      307.594        0.155        0.122       25.163       16.967        0.455      336.167        7.287      853.755
02/27/2014  19:48:00      -60.622       11.711      -11.193       45.845       25.570       14.213     2101.731      653.828      202.016        0.345        0.148       61.742       18.525        0.090      336.115        7.200      853.744
02/27/2014  19:49:00      -91.624      -32.681       -3.595       53.957       36.244       18.329     2911.336     1313.631      335.934        0.702        0.228       97.278       22.214        0.052      336.091        7.159      853.746
02/27/2014  19:50:00      -98.026      -43.778      -11.958       66.057       39.281       27.687     4363.553     1542.973      766.578        0.917        0.334      107.358       30.290        0.080      336.097        7.170      853.746
02/27/2014  19:51:00     -101.875      -52.353        7.388      101.504       56.833       37.275    10303.080     3229.983     1389.460        1.405        0.746      114.540       55.412        0.234      336.086        7.149      853.743
02/27/2014  19:52:00     -103.126      -77.863        2.383       94.433       71.169       48.031     8917.556     5065.052     2306.940        1.649        0.814      129.220       56.600        0.192      336.104        7.181      853.736
02/27/2014  19:53:00      -64.606      -59.445        7.674       71.230       56.549       37.239     5073.676     3197.838     1386.729        0.871        0.483       87.793       45.055        0.263      336.074        7.131      853.725
02/27/2014  19:54:00      -60.961      -58.185       12.728       88.717       45.961       41.609     7870.769     2112.408     1731.288        0.949        0.586       84.272       55.206        0.429      336.090        7.159      853.725
02/27/2014  19:55:00      -18.813      -26.867       15.238       76.170       34.616       25.461     5801.839     1198.265      648.256        0.448        0.382       32.799       34.507        1.107      336.112        7.194      853.721
02/27/2014  19:56:00     -145.293      -97.210       -4.281       79.909       74.502       41.422     6385.442     5550.537     1715.815        2.211        0.683      174.813       40.996        0.055      336.047        7.084      853.705
02/27/2014  19:57:00     -125.743     -100.655       26.699      137.505       77.721       55.024    18907.564     6040.604     3027.690        2.731        1.399      161.067       74.320        0.213      336.093        7.160      853.695
02/27/2014  19:58:00     -150.894      -22.339        5.549      119.399       66.672       30.562    14256.149     4445.092      934.047        2.146        0.982      152.539       46.117        0.091      336.105        7.181      853.681
02/27/2014  19:59:00     -202.384      -75.473       -5.994       99.136       58.049       37.700     9827.987     3369.730     1421.283        3.065        0.731      215.999       44.759        0.043      336.099        7.171      853.658
02/27/2014  20:00:00     -190.413      -49.620       -2.498       84.955       75.150       43.877     7217.421     5647.562     1925.153        2.675        0.740      196.772       43.476        0.049      336.047        7.083      853.649
02/27/2014  20:01:00     -178.121      -56.008      -11.789       56.158       54.829       31.119     3153.697     3006.253      968.379        2.106        0.356      186.719       27.395        0.022      336.085        7.147      853.643
02/27/2014  20:02:00     -106.640        3.383        3.739       53.674       40.089       29.706     2880.931     1607.128      882.433        0.838        0.269      106.694       31.406        0.087      336.080        7.142      853.642
02/27/2014  20:03:00     -128.050      -54.712       -8.287       76.413       31.433       28.124     5838.908      988.014      790.966        1.354        0.381      139.249       28.761        0.043      336.104        7.182      853.639
02/27/2014  20:04:00      -96.517     -110.801        0.787       72.354       71.366       32.501     5235.041     5093.090     1056.287        1.649        0.569      146.944       31.913        0.047      336.117        7.202      853.626
02/27/2014  20:05:00      -97.228       -1.321        1.928       51.496       36.287       25.280     2651.825     1316.782      639.056        0.703        0.230       97.237       25.562        0.069      336.071        7.127      853.622
02/27/2014  20:06:00      -31.912      -13.552        4.273       27.915       31.679       15.569      779.232     1003.532      242.400        0.162        0.101       34.670       14.547        0.176      336.039        7.071      853.620
02/27/2014  20:07:00      -43.217      -54.938       12.622       49.333       34.867       26.619     2433.765     1215.720      708.555        0.470        0.218       69.899       28.335        0.164      336.206        7.352      853.619
02/27/2014  20:08:00      -44.737      -62.234       11.124       35.259       31.653       21.074     1243.213     1001.883      444.122        0.434        0.134       76.645       19.960        0.068      336.137        7.235      853.631
02/27/2014  20:09:00      -62.730     -123.246        0.409       67.928       55.847       26.629     4614.160     3118.860      709.128        1.378        0.422      138.292       28.059        0.041      336.119        7.205      853.639
02/27/2014  20:10:00     -134.058     -111.206        2.874       74.130       60.943       33.834     5495.294     3714.005     1144.717        2.035        0.518      174.179       43.795        0.063      336.120        7.207      853.639
02/27/2014  20:11:00      -95.033      -99.758        8.684       61.088       46.594       37.429     3731.784     2170.998     1400.923        1.318        0.365      137.779       29.068        0.045      336.107        7.185      853.644
02/27/2014  20:12:00     -167.328     -101.599        1.508       52.499       47.254       33.101     2756.147     2232.984     1095.661        2.220        0.304      195.757       25.784        0.017      336.071        7.124      853.648
02/27/2014  20:13:00     -105.028      -83.451        5.550       71.110       47.919       32.736     5056.654     2296.183     1071.677        1.322        0.421      134.145       30.811        0.053      336.094        7.164      853.652
02/27/2014  20:14:00     -201.777     -121.899       -3.255      101.444       64.108       44.501    10290.844     4109.847     1980.300        3.598        0.819      235.739       45.716        0.038      336.090        7.155      853.636
02/27/2014  20:15:00     -256.735     -135.837      -12.607       77.391       52.773       40.403     5989.316     2785.015     1632.395        4.746        0.520      290.456       38.619        0.018      336.065        7.113      853.618
02/27/2014  20:16:00     -137.739     -116.301       -3.222       62.627       65.993       32.016     3922.169     4355.020     1025.019        2.090        0.465      180.272       24.467        0.018      336.088        7.152      853.595
02/27/2014  20:17:00     -162.129      -82.994        7.724       62.255       55.836       40.465     3875.736     3117.692     1637.391        2.093        0.432      182.136       37.643        0.043      336.033        7.060      853.553
02/27/2014  20:18:00     -172.595     -123.349       -0.382       48.107       63.369       32.739     2314.263     4015.667     1071.872        2.620        0.370      212.141       23.075        0.012      336.046        7.082      853.524
02/27/2014  20:19:00     -155.107     -136.285        3.754       88.219       76.372       45.223     7782.506     5832.752     2045.093        2.915        0.783      206.475       45.018        0.048      336.050        7.088      853.488
02/27/2014  20:20:00     -139.286     -114.619       -6.310       82.478       66.030       38.013     6802.682     4359.937     1444.995        2.259        0.630      180.383       39.335        0.048      336.004        7.012      853.470
02/27/2014  20:21:00     -133.949     -109.472      -11.816       60.272       58.576       24.552     3632.739     3431.090      602.810        1.886        0.383      172.992       19.991        0.013      336.044        7.080      853.458
02/27/2014  20:22:00     -105.625     -113.159       -8.166       53.150       59.525       32.117     2824.912     3543.258     1031.482        1.571        0.370      154.796       30.669        0.039      336.111        7.193      853.444
02/27/2014  20:23:00     -121.292     -120.232       -2.622       50.451       56.193       29.893     2545.315     3157.663      893.584        1.788        0.330      170.785       35.266        0.043      336.072        7.126      853.433
02/27/2014  20:24:00     -120.599     -120.411      -11.540       45.910       34.115       29.624     2107.698     1163.799      877.605        1.666        0.207      170.420       20.159        0.014      336.024        7.048      853.438
02/27/2014  20:25:00      -90.004     -105.221       -0.763       51.110       42.768       27.305     2612.253     1829.088      745.548        1.218        0.259      138.463       26.993        0.038      336.044        7.080      853.454
02/27/2014  20:26:00     -109.024     -102.205      -12.177       34.147       33.345       23.300     1166.042     1111.898      542.909        1.265        0.141      149.439       16.529        0.012      336.034        7.063      853.475
02/27/2014  20:27:00      -88.842      -74.717        1.512       56.949       34.393       26.356     3243.159     1182.844      694.635        0.930        0.256      116.084       27.968        0.058      336.045        7.082      853.504
02/27/2014  20:28:00      -90.727      -85.072       -7.190       67.053       69.242       38.924     4496.163     4794.459     1515.111        1.316        0.540      124.373       38.393        0.095      336.002        7.010      853.533
02/27/2014  20:29:00     -107.624      -77.850        2.647       71.343       46.373       40.237     5089.755     2150.446     1619.010        1.325        0.443      132.829       32.501        0.060      335.948        6.920      853.558
02/27/2014  20:30:00     -101.932     -108.313      -12.284       69.341       64.444       39.455     4808.116     4153.075     1556.668        1.639        0.526      148.734       37.358        0.063      335.926        6.883      853.581
02/27/2014  20:31:00     -112.531      -57.882        7.449       53.943       50.770       33.515     2909.887     2577.549     1123.268        1.134        0.331      126.544       23.093        0.033      335.886        6.819      853.594
02/27/2014  20:32:00      -51.863      -65.589        7.984       36.514       49.572       27.952     1333.299     2457.337      781.340        0.581        0.229       83.616       18.072        0.047      335.931        6.893      853.611
02/27/2014  20:33:00      -79.810      -68.676        6.692       70.240       63.499       33.213     4933.601     4032.118     1103.117        1.060        0.503      105.290       30.490        0.084      335.890        6.825      853.609
02/27/2014  20:34:00     -158.909     -131.079        0.790       83.274       72.102       46.192     6934.508     5198.629     2133.732        2.835        0.713      205.995       39.884        0.037      335.793        6.660      853.615
02/27/2014  20:35:00     -149.833     -127.470       -5.803       88.406       55.007       44.255     7815.688     3025.782     1958.464        2.576        0.640      196.719       49.383        0.063      335.771        6.624      853.611
02/27/2014  20:36:00      -53.232      -72.120       13.703       78.527       51.223       38.925     6166.436     2623.758     1515.137        0.926        0.515       89.638       48.059        0.287      335.789        6.657      853.609
02/27/2014  20:37:00     -126.431     -125.454      -17.254       60.489       67.736       27.530     3658.882     4588.221      757.927        2.051        0.450      178.111       25.837        0.021      335.704        6.513      853.595
02/27/2014  20:38:00      -58.845      -94.189        6.102       54.900       53.994       38.459     3014.045     2915.361     1479.099        0.989        0.370      111.060       35.640        0.103      335.705        6.518      853.587
02/27/2014  20:39:00      -39.091      -66.439        4.689       35.024       45.522       21.815     1226.665     2072.245      475.915        0.487        0.189       77.086       12.668        0.027      335.708        6.524      853.563
02/27/2014  20:40:00      -81.258      -56.791        5.691       65.133       53.898       32.013     4242.281     2904.955     1024.811        0.901        0.409       99.137       41.509        0.175      335.657        6.437      853.555
02/27/2014  20:41:00      -74.939      -72.276       -1.215       64.715       43.538       29.640     4188.065     1895.581      878.538        0.890        0.348      104.114       33.058        0.101      335.645        6.417      853.555
02/27/2014  20:42:00      -26.578      -39.554        0.332       25.091       45.006       14.858      629.539     2025.502      220.750        0.257        0.144       47.655       12.160        0.065      335.638        6.404      853.567
02/27/2014  20:43:00      -28.990      -34.973        6.792       39.289       23.705       22.361     1543.625      561.927      500.033        0.236        0.130       45.426       17.257        0.144      335.718        6.539      853.576
02/27/2014  20:44:00      -68.494      -76.834       -0.195       36.360       35.493       21.162     1322.036     1259.752      447.825        0.681        0.151      102.931       11.536        0.013      335.646        6.419      853.580
02/27/2014  20:45:00      -10.429      -34.098       -6.233       30.234       29.383       19.315      914.099      863.345      373.051        0.173        0.108       35.657       13.308        0.139      335.744        6.581      853.578
02/27/2014  20:46:00       15.921       -9.056        9.053       16.048       26.650       18.508      257.553      710.197      342.530        0.086        0.066       18.316       14.068        0.590      335.751        6.594      853.562
02/27/2014  20:47:00      -52.788        0.384        6.228       41.681       36.670       29.372     1737.322     1344.687      862.721        0.338        0.197       52.789       21.044        0.159      335.650        6.425      853.553
02/27/2014  20:48:00        0.692      -29.439       10.150       29.646       27.493       29.711      878.891      755.842      882.730        0.174        0.126       29.447       26.494        0.810      335.653        6.431      853.537
02/27/2014  20:49:00       15.741        4.362       26.482       27.393       23.386       14.609      750.361      546.902      213.411        0.124        0.076       16.334       11.677        0.511      335.625        6.383      853.528
02/27/2014  20:50:00       19.842       16.160       -8.169       23.349       16.828       15.419      545.186      283.171      237.744        0.089        0.053       25.590        8.759        0.117      335.573        6.296      853.519
02/27/2014  20:51:00       40.444       37.576        1.901       20.258       17.579       17.769      410.377      309.022      315.726        0.204        0.052       55.206        7.350        0.018      335.614        6.364      853.508
02/27/2014  20:52:00       29.567       26.559        5.870       25.756       21.073       19.381      663.364      444.081      375.623        0.155        0.074       39.744       13.715        0.119      335.627        6.387      853.516
02/27/2014  20:53:00       39.634       17.682        4.078       17.612       12.270       11.966      310.195      150.551      143.197        0.125        0.030       43.399       10.201        0.055      335.675        6.468      853.526
02/27/2014  20:54:00       12.980        2.534       -2.092        7.005        7.148        8.390       49.069       51.097       70.396        0.017        0.009       13.225        5.743        0.189      335.644        6.417      853.518
02/27/2014  20:55:00       27.479       24.534        9.983       12.710       12.208       11.387      161.535      149.042      129.658        0.095        0.022       36.837        5.664        0.024      335.705        6.518      853.515
02/27/2014  20:56:00       22.121       28.001       11.721       10.613       11.486        7.097      112.630      131.931       50.371        0.085        0.015       35.684        1.985        0.003      335.587        6.322      853.511
02/27/2014  20:57:00       20.808       37.057       40.808       23.094       20.466       13.954      533.312      418.840      194.723        0.231        0.057       42.499       13.373        0.099      335.612        6.362      853.505
02/27/2014  20:58:00        0.693       15.101       44.706       12.224       27.553       11.416      149.423      759.163      130.322        0.163        0.052       15.117        8.679        0.330      335.741        6.578      853.509
02/27/2014  20:59:00      -23.642      -37.791       15.591       21.694       22.791       20.826      470.642      519.437      433.739        0.183        0.071       44.577       16.319        0.134      335.877        6.804      853.515
02/27/2014  21:00:00       -9.590      -53.753       -3.213       42.703       45.970       29.157     1823.588     2113.233      850.121        0.389        0.239       54.602       24.240        0.197      335.846        6.750      853.528
02/27/2014  21:01:00      -21.342      -27.203        9.156       22.804       26.049       15.757      520.035      678.570      248.271        0.136        0.072       34.576       15.584        0.203      335.843        6.745      853.545
02/27/2014  21:02:00      -41.300      -16.148       -8.699       25.480       18.362        9.930      649.207      337.177       98.604        0.156        0.054       44.345        8.636        0.038      335.839        6.742      853.559
02/27/2014  21:03:00      -87.053      -62.432       -0.862       46.801       49.830       21.344     2190.357     2483.054      455.546        0.830        0.256      107.127       23.451        0.048      335.743        6.580      853.571
02/27/2014  21:04:00      -55.795      -82.162        0.350       52.391       55.894       27.983     2744.782     3124.186      783.071        0.826        0.333       99.316       30.077        0.092      335.771        6.627      853.569
02/27/2014  21:05:00      -73.596      -56.728        9.822       48.022       31.094       24.416     2306.143      966.856      596.122        0.630        0.193       92.922       23.892        0.066      335.786        6.652      853.563
02/27/2014  21:06:00      -53.156      -37.919        7.667       40.468       24.638       17.444     1637.642      607.030      304.284        0.344        0.127       65.295       18.525        0.080      335.789        6.657      853.544
02/27/2014  21:07:00      -20.526      -17.858        5.549       28.379       19.272       15.781      805.380      371.401      249.048        0.110        0.071       27.207       12.715        0.218      335.805        6.685      853.525
02/27/2014  21:08:00      -20.108       -4.660       -1.349       16.434       12.652       11.688      270.060      160.062      136.619        0.050        0.028       20.641        7.760        0.141      335.840        6.743      853.513
02/27/2014  21:09:00       -4.443       12.617       11.904       21.889       18.529       15.666      479.141      343.338      245.410        0.069        0.053       13.376       12.305        0.846      335.778        6.640      853.492
02/27/2014  21:10:00       -4.295       15.226        2.881       17.392       19.475       14.325      302.497      379.277      205.196        0.057        0.044       15.820       10.565        0.446      335.773        6.630      853.474
02/27/2014  21:11:00       10.116       35.086       17.545       32.118       26.985       24.077     1031.542      728.167      579.719        0.199        0.117       36.515       21.978        0.362      335.738        6.572      853.449
02/27/2014  21:12:00       36.011       46.514       -3.011       28.536       31.296       14.145      814.283      979.457      200.077        0.273        0.100       58.825       13.767        0.055      335.549        6.255      853.431
02/27/2014  21:13:00       80.930       48.941       27.427       26.792       19.727       25.834      717.829      389.147      667.394        0.574        0.089       94.578       17.397        0.034      335.485        6.149      853.417
02/27/2014  21:14:00       92.524       43.795       11.460       20.437       16.950       19.637      417.669      287.304      385.612        0.585        0.055      102.365       13.025        0.016      335.510        6.191      853.408
02/27/2014  21:15:00       99.987       54.781        6.460       18.178       19.109       15.188      330.458      365.143      230.678        0.698        0.046      114.010        6.483        0.003      335.513        6.198      853.398
02/27/2014  21:16:00      115.531       47.896        9.293       34.222       34.714       28.746     1171.112     1205.077      826.310        0.946        0.160      125.066       18.068        0.021      335.603        6.346      853.389
02/27/2014  21:17:00      111.813       55.677       12.599       29.580       30.270       25.812      874.953      916.287      666.263        0.911        0.123      124.908       13.554        0.012      335.639        6.407      853.388
02/27/2014  21:18:00      110.790       50.262        1.269       33.348       29.045       22.482     1112.096      843.594      505.458        0.863        0.123      121.658       10.259        0.007      335.563        6.281      853.392
02/27/2014  21:19:00       92.002       52.054       26.938       44.999       33.142       35.740     2024.876     1098.397     1277.375        0.815        0.220      105.707       24.120        0.052      335.622        6.379      853.399
02/27/2014  21:20:00      106.110       71.953       19.192       23.097       19.098       23.456      533.458      364.728      550.202        0.913        0.072      128.206       13.721        0.011      335.476        6.134      853.388
02/27/2014  21:21:00      109.096       69.123        6.014       37.312       35.564       22.645     1392.188     1264.813      512.779        0.994        0.158      129.151       20.227        0.025      335.440        6.074      853.367
02/27/2014  21:22:00       84.254       47.980       13.359       44.727       29.299       28.564     2000.536      858.430      815.875        0.663        0.184       96.958       24.363        0.063      335.403        6.014      853.349
02/27/2014  21:23:00       79.340       47.579       13.270       38.331       31.756       22.036     1469.240     1008.414      485.574        0.585        0.148       92.513       12.252        0.018      335.390        5.991      853.336
02/27/2014  21:24:00       92.263       64.727        5.177       28.097       21.239       16.450      789.468      451.116      270.586        0.712        0.076      112.704       10.008        0.008      335.404        6.015      853.341
02/27/2014  21:25:00       73.005       44.613        6.803       15.968       16.508       14.273      254.992      272.515      203.711        0.405        0.037       85.557        9.265        0.012      335.392        5.995      853.349
02/27/2014  21:26:00       84.742       61.205       17.096       22.234       17.248       14.117      494.355      297.489      199.281        0.611        0.050      104.534       13.453        0.017      335.437        6.068      853.349
02/27/2014  21:27:00       62.186       30.284       -0.166       20.952       21.063       14.657      438.975      443.651      214.819        0.294        0.055       69.168       12.743        0.034      335.472        6.129      853.345
02/27/2014  21:28:00       45.448       33.129       -0.818        9.864        9.109        5.934       97.305       82.969       35.216        0.169        0.011       56.241        3.860        0.005      335.473        6.129      853.340
02/27/2014  21:29:00       44.588       29.911        8.253       10.835       10.401       12.874      117.397      108.185      165.728        0.167        0.020       53.691        7.613        0.020      335.530        6.225      853.327
02/27/2014  21:30:00       37.056       27.447       15.826       13.289       12.017       10.360      176.600      144.414      107.339        0.140        0.021       46.114        6.410        0.019      335.511        6.192      853.313
02/27/2014  21:31:00       23.382       24.570       20.076       14.703       14.772       11.013      216.188      218.209      121.282        0.105        0.028       33.917        5.361        0.025      335.506        6.185      853.295
02/27/2014  21:32:00       14.612       13.136       19.319       10.234        8.957        9.631      104.734       80.236       92.759        0.052        0.014       19.648        5.824        0.088      335.542        6.245      853.263
02/27/2014  21:33:00       24.868       29.116       20.932       13.886       14.896       12.475      192.816      221.893      155.624        0.124        0.029       38.290        7.777        0.041      335.516        6.202      853.226
02/27/2014  21:34:00       46.531       39.251       18.224       15.389       15.959       11.362      236.833      254.694      129.105        0.233        0.031       60.875        8.590        0.020      335.517        6.203      853.184
02/27/2014  21:35:00       48.686       37.561        4.121       10.427       12.918       13.534      108.725      166.870      183.159        0.213        0.023       61.491        9.549        0.024      335.485        6.148      853.141
02/27/2014  21:36:00       28.819       36.580       -0.550       16.771       17.720       14.395      281.263      313.992      207.227        0.149        0.040       46.569       11.266        0.059      335.480        6.142      853.109
02/27/2014  21:37:00       19.026       54.101       -7.360        8.574        9.499        4.992       73.507       90.236       24.921        0.177        0.009       57.348        3.515        0.004      335.449        6.089      853.087
02/27/2014  21:38:00       10.396       68.056       -7.055        7.324        9.876        6.939       53.635       97.543       48.144        0.249        0.010       68.846        5.574        0.007      335.441        6.077      853.078
02/27/2014  21:39:00        2.252       77.192      -12.105        6.763       12.330        5.664       45.745      152.018       32.076        0.317        0.011       77.225        4.870        0.004      335.447        6.087      853.080
02/27/2014  21:40:00       -3.404       80.059      -10.679       11.072       14.192        8.192      122.598      201.412       67.112        0.346        0.020       80.131        6.553        0.007      335.457        6.102      853.085
02/27/2014  21:41:00       -5.277       92.319       -9.886        6.978       17.181        7.155       48.697      295.199       51.196        0.452        0.020       92.470        8.283        0.008      335.428        6.056      853.082
02/27/2014  21:42:00       -6.292      112.455       -4.241       11.297       18.089       13.995      127.616      327.224      195.867        0.668        0.033      112.631        7.748        0.005      335.394        6.000      853.062
02/27/2014  21:43:00      -28.126       52.174       -6.294       23.803       29.736       14.137      566.562      884.257      199.861        0.260        0.083       59.272       13.099        0.049      335.467        6.121      853.022
02/27/2014  21:44:00      -52.068       37.937       -4.499       18.592       21.172       15.180      345.681      448.254      230.422        0.260        0.051       64.423       14.372        0.050      335.431        6.060      852.979
02/27/2014  21:45:00      -74.208       40.097       -8.069       22.026       17.027       15.895      485.149      289.919      252.651        0.410        0.051       84.348       10.033        0.014      335.400        6.008      852.930
02/27/2014  21:46:00      -94.915       19.782       -9.259       29.880       27.881       15.494      892.828      777.343      240.057        0.570        0.096       96.954       12.757        0.017      335.406        6.019      852.889
02/27/2014  21:47:00      -74.444       12.612      -13.847       25.939       31.306       15.505      672.851      980.039      240.394        0.389        0.095       75.505       12.881        0.029      335.423        6.047      852.860
02/27/2014  21:48:00     -112.506       -9.686      -25.527       24.529       30.443       16.095      601.668      926.783      259.052        0.759        0.089      112.922       12.108        0.011      335.315        5.865      852.824
02/27/2014  21:49:00     -125.229       -3.132       -9.315       27.874       47.894       18.828      776.974     2293.822      354.485        0.960        0.171      125.268       12.251        0.010      335.209        5.692      852.803
02/27/2014  21:50:00      -84.256      -10.214       -3.904       36.948       34.354       25.105     1365.153     1180.198      630.257        0.520        0.159       84.873       25.700        0.092      335.180        5.644      852.779
02/27/2014  21:51:00     -104.193        0.344       -8.383       31.896       29.626       23.738     1017.385      877.673      563.500        0.669        0.123      104.194       16.433        0.025      335.132        5.565      852.761
02/27/2014  21:52:00     -141.558       -2.579       -6.499       36.115       36.230       23.753     1304.315     1312.636      564.223        1.163        0.159      141.581       18.526        0.017      335.141        5.576      852.744
02/27/2014  21:53:00     -137.612        6.901      -18.517       23.911       20.824       14.507      571.746      433.659      210.439        1.027        0.061      137.785        9.603        0.005      335.114        5.533      852.726
02/27/2014  21:54:00     -115.511        5.447      -19.964       31.879       39.553       20.347     1016.240     1564.463      414.006        0.838        0.150      115.639        9.932        0.007      335.103        5.517      852.714
02/27/2014  21:55:00      -89.505      -17.267       -9.402       37.619       42.662       21.043     1415.163     1820.056      442.827        0.604        0.184       91.156       11.899        0.017      335.126        5.554      852.700
02/27/2014  21:56:00     -115.905      -10.388      -16.612       21.771       24.472       15.409      473.976      598.874      237.449        0.756        0.066      116.370        9.209        0.006      335.113        5.531      852.701
02/27/2014  21:57:00     -138.494       -4.141      -13.770       40.950       25.071       19.241     1676.886      628.541      370.223        1.103        0.134      138.556       19.850        0.021      335.041        5.412      852.694
02/27/2014  21:58:00     -123.657       17.020      -12.619       29.018       27.991       20.306      842.023      783.519      412.351        0.889        0.102      124.823       16.800        0.018      335.018        5.373      852.678
02/27/2014  21:59:00     -130.680        7.933      -13.208       30.583       23.663       14.817      935.294      559.915      219.552        0.951        0.086      130.920       12.641        0.009      335.066        5.454      852.652
02/27/2014  22:00:00     -110.604       27.284      -12.281       36.357       22.169       17.157     1321.831      491.458      294.358        0.762        0.105      113.920       13.712        0.014      335.110        5.526      852.623
02/27/2014  22:01:00     -103.587       -1.223      -11.872       34.997       28.581       14.234     1224.779      816.897      202.605        0.656        0.112      103.595       13.792        0.018      335.123        5.548      852.595
02/27/2014  22:02:00     -102.685       16.630       -9.069       36.044       25.450       15.021     1299.187      647.686      225.640        0.654        0.109      104.023       14.156        0.019      335.108        5.523      852.546
02/27/2014  22:03:00      -95.573      -28.464       -8.460       35.022       23.523       15.920     1226.512      553.352      253.431        0.602        0.102       99.722       17.629        0.031      335.080        5.478      852.494
02/27/2014  22:04:00      -89.684        3.866       -7.173       32.838       24.681       16.862     1078.346      609.172      284.342        0.504        0.099       89.767        9.533        0.011      335.099        5.507      852.441
02/27/2014  22:05:00      -82.909      -19.136       -8.665       32.875       28.829       16.075     1080.774      831.126      258.401        0.474        0.109       85.088       10.818        0.016      335.023        5.382      852.391
02/27/2014  22:06:00      -79.885       -7.752        0.552       37.671       34.349       24.413     1419.070     1179.826      595.976        0.482        0.160       80.260       25.852        0.104      334.880        5.145      852.365
02/27/2014  22:07:00     -112.870       -7.342      -10.302       35.481       22.147       17.815     1258.892      490.492      317.371        0.748        0.103      113.108       18.988        0.028      334.819        5.044      852.329
02/27/2014  22:08:00     -108.718       -3.421       -3.052       42.721       26.169       23.307     1825.093      684.828      543.227        0.745        0.153      108.771       22.100        0.041      334.746        4.922      852.283
02/27/2014  22:09:00     -139.278       18.511       -9.771       32.773       25.627       22.766     1074.089      656.722      518.310        1.104        0.112      140.502       16.983        0.015      334.726        4.890      852.239
02/27/2014  22:10:00      -93.905       -1.741       -6.864       34.633       22.983       15.154     1199.418      528.221      229.631        0.541        0.098       93.921       11.980        0.016      334.730        4.895      852.198
02/27/2014  22:11:00      -97.313        2.629      -11.843       24.396       22.873       13.571      595.144      523.190      184.185        0.546        0.065       97.349        7.006        0.005      334.847        5.091      852.176
02/27/2014  22:12:00      -78.362       -6.068      -14.471       21.353       20.732       15.942      455.956      429.818      254.142        0.376        0.057       78.597       11.479        0.021      334.834        5.070      852.162
02/27/2014  22:13:00      -77.536      -20.846       -5.349       23.855       20.907       15.366      569.076      437.116      236.127        0.386        0.062       80.290       10.855        0.018      334.781        4.980      852.155
02/27/2014  22:14:00      -83.387       -8.743       -6.839       32.198       23.139       15.420     1036.681      535.421      237.780        0.444        0.090       83.844       13.754        0.027      334.735        4.904      852.159
02/27/2014  22:15:00     -109.599      -11.432       -7.177       28.442       28.960       18.368      808.942      838.683      337.391        0.709        0.099      110.193       15.225        0.019      334.647        4.758      852.177
02/27/2014  22:16:00      -86.492      -19.364       -1.450       38.915       31.310       22.772     1514.395      980.294      518.569        0.544        0.151       88.633       21.311        0.058      334.621        4.714      852.213
02/27/2014  22:17:00     -119.315      -13.111       -4.230       41.565       34.125       23.999     1727.657     1164.497      575.940        0.895        0.173      120.033       22.019        0.034      334.577        4.641      852.262
02/27/2014  22:18:00     -116.936       22.866       -6.345       33.895       31.653       18.814     1148.865     1001.917      353.950        0.837        0.125      119.150       10.930        0.008      334.498        4.509      852.302
02/27/2014  22:19:00      -94.923      -20.582      -14.410       34.333       31.223       14.948     1178.735      974.906      223.428        0.601        0.119       97.129       10.172        0.011      334.581        4.649      852.321
02/27/2014  22:20:00      -85.260      -44.631       -9.103       59.357       27.206       20.716     3523.230      740.148      429.158        0.702        0.235       96.235       21.321        0.049      334.654        4.770      852.331
02/27/2014  22:21:00      -98.915      -13.494       -0.587       39.107       32.693       24.460     1529.363     1068.824      598.281        0.658        0.160       99.831       22.519        0.051      334.638        4.741      852.353
02/27/2014  22:22:00     -174.808      -36.939      -15.927       21.514       22.733       17.183      462.845      516.788      295.241        1.673        0.064      178.668       11.531        0.004      334.540        4.579      852.366
02/27/2014  22:23:00     -151.238      -22.517       -9.086       20.074       26.813       15.333      402.976      718.943      235.106        1.241        0.068      152.905        9.893        0.004      334.574        4.637      852.361
02/27/2014  22:24:00     -106.078      -54.482       -5.324       21.804       18.630       16.638      475.395      347.079      276.833        0.767        0.055      119.251       14.367        0.015      334.561        4.616      852.351
02/27/2014  22:25:00     -114.080      -51.399       -4.544       25.473       23.823       17.856      648.890      567.546      318.824        0.861        0.077      125.125       14.349        0.013      334.596        4.673      852.356
02/27/2014  22:26:00      -87.277      -31.634       -2.794       45.184       30.739       21.774     2041.588      944.877      474.095        0.604        0.173       92.833       24.590        0.070      334.632        4.733      852.359
02/27/2014  22:27:00     -115.789      -83.296       -5.813       46.086       38.547       26.838     2123.938     1485.897      720.299        1.235        0.217      142.637       21.318        0.022      334.727        4.890      852.363
02/27/2014  22:28:00      -73.254      -67.569        1.276       59.717       48.007       27.254     3566.165     2304.677      742.786        0.827        0.331       99.658       26.006        0.068      334.680        4.812      852.360
02/27/2014  22:29:00      -88.365      -97.610        3.248       43.821       39.167       29.080     1920.283     1534.040      845.623        1.082        0.215      131.666       23.873        0.033      334.637        4.740      852.351
02/27/2014  22:30:00     -105.319      -82.100        7.812       58.469       37.728       31.275     3418.661     1423.435      978.147        1.186        0.291      133.538       31.835        0.057      334.617        4.707      852.335
02/27/2014  22:31:00     -108.828      -76.483        1.422       46.111       42.802       19.884     2126.196     1832.021      395.380        1.102        0.218      133.016       22.131        0.028      334.700        4.846      852.315
02/27/2014  22:32:00     -108.662      -84.825       -7.706       26.912       38.161       17.617      724.275     1456.290      310.350        1.078        0.125      137.850       12.625        0.008      334.764        4.951      852.293
02/27/2014  22:33:00      -83.921      -93.147        1.173       35.526       31.623       21.658     1262.092     1000.007      469.066        0.923        0.137      125.376       17.431        0.019      334.771        4.962      852.265
02/27/2014  22:34:00      -80.362      -38.564        0.619       44.808       28.032       18.251     2007.716      785.809      333.091        0.554        0.156       89.136       19.611        0.048      334.754        4.934      852.225
02/27/2014  22:35:00      -70.171      -38.132        4.710       34.404       19.910       20.054     1183.651      396.414      402.181        0.419        0.099       79.863       19.099        0.057      334.837        5.075      852.180
02/27/2014  22:36:00     -105.247      -23.041       -7.632       17.837       19.347       11.693      318.147      374.298      136.729        0.625        0.041      107.739        7.471        0.005      334.754        4.934      852.165
02/27/2014  22:37:00     -101.177      -39.163       -2.808       18.120       17.709        9.240      328.330      313.593       85.380        0.625        0.036      108.492        5.644        0.003      334.767        4.957      852.155
02/27/2014  22:38:00      -81.111      -33.179        2.544       21.267       20.922       14.038      452.298      437.729      197.077        0.439        0.054       87.635       12.542        0.020      334.742        4.916      852.159
02/27/2014  22:39:00      -75.858      -30.470        0.897       23.226       20.716       11.939      539.460      429.168      142.531        0.390        0.056       81.749       10.161        0.015      334.691        4.830      852.169
02/27/2014  22:40:00      -91.219      -17.531       -0.637       25.831       20.407       14.997      667.238      416.459      224.918        0.497        0.065       92.888       13.515        0.021      334.689        4.827      852.171
02/27/2014  22:41:00      -36.746      -25.845        6.600       18.028       18.770       11.333      325.010      352.310      128.439        0.143        0.040       44.925        9.119        0.041      334.736        4.906      852.154
02/27/2014  22:42:00      -71.102      -29.202       -5.613       26.591       25.598       12.404      707.087      655.235      153.871        0.373        0.076       76.865       14.386        0.035      334.755        4.937      852.133
02/27/2014  22:43:00      -97.787      -34.261       -0.252       22.453       21.914       16.198      504.138      480.236      262.360        0.599        0.062      103.616       10.399        0.010      334.747        4.923      852.125
02/27/2014  22:44:00      -61.526      -45.827        3.930       40.125       22.166       17.821     1610.051      491.333      317.597        0.416        0.121       76.717       20.629        0.072      334.811        5.030      852.130
02/27/2014  22:45:00      -20.999      -28.354       10.716       31.997       32.512       22.193     1023.807     1057.000      492.518        0.197        0.129       35.283       22.855        0.420      334.745        4.921      852.137
02/27/2014  22:46:00      -26.644      -42.783       13.189       35.097       32.742       21.950     1231.778     1072.054      481.808        0.275        0.139       50.401       21.694        0.185      334.734        4.903      852.131
02/27/2014  22:47:00      -49.993      -44.993       12.034       30.797       23.697       15.826      948.434      561.530      250.461        0.321        0.088       67.258       14.467        0.046      334.729        4.894      852.114
02/27/2014  22:48:00      -32.839      -31.295        7.389       36.356       24.072       18.816     1321.759      579.443      354.039        0.218        0.113       45.363       20.513        0.204      334.765        4.952      852.086
02/27/2014  22:49:00      -50.868      -22.334        3.112       27.472       18.619       16.052      754.695      346.660      257.665        0.223        0.068       55.555       16.242        0.085      334.724        4.886      852.082
02/27/2014  22:50:00     -100.924      -22.293       -4.082       17.653       13.180        8.583      311.628      173.721       73.674        0.563        0.028      103.357        8.152        0.006      334.663        4.783      852.096
02/27/2014  22:51:00      -99.229      -27.312       -8.587       16.716       18.426       10.506      279.410      339.511      110.379        0.570        0.036      102.919        7.992        0.006      334.616        4.706      852.124
02/27/2014  22:52:00      -98.051        2.486       -3.637       22.996       17.181       15.073      528.834      295.191      227.193        0.534        0.053       98.082       13.246        0.018      334.521        4.548      852.144
02/27/2014  22:53:00      -83.464        2.210       -5.466       21.491       17.130       15.679      461.874      293.429      245.842        0.400        0.050       83.493       11.604        0.019      334.482        4.484      852.140
02/27/2014  22:54:00     -108.432       -3.899       -8.979       36.619       22.612       21.149     1340.949      511.314      447.298        0.708        0.115      108.502       19.117        0.031      334.430        4.398      852.122
02/27/2014  22:55:00     -123.285      -28.089       -5.455       26.906       22.339       13.160      723.908      499.026      173.173        0.871        0.070      126.444       10.499        0.007      334.408        4.362      852.118
02/27/2014  22:56:00     -125.110      -59.150       -9.170       27.233       35.207       17.882      741.624     1239.534      319.772        1.077        0.115      138.388       15.814        0.013      334.406        4.358      852.121
02/27/2014  22:57:00     -130.663      -61.816       -0.043       32.044       24.027       17.424     1026.793      577.321      303.586        1.140        0.095      144.548       15.871        0.012      334.405        4.356      852.134
02/27/2014  22:58:00     -111.323      -26.649       -2.207       31.287       26.877       19.013      978.869      722.347      361.491        0.758        0.103      114.469       16.964        0.022      334.402        4.352      852.141
02/27/2014  22:59:00      -73.959      -57.769        1.057       40.974       32.799       16.021     1678.873     1075.774      256.662        0.591        0.151       93.847       16.475        0.031      334.552        4.601      852.153
02/27/2014  23:00:00      -97.890      -23.035       -5.852       26.746       26.851       17.491      715.328      720.959      305.940        0.594        0.087      100.564       15.591        0.024      334.426        4.391      852.134
02/27/2014  23:01:00      -94.651      -13.622        1.989       33.703       25.746       22.610     1135.900      662.875      511.199        0.573        0.115       95.626       17.922        0.035      334.369        4.298      852.115
02/27/2014  23:02:00     -112.829      -14.113       -7.322       25.961       25.519       19.998      673.991      651.216      399.935        0.735        0.086      113.709       14.294        0.016      334.390        4.332      852.098
02/27/2014  23:03:00     -112.088      -21.129       -9.629       26.795       27.379       14.579      717.974      749.632      212.538        0.739        0.084      114.062       11.141        0.010      334.376        4.310      852.086
02/27/2014  23:04:00     -117.864      -34.400       -3.192       38.117       22.750       18.704     1452.892      517.573      349.832        0.870        0.116      122.781       21.451        0.031      334.331        4.233      852.091
02/27/2014  23:05:00     -134.915      -56.535       -5.103       36.565       23.909       15.900     1337.019      571.649      252.817        1.179        0.108      146.282       17.156        0.014      334.358        4.277      852.122
02/27/2014  23:06:00     -134.370      -16.097        0.475       45.360       32.212       24.114     2057.563     1037.638      581.490        1.099        0.184      135.331       24.369        0.032      334.299        4.181      852.150
02/27/2014  23:07:00     -137.263      -63.675       -9.091       23.916       24.393       16.755      571.988      595.006      280.738        1.221        0.072      151.313       14.270        0.009      334.201        4.017      852.174
02/27/2014  23:08:00     -148.196      -44.867       -8.757       30.534       28.980       16.724      932.310      839.818      279.706        1.305        0.103      154.839       13.692        0.008      334.150        3.932      852.180
02/27/2014  23:09:00     -151.785      -46.881       -8.834       21.169       22.206       13.864      448.126      493.105      192.202        1.322        0.057      158.860        6.950        0.002      334.154        3.940      852.175
02/27/2014  23:10:00      -91.818      -48.153      -10.497       43.148       26.992       16.826     1861.787      728.556      283.118        0.687        0.144      103.679       12.594        0.015      334.199        4.014      852.160
02/27/2014  23:11:00      -92.235      -57.756       -4.511       22.269       18.331       17.342      495.922      336.023      300.761        0.650        0.057      108.826       12.166        0.012      334.160        3.950      852.150
02/27/2014  23:12:00     -138.735      -41.548      -19.483       30.071       36.361       15.092      904.274     1322.128      227.767        1.190        0.123      144.823       12.388        0.007      334.116        3.877      852.148
02/27/2014  23:13:00     -138.101      -44.242       -7.237       31.477       20.968       13.877      990.825      439.638      192.574        1.135        0.081      145.015       11.541        0.006      334.112        3.870      852.146
02/27/2014  23:14:00     -117.074      -29.553       -5.499       23.972       30.118       17.190      574.674      907.080      295.507        0.819        0.089      120.747       10.377        0.007      334.211        4.035      852.142
02/27/2014  23:15:00      -95.680      -41.077       -9.796       35.836       22.621       14.385     1284.209      511.716      206.920        0.647        0.100      104.125       15.798        0.023      334.147        3.929      852.126
02/27/2014  23:16:00     -125.001      -36.082      -10.847       38.346       20.454       19.988     1470.418      418.354      399.528        0.967        0.114      130.104       22.195        0.029      334.131        3.900      852.103
02/27/2014  23:17:00     -108.758      -22.187       -2.082       28.643       17.139       14.062      820.423      293.734      197.747        0.682        0.066      110.998       12.628        0.013      334.151        3.936      852.075
02/27/2014  23:18:00     -114.159      -20.000       -7.702       16.189       17.442        9.809      262.090      304.212       96.223        0.708        0.033      115.898        6.104        0.003      334.158        3.945      852.046
02/27/2014  23:19:00      -92.863       -8.954       -5.548       18.154       23.089       11.412      329.563      533.117      130.224        0.486        0.050       93.294        7.971        0.007      334.255        4.107      852.016
02/27/2014  23:20:00      -85.427        7.703       -7.214       19.891       21.702       14.785      395.657      470.988      218.610        0.425        0.054       85.773        9.759        0.013      334.210        4.033      851.992
02/27/2014  23:21:00     -106.360        2.890      -15.567       18.566       17.918       12.079      344.701      321.061      145.897        0.619        0.041      106.399        7.163        0.005      334.230        4.066      851.969
02/27/2014  23:22:00      -75.796       -6.275      -10.549       30.123       21.438       16.743      907.370      459.590      280.328        0.377        0.082       76.056       12.968        0.029      334.163        3.953      851.951
02/27/2014  23:23:00      -33.524      -25.248        0.260       23.256       23.410       15.044      540.858      548.007      226.336        0.154        0.066       41.968       13.760        0.108      334.170        3.964      851.925
02/27/2014  23:24:00      -76.554      -36.361       -9.510       20.277       22.078       13.340      411.170      487.425      177.959        0.417        0.054       84.751        8.935        0.011      334.224        4.056      851.908
02/27/2014  23:25:00      -43.334      -26.343        3.623       46.061       26.043       19.493     2121.604      678.219      379.985        0.288        0.159       50.712       20.081        0.157      334.279        4.148      851.891
02/27/2014  23:26:00     -134.719      -46.300       -7.376       22.306       23.012       13.001      497.541      529.538      169.029        1.077        0.060      142.453        8.495        0.004      334.223        4.054      851.880
02/27/2014  23:27:00     -130.016      -42.882       -8.576       26.166       19.922       17.772      684.674      396.905      315.862        1.011        0.070      136.905       14.148        0.011      334.163        3.955      851.872
02/27/2014  23:28:00     -131.549      -61.674      -11.767       34.123       26.743       19.848     1164.372      715.174      393.936        1.176        0.114      145.288       18.862        0.017      334.190        4.000      851.853
02/27/2014  23:29:00     -115.577      -62.532       -7.202       34.124       24.268       20.331     1164.478      588.948      413.346        0.974        0.108      131.409       16.048        0.015      334.180        3.982      851.825
02/27/2014  23:30:00      -98.256      -52.496       -2.393       27.710       35.128       18.315      767.870     1233.957      335.450        0.738        0.117      111.400       14.861        0.018      334.211        4.034      851.797
02/27/2014  23:31:00      -95.966      -11.550        0.268       42.292       23.157       19.099     1788.596      536.229      364.770        0.602        0.134       96.658       23.549        0.059      334.119        3.883      851.784
02/27/2014  23:32:00     -103.287      -16.740       -4.261       31.921       22.635       14.370     1018.981      512.322      206.501        0.635        0.087      104.635       14.129        0.018      334.151        3.935      851.772
02/27/2014  23:33:00      -79.262      -37.310        1.012       49.022       32.877       19.786     2403.137     1080.904      391.481        0.577        0.194       87.604       22.629        0.067      334.182        3.986      851.765
02/27/2014  23:34:00     -131.727      -43.378       -4.533       30.515       30.414       18.304      931.150      925.039      335.037        1.072        0.110      138.685       14.981        0.012      334.196        4.009      851.756
02/27/2014  23:35:00     -138.677      -65.876       -7.636       21.721       27.858       18.444      471.798      776.084      340.188        1.261        0.079      153.529       12.300        0.006      334.255        4.107      851.752
02/27/2014  23:36:00     -125.691      -56.596      -16.222       22.545       19.733       14.829      508.267      389.382      219.894        1.019        0.056      137.845       10.911        0.006      334.281        4.152      851.768
02/27/2014  23:37:00      -84.284      -41.207       -3.148       47.521       25.539       21.357     2258.229      652.232      456.108        0.609        0.168       93.818       21.112        0.051      334.332        4.237      851.796
02/27/2014  23:38:00     -110.621      -57.453       -5.488       28.302       20.961       20.166      801.019      439.376      406.656        0.861        0.082      124.651        9.890        0.006      334.302        4.187      851.824
02/27/2014  23:39:00     -119.287      -56.242       -4.966       25.692       23.023       16.542      660.077      530.074      273.627        0.944        0.073      131.881       17.342        0.017      334.282        4.152      851.838
02/27/2014  23:40:00     -109.422      -58.231      -11.139       24.045       19.496       13.348      578.164      380.105      178.181        0.831        0.057      123.951        6.496        0.003      334.310        4.199      851.831
02/27/2014  23:41:00     -116.150      -52.947       -5.408       17.953       23.861       15.339      322.308      569.356      235.295        0.873        0.056      127.649       11.811        0.009      334.279        4.149      851.817
02/27/2014  23:42:00     -114.518      -38.450       -4.321       21.019       16.582       13.978      441.791      274.951      195.394        0.776        0.046      120.800       11.783        0.010      334.336        4.243      851.800
02/27/2014  23:43:00      -95.777      -22.948       -0.740       30.093       23.103       13.915      905.611      533.755      193.628        0.567        0.082       98.488       15.012        0.023      334.346        4.258      851.780
02/27/2014  23:44:00     -106.950      -33.041       -4.257       25.608       19.764       15.425      655.752      390.598      237.932        0.692        0.064      111.937       11.541        0.011      334.364        4.290      851.767
02/27/2014  23:45:00      -84.768      -32.137        6.121       45.615       25.544       16.270     2080.761      652.471      264.725        0.563        0.150       90.656       19.870        0.048      334.341        4.251      851.750
02/27/2014  23:46:00     -128.120      -34.119       -4.684       29.460       29.571       17.418      867.908      874.427      303.375        0.982        0.102      132.585       15.226        0.013      334.319        4.213      851.745
02/27/2014  23:47:00     -114.864      -64.134       -1.590       46.749       29.176       18.556     2185.468      851.250      344.342        1.034        0.169      131.556       22.528        0.029      334.308        4.196      851.734
02/27/2014  23:48:00      -83.833      -68.998        0.953       48.770       50.452       20.903     2378.505     2545.415      436.938        0.857        0.268      108.575       22.825        0.044      334.383        4.321      851.713
02/27/2014  23:49:00     -125.496      -63.759        1.207       42.272       34.081       24.670     1786.962     1161.505      608.629        1.169        0.178      140.764       24.144        0.029      334.234        4.072      851.701
02/27/2014  23:50:00     -122.713      -30.714       -7.375       67.651       33.260       23.392     4576.600     1106.217      547.168        1.114        0.311      126.498       34.563        0.075      334.211        4.035      851.685
02/27/2014  23:51:00     -147.884      -44.741       -3.844       56.460       36.103       25.394     3187.754     1303.448      644.878        1.451        0.257      154.504       23.919        0.024      334.204        4.022      851.674
02/27/2014  23:52:00     -154.397      -87.478      -10.721       37.560       38.047       21.118     1410.791     1447.545      445.962        1.745        0.165      177.456       12.917        0.005      334.198        4.012      851.668
02/27/2014  23:53:00     -126.060      -60.677       -4.308       67.162       32.594       21.342     4510.758     1062.396      455.485        1.281        0.301      139.902       22.146        0.025      334.198        4.010      851.662
02/27/2014  23:54:00      -78.225      -86.031       -3.547       65.268       44.885       31.878     4259.966     2014.647     1016.223        1.041        0.365      116.278       35.475        0.093      334.303        4.187      851.681
02/27/2014  23:55:00      -95.650      -66.445        3.363       57.061       42.047       24.796     3255.979     1767.945      614.854        0.961        0.282      116.464       18.441        0.025      334.347        4.261      851.694
02/27/2014  23:56:00     -108.524      -85.193        1.730       69.479       44.189       28.095     4827.398     1952.638      789.317        1.330        0.378      137.969       33.169        0.058      334.339        4.247      851.705
02/27/2014  23:57:00     -115.470     -121.369       -7.462       50.402       65.511       24.735     2540.387     4291.753      611.828        1.778        0.372      167.522       25.217        0.023      334.253        4.101      851.717
02/27/2014  23:58:00     -119.143     -149.839      -12.326       42.266       48.130       30.876     1786.395     2316.463      953.335        2.093        0.253      191.433       28.949        0.023      334.177        3.976      851.726
02/27/2014  23:59:00      -90.735      -98.452       -1.563       47.488       45.513       30.846     2255.106     2071.406      951.483        1.160        0.264      133.887       27.426        0.042      334.223        4.055      851.725
